[[{"header":{"parameterUnit":"m.s-1","parameterCategory":1,"la1":30.6,"la2":29.2853,"lo1":-89.7004,"lo2":-87.6739,"dy":0.0162,"dx":0.0183,"nx":112,"ny":82,"refTime":"2023-08-29T12:00:00:Z","depth":0,"parameterNumber":2,"parameterNumberName":"U-component_of_WINDS"},"data":[0.0,0.0,0.0,0.0,0.0,0.0,0.0,0.0,0.0,0.0,0.0,0.0,0.0,0.0,0.0,0.0,0.0,0.0,0.0,0.0,0.0,0.0,0.0,0.0,0.0,0.0,0.0,0.0,0.0,0.0,0.0,0.0,0.0,0.0,0.0,0.0,0.0,0.0,0.0,0.0,0.0,0.0,0.0,0.0,0.0,0.0,0.0,0.0,0.0,0.0,0.0,0.0,0.0,0.0,0.0,0.0,0.0,0.0,0.0,0.0,0.0,0.0,0.0,0.0,0.0,0.0,0.0,0.0,0.0,0.0,0.0,0.0,0.0,0.0,0.0,0.0,0.0,0.0,0.0,0.0,0.0,0.0,0.0,0.0,0.0,0.0,0.0,0.0,0.0,0.0,-2.7094,-3.1,-3.6263,-3.9821,-4.0624,-3.7878,-3.5265,-3.3317,0.0,0.0,0.0,0.0,0.0,0.0,0.0,0.0,0.0,0.0,0.0,0.0,0.0,0.0,0.0,0.0,0.0,0.0,0.0,0.0,0.0,0.0,0.0,0.0,0.0,0.0,0.0,0.0,0.0,0.0,0.0,0.0,0.0,0.0,0.0,0.0,0.0,0.0,0.0,0.0,0.0,0.0,0.0,0.0,0.0,0.0,0.0,0.0,0.0,0.0,0.0,0.0,0.0,0.0,0.0,0.0,0.0,0.0,0.0,0.0,0.0,0.0,0.0,0.0,0.0,0.0,0.0,0.0,0.0,0.0,0.0,0.0,0.0,0.0,0.0,0.0,0.0,0.0,0.0,0.0,0.0,0.0,0.0,0.0,0.0,0.0,0.0,0.0,0.0,0.0,0.0,0.0,0.0,0.0,0.0,0.0,0.0,0.0,0.0,0.0,0.0,0.0,0.0,0.0,-2.8927,-3.5241,-3.8075,-3.9571,-3.9784,-3.8088,-3.5652,-3.2498,0.0,0.0,0.0,0.0,0.0,0.0,0.0,0.0,0.0,0.0,0.0,0.0,0.0,0.0,0.0,0.0,0.0,0.0,0.0,0.0,0.0,0.0,0.0,0.0,0.0,0.0,0.0,0.0,0.0,0.0,0.0,0.0,0.0,0.0,0.0,0.0,0.0,0.0,0.0,0.0,0.0,0.0,0.0,0.0,0.0,0.0,0.0,0.0,0.0,0.0,0.0,0.0,0.0,0.0,0.0,0.0,0.0,0.0,0.0,0.0,0.0,0.0,0.0,0.0,0.0,0.0,0.0,0.0,0.0,0.0,0.0,0.0,0.0,0.0,0.0,0.0,0.0,0.0,0.0,0.0,0.0,0.0,0.0,0.0,0.0,0.0,0.0,0.0,0.0,0.0,0.0,0.0,0.0,0.0,0.0,0.0,0.0,0.0,0.0,0.0,0.0,0.0,0.0,-2.7957,-3.1854,-3.641,-3.888,-4.0037,-3.9624,-3.7687,-3.5235,-3.2285,-2.802,0.0,0.0,0.0,0.0,0.0,0.0,0.0,0.0,0.0,0.0,0.0,0.0,0.0,0.0,0.0,0.0,0.0,0.0,0.0,0.0,0.0,0.0,0.0,0.0,0.0,0.0,0.0,0.0,0.0,0.0,0.0,0.0,0.0,0.0,0.0,0.0,0.0,0.0,0.0,0.0,0.0,0.0,0.0,0.0,0.0,0.0,0.0,0.0,0.0,0.0,0.0,0.0,0.0,0.0,0.0,0.0,0.0,0.0,0.0,0.0,0.0,0.0,0.0,0.0,0.0,0.0,0.0,0.0,0.0,0.0,0.0,0.0,0.0,0.0,0.0,0.0,0.0,0.0,0.0,0.0,0.0,0.0,0.0,0.0,0.0,0.0,0.0,0.0,0.0,0.0,0.0,0.0,0.0,0.0,0.0,0.0,0.0,0.0,0.0,0.0,0.0,0.0,-3.0218,-3.3701,-3.6325,-3.875,-3.9799,-3.8795,-3.6598,-3.4209,-3.164,-2.7604,0.0,0.0,0.0,0.0,0.0,0.0,0.0,0.0,0.0,0.0,0.0,0.0,0.0,0.0,0.0,0.0,0.0,0.0,0.0,0.0,0.0,0.0,0.0,0.0,0.0,0.0,0.0,0.0,0.0,0.0,0.0,0.0,0.0,0.0,0.0,0.0,0.0,0.0,0.0,0.0,0.0,0.0,0.0,0.0,0.0,0.0,0.0,0.0,0.0,0.0,0.0,0.0,0.0,0.0,0.0,0.0,0.0,0.0,0.0,0.0,0.0,0.0,0.0,0.0,0.0,0.0,0.0,0.0,0.0,0.0,0.0,0.0,0.0,0.0,0.0,0.0,0.0,0.0,0.0,0.0,0.0,0.0,0.0,0.0,0.0,0.0,0.0,0.0,0.0,0.0,0.0,0.0,0.0,0.0,0.0,0.0,0.0,0.0,0.0,0.0,0.0,0.0,-2.9708,-3.2861,-3.5413,-3.7367,-3.7812,-3.6192,-3.4487,-3.2397,-2.9839,-2.6403,0.0,0.0,0.0,0.0,0.0,0.0,0.0,0.0,0.0,0.0,0.0,0.0,0.0,0.0,0.0,0.0,0.0,0.0,0.0,0.0,0.0,0.0,0.0,0.0,0.0,0.0,0.0,0.0,0.0,0.0,0.0,0.0,0.0,0.0,0.0,0.0,0.0,0.0,0.0,0.0,0.0,0.0,0.0,0.0,0.0,0.0,0.0,0.0,0.0,0.0,0.0,0.0,0.0,0.0,0.0,0.0,0.0,0.0,0.0,0.0,0.0,0.0,0.0,0.0,0.0,0.0,0.0,0.0,0.0,0.0,0.0,0.0,0.0,0.0,0.0,0.0,0.0,0.0,0.0,0.0,0.0,0.0,0.0,0.0,0.0,0.0,0.0,0.0,0.0,0.0,0.0,0.0,0.0,0.0,0.0,0.0,0.0,0.0,0.0,0.0,0.0,0.0,-2.9631,-3.2783,-3.533,-3.6737,-3.7022,-3.5896,-3.3774,-3.1391,-2.8857,0.0,0.0,0.0,0.0,0.0,0.0,0.0,0.0,0.0,0.0,0.0,0.0,0.0,0.0,0.0,0.0,0.0,0.0,0.0,0.0,0.0,0.0,0.0,0.0,0.0,0.0,0.0,0.0,0.0,0.0,0.0,0.0,0.0,0.0,0.0,0.0,0.0,0.0,0.0,0.0,0.0,0.0,0.0,0.0,0.0,0.0,0.0,0.0,0.0,0.0,0.0,0.0,0.0,0.0,0.0,0.0,0.0,0.0,0.0,0.0,0.0,0.0,0.0,0.0,0.0,0.0,0.0,0.0,0.0,0.0,0.0,0.0,0.0,0.0,0.0,0.0,0.0,0.0,0.0,0.0,0.0,0.0,0.0,0.0,0.0,0.0,0.0,0.0,0.0,0.0,0.0,0.0,0.0,0.0,0.0,0.0,0.0,0.0,0.0,0.0,0.0,0.0,-2.5548,-2.8835,-3.176,-3.3766,-3.5062,-3.5345,-3.4234,-3.2315,-3.0085,-2.754,0.0,0.0,0.0,0.0,0.0,0.0,0.0,0.0,0.0,0.0,0.0,0.0,0.0,0.0,0.0,0.0,0.0,0.0,0.0,0.0,0.0,0.0,0.0,0.0,0.0,0.0,0.0,0.0,0.0,0.0,0.0,0.0,0.0,0.0,0.0,0.0,0.0,0.0,0.0,0.0,0.0,0.0,0.0,0.0,0.0,0.0,0.0,0.0,0.0,0.0,0.0,0.0,0.0,0.0,0.0,0.0,0.0,0.0,0.0,0.0,0.0,0.0,0.0,0.0,0.0,0.0,0.0,0.0,0.0,0.0,0.0,0.0,0.0,0.0,0.0,0.0,0.0,0.0,0.0,0.0,0.0,0.0,0.0,0.0,0.0,0.0,0.0,0.0,0.0,0.0,0.0,0.0,0.0,0.0,0.0,0.0,0.0,0.0,0.0,0.0,0.0,0.0,-2.3983,-2.7094,-2.953,-3.0409,-3.2106,-3.2468,-3.0757,-2.9836,-2.8286,0.0,0.0,0.0,0.0,0.0,0.0,0.0,0.0,0.0,0.0,0.0,0.0,0.0,0.0,0.0,0.0,0.0,0.0,0.0,0.0,0.0,0.0,0.0,0.0,0.0,0.0,0.0,0.0,0.0,0.0,0.0,0.0,0.0,0.0,0.0,0.0,0.0,0.0,0.0,0.0,0.0,0.0,0.0,0.0,0.0,0.0,0.0,0.0,0.0,0.0,0.0,0.0,0.0,0.0,0.0,0.0,0.0,0.0,0.0,0.0,0.0,0.0,0.0,0.0,0.0,0.0,0.0,0.0,0.0,0.0,0.0,0.0,0.0,0.0,0.0,0.0,0.0,0.0,0.0,0.0,0.0,0.0,0.0,0.0,0.0,0.0,0.0,0.0,0.0,0.0,0.0,0.0,0.0,0.0,0.0,0.0,0.0,0.0,0.0,0.0,0.0,0.0,0.0,-2.3984,-2.7085,-2.952,-3.0418,-3.1028,-3.1163,-3.0643,-2.874,-2.674,-2.481,0.0,0.0,0.0,0.0,0.0,0.0,0.0,0.0,0.0,0.0,0.0,0.0,0.0,0.0,0.0,0.0,0.0,0.0,0.0,0.0,0.0,0.0,0.0,0.0,0.0,0.0,0.0,0.0,0.0,0.0,0.0,0.0,0.0,0.0,0.0,0.0,0.0,0.0,0.0,0.0,0.0,0.0,0.0,0.0,0.0,0.0,0.0,0.0,0.0,0.0,0.0,0.0,0.0,0.0,0.0,0.0,0.0,0.0,0.0,0.0,0.0,0.0,0.0,0.0,0.0,0.0,0.0,0.0,0.0,0.0,0.0,0.0,0.0,0.0,0.0,0.0,0.0,0.0,0.0,0.0,0.0,0.0,0.0,0.0,0.0,0.0,0.0,0.0,0.0,0.0,0.0,0.0,0.0,0.0,0.0,0.0,0.0,0.0,0.0,0.0,0.0,0.0,-2.3509,-2.6261,-2.8372,-2.8922,-2.9323,-2.9437,-2.9104,-2.7364,-2.5571,-2.3895,0.0,0.0,0.0,0.0,0.0,0.0,0.0,0.0,0.0,0.0,0.0,0.0,0.0,0.0,0.0,0.0,0.0,0.0,0.0,0.0,0.0,0.0,0.0,0.0,0.0,0.0,0.0,0.0,0.0,0.0,0.0,0.0,0.0,0.0,0.0,0.0,0.0,0.0,0.0,0.0,0.0,0.0,0.0,0.0,0.0,0.0,0.0,0.0,0.0,0.0,0.0,0.0,0.0,0.0,0.0,0.0,0.0,0.0,0.0,0.0,0.0,0.0,0.0,0.0,0.0,0.0,0.0,0.0,0.0,0.0,0.0,0.0,0.0,0.0,0.0,0.0,0.0,0.0,0.0,0.0,0.0,0.0,0.0,0.0,0.0,0.0,0.0,0.0,0.0,0.0,0.0,0.0,0.0,0.0,0.0,0.0,0.0,0.0,0.0,0.0,0.0,0.0,-2.2797,-2.5014,-2.6617,-2.6679,-2.7397,-2.7583,-2.685,-2.5993,-2.4771,-2.3115,0.0,0.0,0.0,0.0,0.0,0.0,0.0,0.0,0.0,0.0,0.0,0.0,0.0,0.0,0.0,0.0,0.0,0.0,0.0,0.0,0.0,0.0,0.0,0.0,0.0,0.0,0.0,0.0,0.0,0.0,0.0,0.0,0.0,0.0,0.0,0.0,0.0,0.0,0.0,0.0,0.0,0.0,0.0,0.0,0.0,0.0,0.0,0.0,0.0,0.0,0.0,0.0,0.0,0.0,0.0,0.0,0.0,0.0,0.0,0.0,-2.7674,0.0,0.0,0.0,0.0,0.0,0.0,0.0,0.0,0.0,0.0,0.0,0.0,0.0,0.0,0.0,0.0,0.0,0.0,0.0,0.0,0.0,0.0,0.0,0.0,0.0,0.0,0.0,0.0,0.0,0.0,0.0,0.0,0.0,0.0,0.0,0.0,0.0,0.0,0.0,0.0,0.0,-2.2797,-2.5014,-2.6612,-2.6617,-2.6828,-2.6912,-2.6747,-2.5971,-2.4788,-2.3101,-2.2842,0.0,0.0,0.0,0.0,0.0,0.0,0.0,0.0,0.0,0.0,0.0,0.0,0.0,0.0,0.0,0.0,0.0,0.0,0.0,0.0,0.0,0.0,0.0,0.0,0.0,0.0,0.0,0.0,0.0,0.0,0.0,0.0,0.0,0.0,0.0,0.0,0.0,0.0,0.0,0.0,0.0,0.0,0.0,0.0,0.0,0.0,0.0,0.0,0.0,0.0,0.0,0.0,0.0,0.0,0.0,0.0,0.0,0.0,0.0,0.0,-2.8072,0.0,0.0,0.0,0.0,0.0,0.0,0.0,0.0,0.0,0.0,0.0,0.0,0.0,0.0,0.0,0.0,0.0,0.0,0.0,0.0,0.0,0.0,0.0,0.0,0.0,0.0,0.0,0.0,0.0,0.0,0.0,0.0,0.0,0.0,0.0,0.0,0.0,0.0,0.0,0.0,-2.2799,-2.4659,-2.5981,-2.601,-2.6053,-2.6075,-2.6073,-2.5333,-2.4492,-2.3634,-2.3212,0.0,0.0,0.0,0.0,0.0,0.0,0.0,0.0,0.0,0.0,0.0,0.0,0.0,0.0,0.0,0.0,0.0,0.0,0.0,0.0,0.0,0.0,0.0,0.0,0.0,0.0,0.0,0.0,0.0,0.0,0.0,0.0,0.0,0.0,0.0,0.0,0.0,0.0,0.0,0.0,0.0,0.0,0.0,0.0,0.0,0.0,0.0,0.0,0.0,0.0,0.0,0.0,0.0,-3.5431,-3.5408,-3.5408,-3.525,-3.5584,-3.6102,-3.2767,-3.1445,-3.1419,-2.9,0.0,0.0,0.0,0.0,0.0,0.0,0.0,0.0,0.0,0.0,0.0,0.0,0.0,0.0,0.0,0.0,0.0,0.0,0.0,0.0,0.0,0.0,0.0,0.0,-2.6008,-2.492,-2.3594,0.0,0.0,0.0,0.0,0.0,0.0,0.0,0.0,0.0,0.0,0.0,-2.2757,-2.4235,-2.5292,-2.5366,-2.5375,-2.5374,-2.538,-2.4787,-2.435,-2.4212,-2.3582,-2.2857,0.0,0.0,0.0,0.0,0.0,0.0,0.0,0.0,0.0,0.0,0.0,0.0,0.0,0.0,0.0,0.0,0.0,0.0,0.0,0.0,0.0,0.0,0.0,0.0,0.0,0.0,0.0,0.0,0.0,0.0,0.0,0.0,-2.497,-2.5142,0.0,0.0,0.0,0.0,0.0,0.0,0.0,0.0,0.0,0.0,0.0,0.0,0.0,-3.5434,-3.8516,-3.843,-3.9122,-4.0609,-4.0626,-4.0604,-4.0587,-3.9813,-3.9612,-3.9754,-3.8426,0.0,-3.3213,-3.2305,0.0,0.0,0.0,0.0,0.0,0.0,0.0,0.0,0.0,0.0,0.0,0.0,0.0,0.0,0.0,0.0,0.0,0.0,0.0,0.0,0.0,0.0,-2.794,-2.8923,-2.7912,-2.6696,0.0,-2.4993,-2.3316,-2.2499,-2.1787,0.0,0.0,0.0,0.0,0.0,0.0,0.0,-2.2635,-2.4094,-2.5143,-2.5215,-2.5236,-2.5248,-2.5317,-2.5274,-2.4947,-2.4235,-2.4103,-2.3682,-2.2881,-2.2845,0.0,0.0,0.0,0.0,0.0,0.0,0.0,0.0,0.0,0.0,0.0,0.0,0.0,0.0,0.0,0.0,0.0,0.0,0.0,0.0,0.0,0.0,0.0,0.0,0.0,0.0,0.0,0.0,0.0,-2.3617,-2.5368,-2.5542,-2.5361,-2.5028,0.0,0.0,0.0,0.0,0.0,0.0,0.0,0.0,0.0,-3.6857,-3.7041,-3.8602,-4.1727,-4.1492,-4.1926,-4.2999,-4.2931,-4.2891,-4.2873,-4.2068,-4.1745,-4.1785,-4.0967,-3.9541,-3.7563,-3.5031,-3.2638,-3.0416,0.0,0.0,0.0,0.0,-2.8007,-2.822,-2.9455,-2.9887,-2.9939,-3.0083,0.0,0.0,0.0,0.0,0.0,0.0,0.0,0.0,0.0,0.0,-2.9184,-3.0016,-2.8922,-2.7821,-2.8372,-2.6572,-2.4486,0.0,-2.283,-2.2281,-2.135,0.0,0.0,0.0,0.0,-2.2485,-2.2489,-2.3954,-2.4828,-2.445,-2.4855,-2.496,-2.4555,-2.4999,-2.5149,-2.4836,-2.4857,-2.4501,-2.3651,-2.3644,-2.3447,0.0,0.0,0.0,0.0,0.0,0.0,0.0,0.0,0.0,0.0,0.0,0.0,0.0,0.0,0.0,0.0,0.0,0.0,0.0,0.0,0.0,0.0,0.0,0.0,0.0,0.0,0.0,0.0,-2.4961,-2.6334,-2.706,-2.735,-2.7362,0.0,0.0,0.0,0.0,0.0,0.0,-3.5017,-3.564,-3.7318,-4.0329,-4.0375,-4.1544,-4.4117,-4.3877,-4.4112,-4.485,-4.47,-4.4636,-4.4618,-4.3638,-4.3225,-4.3249,-4.2268,-4.1633,-4.1019,-3.7623,-3.5206,-3.347,-3.1679,-3.0314,-2.9404,-2.9978,-3.021,-3.0405,-3.1489,-3.1722,-3.1624,-3.209,-3.1293,-2.9927,-2.8793,0.0,0.0,0.0,0.0,-2.8765,-2.9361,-2.9778,-3.0269,-3.1081,-2.9849,-2.8638,-2.9311,-2.7466,-2.5369,0.0,-2.3629,-2.2823,-2.1569,0.0,0.0,0.0,-2.1098,-2.2035,-2.2035,-2.3315,-2.4004,-2.3474,-2.4017,-2.4162,-2.3585,-2.4318,-2.4834,-2.4905,-2.5168,-2.5048,-2.4412,-2.4446,-2.4177,-2.353,0.0,0.0,0.0,0.0,0.0,0.0,0.0,0.0,0.0,0.0,0.0,0.0,0.0,0.0,0.0,0.0,0.0,0.0,0.0,0.0,0.0,0.0,0.0,0.0,0.0,0.0,0.0,0.0,0.0,-3.1856,-3.1938,0.0,0.0,0.0,0.0,-3.3965,-3.4292,-3.6093,-3.9931,-4.0113,-4.1213,-4.3668,-4.424,-4.4943,-4.5871,-4.5726,-4.607,-4.685,-4.6717,-4.6648,-4.6594,-4.4966,-4.4316,-4.4338,-4.2703,-4.2016,-4.1926,-4.0253,-3.7824,-3.5126,-3.4445,-3.2787,-3.0989,-3.272,-3.3372,-3.3605,-3.5257,-3.5308,-3.4572,-3.3903,-3.1636,-2.9178,-2.9148,-2.8081,0.0,0.0,-2.919,-2.9803,-3.2142,-3.2182,-3.1818,-3.2674,-3.0969,-2.9175,-2.9293,-2.7369,-2.5607,0.0,-2.3734,-2.2152,-2.2058,0.0,-1.982,-1.9726,-2.0483,-2.1071,-2.1077,-2.1821,-2.2349,-2.2367,-2.2463,-2.2552,-2.2563,-2.3315,-2.38,-2.3877,-2.4669,-2.5124,-2.514,-2.5211,-2.5216,-2.5191,-2.3632,0.0,0.0,0.0,0.0,0.0,0.0,0.0,0.0,0.0,0.0,0.0,0.0,0.0,0.0,0.0,0.0,0.0,0.0,0.0,0.0,0.0,0.0,0.0,0.0,0.0,0.0,0.0,0.0,-3.2766,-3.3487,0.0,-3.4127,-3.4181,-3.5127,-3.7335,-3.8522,-4.0239,-4.2683,-4.3297,-4.3946,-4.4796,-4.4926,-4.5114,-4.542,-4.5333,-4.5434,-4.5699,-4.5656,-4.5612,-4.5471,-4.4375,-4.385,-4.3789,-4.258,-4.2079,-4.2047,-4.1368,-3.9924,-3.8073,-3.7417,-3.609,-3.4657,-3.5442,-3.546,-3.5102,-3.521,-3.5075,-3.4619,-3.3314,-3.2175,-3.1207,-3.0705,-3.0237,-2.9876,-2.9931,-3.0353,-3.0849,-3.1166,-3.1431,-3.1641,-3.1906,-3.0909,-2.9765,-2.927,-2.7653,-2.6158,-2.5661,-2.4476,-2.3388,-2.2831,-2.1883,-2.1019,-2.0436,-2.061,-2.0811,-2.0811,-2.1559,-2.1894,-2.1447,-2.1922,-2.2063,-2.1582,-2.2344,-2.2874,-2.2898,-2.3231,-2.3443,-2.346,-2.3536,-2.3558,-2.3554,-2.2482,-2.1959,0.0,0.0,0.0,0.0,0.0,0.0,0.0,0.0,0.0,0.0,0.0,0.0,0.0,0.0,0.0,0.0,0.0,0.0,0.0,0.0,0.0,0.0,0.0,0.0,0.0,-3.0468,-3.3365,-3.4975,-3.6391,-3.7295,-3.7447,-3.7936,-3.8924,-4.0616,-4.2045,-4.3459,-4.4838,-4.5164,-4.5417,-4.5707,-4.5355,-4.517,-4.517,-4.5109,-4.5083,-4.5081,-4.5021,-4.492,-4.4778,-4.3927,-4.3525,-4.3383,-4.2434,-4.1956,-4.1895,-4.1372,-4.0612,-3.9717,-3.9142,-3.8232,-3.7202,-3.7144,-3.6866,-3.6369,-3.5423,-3.4968,-3.459,-3.3245,-3.2652,-3.2364,-3.1822,-3.1351,-3.0931,-3.0693,-3.0821,-3.0986,-3.0674,-3.0791,-3.0919,-3.0589,-2.9941,-2.9175,-2.8367,-2.7137,-2.6046,-2.5523,-2.4625,-2.3739,-2.3158,-2.2451,-2.1771,-2.1161,-2.0847,-2.0669,-2.0669,-2.0941,-2.0942,-2.0487,-2.0954,-2.1122,-2.0601,-2.1399,-2.1921,-2.1941,-2.225,-2.2438,-2.2462,-2.2502,-2.2541,-2.2563,-2.1741,-2.123,-2.1022,0.0,0.0,0.0,0.0,0.0,0.0,0.0,0.0,0.0,0.0,0.0,0.0,0.0,0.0,0.0,0.0,0.0,0.0,0.0,0.0,0.0,0.0,0.0,-3.0898,-3.3434,-3.6187,-3.8773,-4.0848,-4.2101,-4.2153,-4.3057,-4.3709,-4.3847,-4.4635,-4.5513,-4.6447,-4.5743,-4.5653,-4.6413,-4.5671,-4.5254,-4.5236,-4.5236,-4.5196,-4.5111,-4.4991,-4.4848,-4.4685,-4.3846,-4.3401,-4.3205,-4.2224,-4.1697,-4.1455,-4.0351,-3.9886,-3.9827,-3.9512,-3.8962,-3.8321,-3.7805,-3.7613,-3.7434,-3.6123,-3.526,-3.4641,-3.386,-3.3063,-3.2393,-3.2393,-3.1295,-3.0195,-3.0948,-3.0597,-3.0172,-3.0914,-3.05,-2.9721,-2.8913,-2.8129,-2.7333,-2.653,-2.5746,-2.521,-2.5246,-2.4061,-2.3024,-2.3033,-2.2423,-2.1906,-2.1844,-2.1154,0.0,-2.0639,-1.995,-1.9501,-1.9552,-1.9625,-1.9692,-1.9773,-2.0542,-2.1025,-2.1028,-2.183,-2.2322,-2.2394,-2.2394,-2.2445,-2.2532,-2.169,-2.0923,-2.0256,0.0,0.0,0.0,0.0,0.0,0.0,0.0,0.0,0.0,0.0,0.0,0.0,0.0,0.0,0.0,0.0,0.0,0.0,0.0,0.0,0.0,-2.9188,-3.1951,-3.244,-3.58,-3.8848,-4.0533,-4.2476,-4.3735,-4.3896,-4.4243,-4.4767,-4.5504,-4.5284,-4.5513,-4.6447,-4.5743,-4.5128,-4.4765,-4.4548,-4.415,-4.357,-4.3571,-4.3532,-4.3451,-4.3431,-4.3254,-4.2992,-4.2736,-4.248,-4.2188,-4.1802,-4.1222,-4.048,-4.0019,-3.9428,-3.8813,-3.8934,-3.8566,-3.7974,-3.8064,-3.7235,-3.5911,-3.5103,-3.4346,-3.3668,-3.351,-3.2907,-3.2254,-3.2254,-3.157,-3.0714,-3.0355,-3.0139,-2.9776,-2.8792,-2.8349,-2.7973,-2.7126,-2.6786,-2.6438,-2.5627,-2.5313,-2.5035,-2.4482,-2.4027,-2.3756,-2.3841,-2.3217,-2.2693,-2.2666,-2.1986,0.0,-2.1462,-2.1285,-2.1144,-2.1176,-2.1224,-2.1286,-2.1358,-2.1626,-2.1801,-2.18,-2.2013,-2.2191,-2.226,-2.225,-2.2573,-2.3282,-2.3004,-2.3094,0.0,0.0,0.0,0.0,0.0,0.0,0.0,0.0,0.0,0.0,0.0,0.0,0.0,0.0,0.0,0.0,0.0,0.0,0.0,0.0,0.0,0.0,-3.1368,-3.4003,-3.5018,-3.7814,-4.0274,-4.1569,-4.3447,-4.4739,-4.5032,-4.5405,-4.5908,-4.6568,-4.5978,-4.5812,-4.6385,-4.5397,-4.4584,-4.4114,-4.3769,-4.3371,-4.2901,-4.2901,-4.2843,-4.2725,-4.2649,-4.247,-4.2124,-4.21,-4.1715,-4.1069,-4.0941,-4.0326,-3.9351,-3.8849,-3.8311,0.0,0.0,0.0,0.0,0.0,-3.6301,-3.5097,-3.4479,-3.3571,-3.2694,-3.2769,-3.2289,-3.1667,-3.1667,-3.1143,-3.0394,-2.9569,-2.9154,-2.8615,-2.7307,-2.6951,-2.6739,-2.5907,-2.5731,-2.5546,-2.4737,-2.4595,-2.4481,-2.4038,-2.3966,0.0,-2.4094,-2.3737,-2.3436,-2.3455,-2.274,-2.2227,-2.2264,-2.1969,-2.1765,-2.1799,-2.1822,-2.189,-2.1946,-2.1988,0.0,0.0,0.0,-2.2088,-2.2152,-2.2151,0.0,0.0,0.0,-2.3208,-2.3762,0.0,0.0,0.0,-2.412,-2.5284,0.0,0.0,0.0,0.0,0.0,0.0,0.0,0.0,0.0,0.0,0.0,0.0,0.0,0.0,0.0,0.0,-3.3673,-3.6221,-3.7887,-3.9302,-4.0675,-4.2009,-4.379,-4.5135,-4.5584,-4.6234,-4.674,-4.7008,-4.6384,-4.6028,-4.6029,-4.4684,0.0,0.0,0.0,-4.2825,-4.2825,-4.2825,-4.2747,-4.255,-4.2432,-4.2154,-4.1707,-4.1639,-4.0977,-3.9911,-3.9765,-3.9152,-3.818,-3.7342,-3.6888,-3.6718,-3.6814,-3.6891,-3.6878,-3.5654,-3.5015,-3.4606,-3.386,0.0,0.0,-3.1796,-3.133,-3.0738,-3.0738,-3.0161,-2.936,-2.8641,-2.7869,-2.7067,-2.6253,-2.6054,-2.5855,-2.5041,-2.4842,-2.4672,-2.3948,-2.3785,-2.3813,-2.3865,-2.3876,-2.3896,-2.3966,-2.3986,-2.4016,-2.4084,-2.3432,-2.2957,-2.3023,-2.2401,-2.198,-2.2049,0.0,0.0,-2.2159,-2.2175,-2.22,-2.2259,-2.2267,-2.2309,-2.2367,-2.2368,-2.2409,-2.2503,-2.2495,-2.2566,-2.2724,-2.2626,-2.3025,-2.3881,-2.4777,-2.568,0.0,0.0,0.0,0.0,0.0,0.0,0.0,0.0,0.0,0.0,0.0,0.0,0.0,0.0,0.0,-3.2368,-3.5168,-3.7486,-3.864,-3.9229,-4.0154,-4.17,-4.3072,-4.4253,-4.5129,-4.5441,-4.5693,-4.5881,-4.5302,-4.4739,-4.432,-4.3306,-4.2727,-4.2727,-4.2542,-4.243,-4.243,-4.2472,-4.2412,-4.2187,0.0,0.0,-4.0613,-4.0482,-3.982,-3.8739,-3.8716,-3.8145,-3.7268,-3.7087,-3.6197,-3.5011,-3.512,-3.5266,-3.5206,-3.3901,-3.3458,-3.3368,-3.2141,-3.1654,-3.146,-3.0879,-3.0284,-2.9771,-2.9771,-2.8802,0.0,-2.7504,-2.6927,-2.6165,-2.5354,-2.5156,-2.4958,-2.4147,-2.3948,-2.3912,-2.375,-2.3714,-2.3714,-2.3743,-2.3743,-2.3765,-2.3818,-2.3933,-2.4006,-2.4016,-2.3878,-2.3759,-2.3797,-2.3651,-2.3569,-2.3571,-2.3666,-2.3731,-2.375,-2.3796,-2.3841,-2.385,-2.3913,-2.3939,-2.3948,-2.3962,-2.4293,-2.5,-2.4947,-2.5282,-2.5995,-2.53,-2.5128,-2.5461,-2.5179,-2.5545,0.0,0.0,0.0,0.0,0.0,0.0,0.0,0.0,0.0,0.0,0.0,-2.6362,-2.7872,0.0,-3.215,-3.4343,-3.621,-3.7742,-3.8668,-3.8969,-3.9578,-4.0906,-4.1972,-4.2871,-4.3568,-4.4071,-4.4442,-4.4636,-4.4026,-4.3562,-4.3362,-4.2515,-4.2047,-4.2047,-4.1945,-4.1941,-4.2002,-4.2026,-4.2005,-4.1899,-4.1421,-4.0818,-4.0083,-3.9505,-3.8687,-3.7706,-3.7706,-3.7166,-3.6271,-3.5898,-3.5265,-3.4443,-3.3761,-3.3811,-3.412,-3.3077,-3.2584,-3.2309,-3.1307,-3.0537,-2.995,-2.9689,-2.9157,-2.855,-2.8201,-2.758,-2.6843,-2.607,-2.557,-2.5105,-2.4349,-2.4146,-2.4056,-2.3663,-2.3544,-2.3544,-2.3544,-2.3544,-2.3555,-2.3589,-2.3589,-2.36,-2.3634,-2.3711,-2.3779,-2.3891,-2.3863,-2.3852,-2.3902,-2.3902,-2.3904,-2.3955,-2.4006,-2.4064,-2.4094,-2.4162,-2.4219,-2.4238,-2.4284,-2.4303,-2.4348,-2.4357,-2.4542,-2.4986,-2.4977,-2.5162,-2.5607,-2.5162,-2.5023,-2.5147,-2.4837,-2.526,0.0,0.0,0.0,0.0,0.0,0.0,0.0,-2.5588,-2.6659,-2.6844,-2.7614,-2.888,-3.0892,-3.1999,-3.342,-3.6023,-3.7053,-3.7755,-3.8495,-3.8553,-3.8912,-3.9944,-4.0747,-4.1433,-4.1957,-4.2624,-4.311,-4.331,-4.2836,-4.2554,-4.2532,-4.189,-4.1516,-4.1494,-4.1366,-4.1343,-4.145,-4.1332,-4.1266,-4.1266,-4.0377,-3.972,-3.9283,-3.8454,-3.7553,-3.6661,-3.6508,-3.6017,-3.5284,-3.4525,-3.4141,-3.3905,-3.2722,-3.2577,-3.2981,-3.2272,-3.1711,-3.1235,-3.0417,-2.9386,-2.8414,-2.8296,-2.7864,-2.7289,-2.6574,-2.6323,-2.5972,-2.4706,-2.4264,-2.4012,-2.3436,-2.3289,-2.3289,-2.3301,-2.3301,-2.3301,-2.3301,-2.3301,-2.3313,-2.3372,-2.3383,-2.3383,-2.3383,-2.3383,-2.3464,-2.3707,-2.3707,-2.3678,-2.3721,-2.375,-2.3765,-2.3831,-2.3845,-2.3886,-2.3966,-2.4016,-2.4084,-2.4141,-2.4153,-2.4173,-2.4219,-2.4219,-2.4219,-2.421,-2.4219,-2.4219,-2.4219,-2.4247,-2.4294,-2.4367,-2.4374,-2.4912,-1.9357,-2.0155,-2.1623,-2.3701,-2.3951,-2.3998,0.0,-2.6712,-2.7958,-2.8783,-3.0028,-3.1461,-3.307,-3.4089,-3.5164,-3.6759,-3.7725,-3.8367,-3.856,-3.8046,-3.8014,-3.9022,-3.9597,-4.028,-4.1231,-4.1503,-4.1731,-4.199,-4.205,-4.1808,-4.1238,-4.1001,-4.0832,-4.072,-4.0577,-4.0546,-4.0546,-3.9995,-3.9738,-3.9738,-3.898,-3.8122,-3.7223,-3.7069,-3.6439,-3.5444,-3.479,-3.4438,-3.4304,-3.3549,-3.2861,-3.2253,-3.2085,-3.1687,-3.1123,-3.0446,-3.0147,-2.9916,-2.857,-2.8134,-2.7929,-2.6705,-2.6327,-2.6219,-2.5426,-2.4743,-2.4184,-2.3939,-2.3423,-2.2899,-2.2868,-2.2868,-2.2881,-2.2944,-2.2957,-2.2957,-2.2957,-2.2957,-2.297,-2.297,-2.297,-2.297,-2.297,-2.297,-2.3107,-2.3482,-2.3539,-2.3528,-2.3539,-2.3539,-2.3539,-2.3533,-2.3656,-2.3747,-2.3816,-2.3886,-2.3927,-2.3927,-2.3996,-2.4006,-2.3947,-2.3947,-2.3927,-2.3858,-2.3899,-2.3947,-2.3947,-2.4056,-2.417,-2.4218,-2.4284,-2.4491,-2.0487,-2.1576,-2.282,-2.4544,-2.5774,-2.6745,-2.7351,-2.8889,-3.0306,-3.0761,-3.1754,-3.2853,-3.4011,-3.4894,-3.5791,-3.683,-3.7612,-3.8164,-3.8335,-3.7732,-3.7486,-3.8052,-3.7939,-3.8427,-3.9883,-4.0191,-4.039,-4.0553,-4.0696,-4.0694,-4.0476,-4.0353,-4.0254,-4.0204,-4.0054,-4.0028,-4.0104,-3.9433,-3.9132,-3.9204,-3.7942,-3.7142,-3.6721,-3.6177,-3.5457,-3.4627,-3.3874,-3.3577,-3.3488,-3.2751,-3.2282,-3.1964,-3.1528,-3.0851,-3.0125,-2.9923,-2.9576,-2.9055,-2.8052,-2.7466,-2.7012,-2.6029,-2.5753,-2.5577,-2.4428,-2.3861,-2.3502,-2.3064,-2.2709,-2.2484,-2.2538,-2.2569,-2.2565,-2.2592,-2.2605,-2.2605,-2.2605,-2.2605,-2.2619,-2.2659,-2.2659,-2.2659,-2.2659,-2.2659,-2.2725,-2.2889,-2.3057,-2.3156,-2.3156,-2.3156,-2.318,-2.3265,-2.3395,-2.3481,-2.356,-2.362,-2.3675,-2.3707,-2.3742,-2.3746,-2.3724,-2.3742,-2.3703,-2.3682,-2.3703,-2.3735,-2.3785,-2.3837,-2.3907,-2.3976,-2.4046,-2.4135,-2.1114,-2.2385,-2.3665,-2.5306,-2.7134,-2.8627,-2.9071,-3.0338,-3.1509,-3.1878,-3.2306,-3.2893,-3.3747,-3.4579,-3.5409,-3.639,-3.7153,-3.7738,-3.8062,-3.7319,-3.6904,-3.7285,-3.6604,-3.6753,-3.8454,-3.8877,-3.9163,-3.9461,-3.9599,-3.9687,-3.979,-3.9687,-3.9625,-3.9599,-3.9504,-3.9494,-3.9599,-3.8689,-3.8296,-3.8396,-3.6829,-3.6078,-3.6044,-3.5168,-3.4489,-3.3939,-3.299,-3.2612,-3.2562,-3.1807,-3.1508,-3.1424,-3.0675,-3.0019,-2.9423,-2.9157,-2.8715,-2.8204,-2.7488,-2.6752,-2.6033,-2.5363,-2.5009,-2.4621,-2.3373,-2.2984,-2.2883,-2.2332,-2.2166,-2.218,-2.2234,-2.2262,-2.2262,-2.229,-2.229,-2.229,-2.229,-2.2276,-2.2276,-2.2332,-2.2318,-2.2318,-2.2332,-2.2332,-2.2346,-2.236,-2.2535,-2.2694,-2.2777,-2.279,-2.2825,-2.2952,-2.3082,-2.3168,-2.3229,-2.3307,-2.3389,-2.3435,-2.3457,-2.3461,-2.3439,-2.3439,-2.3427,-2.3405,-2.3427,-2.3461,-2.3529,-2.3562,-2.3617,-2.371,-2.3764,-2.3845,-2.0913,-2.2323,-2.4022,-2.6206,-2.74,-2.8438,-2.9986,-3.0392,-3.0701,-3.1628,-3.1306,-3.1148,-3.2013,-3.283,-3.3889,-3.5395,-3.6362,-3.715,-3.7809,-3.6706,-3.611,-3.6826,-3.5808,-3.5583,-3.7017,-3.759,-3.8165,-3.8974,-3.9023,-3.9023,-3.9023,-3.9023,-3.8969,-3.8832,-3.8832,-3.8832,-3.8832,-3.7465,-3.6828,-3.694,-3.5457,-3.4748,-3.4732,-3.3848,-3.3456,-3.3357,-3.1948,-3.1363,-3.1314,-3.0554,-3.0243,-3.0177,-2.944,-2.9145,-2.8948,-2.7591,-2.7198,-2.7253,-2.6577,-2.5863,-2.513,-2.4445,-2.3806,-2.3103,-2.221,-2.1961,-2.1932,-2.1842,-2.1827,-2.1842,-2.1899,-2.1928,-2.1943,-2.1998,-2.2013,-2.2013,-2.2013,-2.1955,-2.1928,-2.1928,-2.1869,-2.184,-2.1913,-2.1928,-2.1926,-2.2013,-2.201,-2.2141,-2.247,-2.2515,-2.2538,-2.2611,-2.2668,-2.2751,-2.2816,-2.2944,-2.3033,-2.3033,-2.3084,-2.3084,-2.3015,-2.3015,-2.2995,-2.2914,-2.2995,-2.304,-2.3114,-2.3242,-2.3383,-2.3515,-2.3506,-2.3577,-2.1606,-2.3277,-2.4808,-2.6188,-2.7415,-2.8445,-2.9074,-2.9139,-2.9251,-2.9817,-2.9125,-2.8548,-2.9036,-3.0125,-3.1306,-3.23,-3.3903,-3.5482,-3.6724,-3.6174,-3.5792,-3.6114,-3.5353,-3.5187,-3.6133,-3.7042,-3.7927,-3.8662,-3.8821,-3.886,-3.886,-3.886,-3.886,-3.8805,-3.8805,-3.8805,-3.8805,-3.7838,-3.716,-3.6753,-3.5276,-3.4324,-3.3815,-3.3062,-3.2466,-3.1941,-3.0975,-3.0287,-2.9812,-2.9566,-2.9206,-2.8784,-2.8538,-2.8089,-2.7519,-2.7029,-2.6575,-2.6171,-2.6072,-2.5549,-2.4825,-2.41,-2.3407,-2.2729,-2.194,-2.1709,-2.1694,-2.1679,-2.1664,-2.1664,-2.1694,-2.1709,-2.1709,-2.1723,-2.1723,-2.1723,-2.1723,-2.1724,-2.1709,-2.1709,-2.1679,-2.1679,-2.1694,-2.1709,-2.1724,-2.1723,-2.1899,-2.2041,-2.2141,-2.2262,-2.2304,-2.2329,-2.2388,-2.246,-2.2542,-2.2582,-2.2619,-2.2659,-2.2699,-2.2681,-2.2672,-2.2712,-2.2725,-2.2699,-2.2764,-2.2842,-2.2906,-2.2952,-2.3015,-2.3102,-2.3145,-2.3218,-2.2489,-2.4028,-2.5307,-2.6462,-2.7239,-2.7733,-2.7861,-2.7684,-2.7539,-2.763,-2.6749,-2.6031,-2.6241,-2.7573,-2.8934,-2.9958,-3.2113,-3.4168,-3.565,-3.5591,-3.5502,-3.5895,-3.5331,-3.5227,-3.5999,-3.6796,-3.7598,-3.8399,-3.8572,-3.8655,-3.8655,-3.8655,-3.8655,-3.8655,-3.8394,-3.8378,-3.8639,-3.7416,-3.6463,-3.5761,-3.4815,-3.3974,-3.3257,-3.2579,-3.1838,-3.1104,-3.0109,-2.9407,-2.8909,-2.8607,-2.8208,-2.7782,-2.7482,-2.6997,-2.6446,-2.6172,-2.5728,-2.5301,-2.5698,-2.519,-2.4307,-2.3849,-2.3063,-2.2211,-2.1736,-2.1604,-2.1604,-2.1604,-2.1604,-2.1604,-2.1604,-2.1604,-2.1604,-2.1604,-2.1604,-2.1589,-2.1542,-2.1511,-2.1497,-2.1466,-2.1435,-2.1435,-2.1481,-2.1542,-2.1604,-2.1604,-2.1738,-2.1855,-2.1855,-2.193,-2.1991,-2.1991,-2.2063,-2.2152,-2.2178,-2.2234,-2.229,-2.2315,-2.2315,-2.2315,-2.2315,-2.2357,-2.2385,-2.2385,-2.244,-2.2494,-2.2592,-2.2592,-2.2632,-2.2725,-2.2764,-2.2855,-2.3495,-2.4533,-2.5489,-2.698,-2.6807,-2.6332,-2.6433,-2.6071,-2.5558,-2.5096,-2.4171,-2.3494,-2.364,-2.5056,-2.6691,-2.8155,-3.0787,-3.3146,-3.4569,-3.4834,-3.5187,-3.6052,-3.5663,-3.5647,-3.6467,-3.6749,-3.7238,-3.8087,-3.8278,-3.8363,-3.8363,-3.8331,-3.8315,-3.8315,-3.7619,-3.757,-3.825,-3.6222,-3.4829,-3.4124,-3.4059,-3.3655,-3.2975,-3.2223,-3.1496,-3.0665,-2.9329,-2.864,-2.8388,-2.7645,-2.7248,-2.7079,-2.6235,-2.5879,-2.5733,-2.5006,-2.4675,-2.4655,-2.5365,-2.4718,-2.3566,-2.3635,-2.2687,-2.1559,-2.1559,-2.1559,-2.1559,-2.1559,-2.1559,-2.1559,-2.1559,-2.1559,-2.1559,-2.1559,-2.1559,-2.1511,-2.1386,-2.1309,-2.123,-2.1183,-2.1119,-2.1119,-2.1262,-2.1434,-2.1559,-2.1559,-2.1559,-2.1574,-2.1604,-2.1589,-2.1589,-2.1589,-2.1693,-2.1766,-2.1766,-2.1897,-2.1984,-2.1984,-2.1969,-2.1969,-2.1969,-2.1969,-2.1969,-2.1984,-2.1984,-2.2058,-2.2178,-2.2178,-2.2234,-2.2363,-2.2363,-2.2457,-2.4273,-2.5286,-2.595,-2.6454,-2.5744,-2.4826,-2.4495,-2.3621,-2.2752,-2.2432,-2.1209,-2.025,-2.0444,-2.1443,-2.2712,-2.4149,-2.7195,-3.0238,-3.2625,-3.3884,-3.4793,-3.5503,-3.559,-3.5677,-3.5907,-3.629,-3.6822,-3.7546,-3.786,-3.802,-3.802,-3.7552,-3.7291,-3.7291,-3.6568,-3.6279,-3.6456,-3.5412,-3.4749,-3.4452,-3.3396,-3.2483,-3.1658,-3.0983,-2.998,-2.8803,-2.8414,-2.764,-2.6572,-2.6356,-2.5894,-2.5263,-2.4921,-2.4772,-2.4653,-2.4271,-2.4063,-2.4036,-2.4277,-2.3737,-2.2921,-2.2957,-2.2071,-2.1006,-2.1006,-2.1006,-2.1006,-2.1006,-2.1006,-2.1006,-2.1006,-2.1006,-2.1006,-2.1006,-2.0974,-2.0909,-2.0892,-2.0794,-2.0712,-2.0678,-2.076,-2.0826,-2.0909,-2.0974,-2.1006,-2.1006,-2.1006,-2.1151,-2.1559,-2.1511,-2.1449,-2.1449,-2.1479,-2.1494,-2.1494,-2.1617,-2.1709,-2.1709,-2.1601,-2.1539,-2.1539,-2.1539,-2.1601,-2.1709,-2.1753,-2.1827,-2.1901,-2.1901,-2.1915,-2.1945,-2.1945,-2.2017,-2.5329,-2.5651,-2.5609,-2.5785,-2.4704,-2.3325,-2.2303,-2.1397,-2.053,-1.962,-1.8607,-1.797,-1.8133,-1.9222,-2.0638,-2.2306,-2.5506,-2.869,-3.1347,-3.2958,-3.4258,-3.5276,-3.5568,-3.5769,-3.5891,-3.6165,-3.6501,-3.6982,-3.7567,-3.7761,-3.7486,-3.7045,-3.6649,-3.6358,-3.5502,-3.4852,-3.4481,-3.4433,-3.4074,-3.3361,-3.2504,-3.1546,-3.0472,-3.0056,-2.9108,-2.7771,0.0,-2.6658,-2.5559,-2.5159,-2.4662,-2.4141,-2.3979,-2.3867,-2.376,-2.3616,-2.3465,-2.3312,-2.3363,-2.2892,-2.2278,-2.2427,-2.1802,-2.0917,-2.0639,-2.0545,-2.0545,-2.0545,-2.0545,-2.0545,-2.0545,-2.0545,-2.0545,-2.0545,-2.0512,-2.0477,-2.0443,-2.0375,-2.0323,-2.0287,-2.0373,-2.046,-2.0529,-2.0579,-2.0629,-2.0662,-2.0629,-2.0729,-2.1023,-2.1087,-2.1071,-2.1023,-2.1087,-2.1135,-2.1135,-2.1261,-2.134,-2.134,-2.1246,-2.1166,-2.1166,-2.1151,-2.1182,-2.1293,-2.1324,-2.1402,-2.1526,-2.1526,-2.1572,-2.1616,-2.1616,-2.1691,-2.6213,-2.5801,-2.4984,-2.5086,-2.3785,-2.2023,-2.0221,-1.9561,-1.8806,-1.7068,-1.6505,-1.6365,-1.6491,-1.7852,-1.9536,-2.1322,-2.4479,-2.7571,-3.0044,-3.178,-3.3382,-3.4907,-3.5322,-3.5608,-3.5943,-3.6006,-3.6071,-3.6198,-3.6963,-3.7213,-3.674,-3.6448,-3.5934,-3.5162,-3.4286,-3.3455,-3.2695,-3.3224,-3.2882,-3.1643,-3.1294,-3.0521,-2.936,-2.9137,-2.8296,-2.7025,-2.6375,-2.5619,-2.4815,-2.4001,-2.3588,-2.3443,-2.326,-2.3105,-2.2994,-2.2971,-2.2799,-2.2618,-2.2618,-2.2237,-2.1773,-2.2034,-2.169,-2.1051,-2.0459,-2.0233,-2.0172,-2.0172,-2.0129,-2.0052,-2.0052,-2.0052,-2.0052,-2.0052,-2.0052,-2.0017,-1.9945,-1.9942,-1.9907,-1.9851,-1.9889,-1.9962,-2.0035,-2.0154,-2.0256,-2.0308,-2.0256,-2.0206,-2.0206,-2.0427,-2.0544,-2.0427,-2.0579,-2.0679,-2.0679,-2.0796,-2.0878,-2.0878,-2.0812,-2.0779,-2.0779,-2.0696,-2.0696,-2.0779,-2.0779,-2.0877,-2.1087,-2.1087,-2.1167,-2.1293,-2.1308,-2.1402,-2.5928,-2.5717,-2.5132,-2.4717,-2.3312,-2.1454,-1.9339,-1.8533,-1.7786,-1.6093,-1.5519,-1.5383,-1.5521,-1.6731,-1.7908,-1.846,-2.1686,-2.4865,-2.6897,-2.9232,-3.1353,-3.3143,-3.3955,-3.4457,-3.4691,-3.4942,-3.4981,-3.4622,-3.4906,-3.5278,-3.5716,-3.4676,-3.3661,-3.281,-3.2461,-3.2211,-3.2061,-3.1579,-3.1162,-3.0782,-2.9394,-2.8524,-2.8184,-2.7479,-2.6472,-2.5228,-2.5125,0.0,-2.3125,-2.2955,-2.2807,-2.2672,-2.2586,-2.2555,-2.2486,-2.2263,-2.217,-2.2123,-2.2123,-2.2053,-2.1926,-2.1809,-2.142,-2.0921,-2.0805,-2.0416,-2.0045,-2.0045,-1.9683,-1.9291,-1.9291,-1.9291,-1.9291,-1.9291,-1.9207,-1.9118,-1.9118,-1.9058,-1.9035,-1.9076,-1.9099,-1.9151,-1.9273,-1.931,-1.9328,-1.9328,-1.9328,-1.9277,-1.9173,-1.9669,-2.0037,-2.0004,-2.0039,-2.0072,-2.0072,-2.0227,-2.0345,-2.0345,-2.0176,-2.0074,-2.0074,-1.9962,-1.9945,-2.0074,-2.0074,-2.0227,-2.0529,-2.0529,-2.0579,-2.0663,-2.0777,-2.0843,-2.5602,-2.5509,-2.5118,-2.4412,-2.3221,-2.1468,-1.8678,-1.7727,-1.6876,-1.4912,-1.4463,-1.4452,-1.4607,-1.5719,-1.6894,-1.7704,-2.0444,-2.3328,-2.5854,-2.8226,-3.0341,-3.2165,-3.3166,-3.3742,-3.3962,-3.4119,-3.4013,-3.3558,-3.329,-3.338,-3.3909,-3.2836,-3.1925,-3.1335,-3.0849,-3.0584,-3.0498,-2.9836,-2.9294,-2.8873,-2.7982,-2.7341,-2.6957,-2.648,-2.5597,-2.4373,-2.4373,-2.3635,-2.2434,-2.2365,-2.2296,-2.2226,-2.2123,-2.2091,-2.2067,-2.1949,-2.1841,-2.1769,-2.1712,-2.164,-2.1506,-2.1052,-2.098,-2.0933,-2.03,-1.9923,-1.9609,-1.9301,-1.9002,-1.8793,-1.8793,-1.8555,-1.8317,-1.8317,-1.8265,-1.8313,-1.8617,-1.8664,-1.8644,-1.8688,-1.8688,-1.8726,-1.8822,-1.8841,-1.886,-1.8917,-1.8879,-1.8822,-1.8755,-1.893,-1.9122,-1.9303,-1.9361,-1.938,-1.938,-1.9522,-1.9627,-1.9681,-1.9555,-1.9485,-1.9525,-1.9442,-1.9424,-1.9525,-1.954,-1.9681,-1.9927,-1.9927,-2.0015,-2.0191,-2.0243,-2.0344,-2.5169,-2.5289,-2.5029,-2.411,-2.3138,-2.1514,-1.8176,-1.7133,-1.6235,-1.4006,-1.3644,-1.3775,-1.3931,-1.4989,-1.615,-1.7097,-1.9279,-2.1828,-2.4571,-2.6832,-2.8972,-3.1028,-3.2152,-3.2884,-3.3199,-3.3122,-3.284,-3.241,-3.1627,-3.1424,-3.1975,-3.1058,-3.0425,-3.0171,-2.9433,-2.8999,-2.8896,-2.8254,-2.7669,-2.7087,-2.6792,-2.6287,-2.5615,-2.5506,-2.4743,-2.3562,-2.3562,-2.295,-2.1926,-2.1817,-2.1793,-2.1769,-2.1688,-2.164,-2.164,-2.164,-2.1568,-2.1444,-2.1226,-2.1065,-2.0874,-2.019,-2.0433,-2.0778,-1.971,-1.928,-1.9093,-1.8621,-1.8385,-1.8288,-1.8288,-1.7932,-1.7576,-1.7576,-1.7478,-1.7562,-1.8149,-1.8288,-1.8288,-1.8288,-1.8288,-1.8293,-1.8358,-1.8364,-1.8403,-1.85,-1.8422,-1.8364,-1.8364,-1.8226,-1.8226,-1.8481,-1.8679,-1.876,-1.876,-1.8898,-1.8988,-1.9053,-1.8974,-1.894,-1.9001,-1.8936,-1.8936,-1.9001,-1.902,-1.9109,-1.9314,-1.9314,-1.9427,-1.9669,-1.9687,-1.9776,-2.4518,-2.5044,-2.4841,-2.3722,-2.275,-2.1166,-1.7903,-1.6914,-1.6084,-1.3866,-1.3476,-1.3594,-1.3775,-1.4805,-1.5541,-1.5212,-1.721,-1.9427,-2.1278,-2.3554,-2.6086,-2.894,-3.0266,-3.1236,-3.1969,-3.1546,-3.1083,-3.0658,-2.9553,-2.9319,-3.0276,-2.954,-2.9092,-2.9062,-2.8334,-2.7921,-2.7935,-2.7143,-2.6664,-2.648,-2.5601,-2.4802,-2.4095,-2.3957,-2.3245,-2.2081,-2.2081,-2.172,0.0,-2.1106,-2.1082,-2.1082,-2.1082,-2.1057,-2.1057,-2.1057,-2.1057,-2.0991,-2.0481,-2.0294,-2.0177,-1.9499,-1.9741,-2.0164,-1.9512,-1.8945,-1.8489,-1.8422,-1.8013,-1.7578,-1.7578,-1.7558,-1.7518,-1.7518,-1.713,-1.6915,-1.7477,-1.7578,-1.7578,-1.7578,-1.7578,-1.7598,-1.7598,-1.7598,-1.7618,-1.7618,-1.7618,-1.7598,-1.7598,-1.7578,-1.7598,-1.7618,-1.8068,-1.8364,-1.8364,-1.847,-1.8556,-1.8562,-1.8436,-1.8383,-1.8383,-1.8313,-1.8313,-1.8383,-1.8383,-1.8481,-1.8674,-1.8674,-1.8765,-1.8903,-1.8949,-1.9076,-2.2997,-2.3787,-2.4065,-2.3663,-2.2596,-2.0897,-1.8056,-1.6815,-1.572,-1.3684,-1.3301,-1.3374,-1.3577,-1.4305,-1.4839,-1.4676,-1.6041,-1.7881,-2.0006,-2.2128,-2.4558,-2.7463,-2.8898,-2.9947,-3.0641,-3.048,-3.0127,-2.9605,-2.8462,-2.7935,-2.8318,-2.8174,-2.7886,-2.7531,-2.6761,-2.6358,-2.6358,-2.5361,-2.4829,-2.4759,-2.4012,-2.3527,-2.3245,-2.3191,-2.2631,-2.1783,-2.1783,-2.1388,0.0,-2.0747,-2.0747,-2.0747,-2.0747,-2.0698,-2.0608,-2.0268,-2.01,-1.996,-1.9339,-1.9121,-1.9006,-1.8322,-1.8296,-1.853,-1.8556,-1.8407,-1.8143,-1.7779,-1.7439,-1.7193,-1.7193,-1.6904,-1.6608,-1.6643,-1.6493,-1.6513,-1.7171,-1.7269,-1.7193,-1.7193,-1.7165,-1.7136,-1.7136,-1.7136,-1.7136,-1.7136,-1.7136,-1.7136,-1.7136,-1.7136,-1.7144,-1.7193,-1.7564,-1.7808,-1.7808,-1.7861,-1.7935,-1.8023,-1.7969,-1.7989,-1.8055,-1.8075,-1.8082,-1.8108,-1.8214,-1.8274,-1.8352,-1.8352,-1.8411,-1.85,-1.8539,-1.8611,-2.134,-2.2383,-2.2899,-2.2911,-2.1775,-2.0027,-1.7674,-1.6256,-1.5016,-1.339,-1.3077,-1.3134,-1.334,-1.3722,-1.4037,-1.4161,-1.51,-1.6576,-1.8653,-2.07,-2.2942,-2.5472,-2.7215,-2.8416,-2.8998,-2.9222,-2.9042,-2.8462,-2.7485,-2.6839,-2.6667,-2.6635,-2.6481,-2.6206,-2.5409,-2.4935,-2.4776,-2.3968,-2.3465,-2.3265,-2.2829,-2.2498,-2.23,-2.2247,-2.1865,-2.1185,-2.116,-2.0849,0.0,-2.0359,-2.0334,-2.0295,-2.0166,-1.9989,-1.9762,-1.9239,-1.8961,-1.8752,-1.8114,-1.7903,-1.7792,-1.7082,-1.6863,-1.6931,-1.7242,-1.7439,-1.7458,-1.7029,-1.6808,-1.6697,-1.6655,-1.6157,-1.5731,-1.6005,-1.5924,-1.6003,-1.6735,-1.6808,-1.6697,-1.6697,-1.6637,-1.6565,-1.6565,-1.6565,-1.6565,-1.6565,-1.6565,-1.6586,-1.6629,-1.6629,-1.6671,-1.6752,-1.6976,-1.7206,-1.7393,-1.7413,-1.7447,-1.7556,-1.7556,-1.7584,-1.7686,-1.7754,-1.776,-1.776,-1.7855,-1.7909,-1.7909,-1.7909,-1.7935,-1.7968,-1.8022,-1.8135,-1.9693,-2.0896,-2.145,-2.1124,-1.9968,-1.8416,-1.646,-1.5067,-1.3934,-1.2908,-1.275,-1.2868,-1.3072,-1.3107,-1.3176,-1.3387,-1.4314,-1.5464,-1.6747,-1.8885,-2.0977,-2.2729,-2.4888,-2.6482,-2.7074,-2.7606,-2.7661,-2.7075,-2.6532,-2.5954,-2.5345,-2.4813,-2.4749,-2.5216,-2.4505,-2.3854,-2.3345,-2.3319,-2.2934,-2.2224,-2.2211,-2.1819,-2.1105,-2.0972,-2.0601,-2.0003,-1.9875,-1.9811,0.0,-1.9798,-1.9734,-1.9554,-1.9095,-1.8747,-1.8436,-1.7934,-1.7641,-1.7436,-1.6915,-1.6711,-1.6603,-1.5858,-1.5613,-1.5625,-1.5547,-1.5901,-1.6303,-1.6231,-1.611,-1.5988,-1.5854,-1.536,-1.5109,-1.5833,-1.5529,-1.532,-1.6043,-1.611,-1.601,-1.601,-1.5888,-1.581,-1.581,-1.581,-1.581,-1.581,-1.581,-1.5866,-1.5988,-1.601,-1.6066,-1.6188,-1.6222,-1.647,-1.7157,-1.7199,-1.7199,-1.7199,-1.7199,-1.7199,-1.722,-1.722,-1.722,-1.722,-1.722,-1.722,-1.722,-1.722,-1.722,-1.722,-1.735,-1.759,-1.6776,-1.7672,-1.8067,-1.8291,-1.7495,-1.6273,-1.4832,-1.3911,-1.3165,-1.2431,-1.2312,-1.2383,-1.2573,-1.2627,-1.2788,-1.3319,-1.3991,-1.4934,-1.6303,-1.8103,-1.9825,-2.1301,-2.342,-2.5083,-2.5854,-2.5766,-2.5661,-2.5681,-2.4878,-2.4279,-2.4091,-2.307,-2.3017,-2.4051,-2.3434,-2.2962,-2.2697,-2.1835,-2.1216,-2.0916,-2.0473,-2.0157,-1.993,-1.9812,-1.9411,-1.8854,-1.9054,-1.8683,-1.7967,-1.8315,-1.8229,-1.7881,-1.7638,-1.7418,-1.7173,-1.6463,-1.6109,-1.5896,-1.5288,-1.5061,-1.5015,-1.4788,-1.472,-1.4697,-1.4628,-1.5153,-1.5702,-1.5513,-1.5345,-1.522,-1.5085,-1.4902,-1.4856,-1.5163,-1.5093,-1.5046,-1.5389,-1.5345,-1.5243,-1.5243,-1.5141,-1.5039,-1.5039,-1.5039,-1.5039,-1.5039,-1.5039,-1.5062,-1.5119,-1.5119,-1.5164,-1.53,-1.53,-1.5635,-1.6448,-1.6513,-1.6513,-1.6513,-1.6513,-1.6513,-1.6513,-1.6552,-1.6582,-1.6582,-1.668,-1.6735,-1.6735,-1.6735,-1.6765,-1.6871,-1.6892,-1.7039,-1.4456,-1.5237,-1.5505,-1.5914,-1.526,-1.4315,-1.342,-1.272,-1.214,-1.1834,-1.192,-1.2073,-1.2082,-1.2245,-1.2473,-1.2782,-1.3619,-1.4509,-1.5244,-1.7107,-1.9009,-2.065,-2.2056,-2.3322,-2.4511,-2.4328,-2.4201,-2.4429,-2.3608,-2.3026,-2.2819,-2.1873,-2.1612,-2.2221,-2.1927,-2.1625,-2.1358,-2.0511,-1.9934,-1.9658,-1.9289,-1.897,-1.8712,-1.8584,-1.8156,-1.7541,-1.7704,-1.7354,0.0,-1.697,-1.6887,-1.6564,-1.6284,-1.6067,-1.5813,-1.5119,-1.4775,-1.4599,-1.4178,-1.4048,-1.4048,-1.4048,-1.4001,-1.3954,-1.3836,-1.4351,-1.488,-1.4663,-1.4547,-1.4444,-1.4317,-1.4271,-1.4317,-1.4444,-1.4467,-1.4524,-1.4663,-1.457,-1.4467,-1.4467,-1.4374,-1.4271,-1.4271,-1.4271,-1.4271,-1.4271,-1.4271,-1.4294,-1.4351,-1.4374,-1.4421,-1.4559,-1.4559,-1.4789,-1.5311,-1.5625,-1.578,-1.578,-1.578,-1.578,-1.578,-1.5834,-1.5844,-1.5844,-1.5923,-1.601,-1.6054,-1.6098,-1.6185,-1.6281,-1.6281,-1.642,0.0,-1.3416,-1.3636,-1.3864,-1.329,-1.2564,-1.2243,-1.1529,0.0,-1.1142,-1.1612,-1.1914,-1.1636,-1.2006,-1.2263,-1.2017,-1.3293,-1.4194,-1.3859,-1.6021,-1.8402,-2.0539,-2.0796,-2.1413,-2.2958,-2.3063,-2.3052,-2.3052,-2.2538,-2.201,-2.1491,-2.0937,-2.0386,-1.9826,-2.0011,-1.993,-1.9507,-1.9344,-1.8975,-1.8479,-1.8432,-1.811,-1.7502,-1.7327,-1.6874,0.0,-1.6076,-1.5927,-1.5723,-1.5756,-1.5691,-1.5509,-1.5055,-1.4735,-1.4447,-1.3954,-1.3668,-1.3573,-1.3549,-1.3525,-1.3525,-1.3491,-1.3396,-1.3276,-1.3146,-1.3494,-1.3907,-1.3787,-1.375,-1.3702,-1.3597,-1.3549,-1.3573,-1.3692,-1.3716,-1.3739,-1.386,-1.38,-1.3726,-1.3726,-1.3621,-1.3573,-1.3549,-1.3549,-1.3573,-1.3549,-1.3549,-1.3597,-1.3726,-1.375,-1.3787,-1.3907,-1.3931,-1.3909,-1.3878,-1.4561,-1.4983,-1.4983,-1.4948,-1.4925,-1.4937,-1.4937,-1.4959,-1.4959,-1.4959,-1.5027,-1.5185,-1.5309,-1.5421,-1.5524,-1.5524,-1.57,-0.9811,0.0,-1.1293,-1.1414,-1.1355,-1.1197,0.0,-1.0684,-1.0581,-1.0772,-1.1449,-1.1892,-1.1579,-1.2152,-1.2707,-1.2807,-1.3749,-1.4368,-1.4146,-1.5618,-1.7424,-1.9435,-1.9667,-2.0088,-2.1141,-2.0853,-2.0599,-2.0545,-2.004,-1.9547,-1.9127,-1.8594,-1.8228,-1.8079,-1.7701,-1.7864,-1.8606,-1.8019,-1.7551,-1.7217,-1.6852,-1.6601,-1.6454,-1.6001,-1.5502,-1.5021,-1.5233,-1.4877,-1.417,-1.4538,-1.445,-1.4066,-1.3855,-1.3741,-1.3645,-1.3371,-1.3244,-1.3196,-1.2992,-1.2837,-1.2715,-1.252,-1.2363,-1.2264,-1.2215,-1.2686,-1.3256,-1.3314,-1.3238,-1.3113,-1.3128,-1.3031,-1.292,-1.2944,-1.2886,-1.2813,-1.2852,-1.291,-1.2968,-1.2968,-1.3055,-1.3128,-1.3065,-1.3104,-1.3128,-1.3065,-1.3065,-1.3065,-1.3113,-1.3113,-1.3113,-1.3162,-1.3152,-1.3002,-1.2642,-1.3289,-1.3727,-1.3727,-1.3434,-1.3302,-1.342,-1.342,-1.3441,-1.3494,-1.3494,-1.3683,-1.4072,-1.4105,-1.4373,-1.4846,-1.4846,-1.4971,-0.8577,-0.9227,-0.9862,-1.0058,-1.016,-1.0196,-1.0136,-1.0272,-1.0446,-1.0626,-1.1324,-1.1805,-1.1469,-1.1967,-1.2423,-1.2369,-1.3263,-1.4177,-1.4792,-1.5388,-1.6297,-1.7773,-1.7984,-1.8316,-1.9233,-1.8871,-1.8702,-1.9081,-1.867,-1.8206,-1.7772,-1.7467,-1.7187,-1.6879,-1.6355,-1.656,-1.7513,-1.7038,-1.6634,-1.6273,-1.6037,-1.5663,-1.5227,-1.4919,-1.4463,-1.3916,-1.4088,-1.379,-1.3186,-1.3377,-1.3288,-1.2997,-1.2866,-1.2793,-1.2793,-1.2666,-1.2627,-1.2603,-1.2406,-1.2104,-1.174,-1.139,-1.1137,-1.0996,-1.1082,-1.1285,-1.1634,-1.2387,-1.2559,-1.2529,-1.2495,-1.2421,-1.2323,-1.2249,-1.2175,-1.2126,-1.2126,-1.2175,-1.2249,-1.2323,-1.2421,-1.2495,-1.2529,-1.252,-1.2471,-1.2446,-1.2382,-1.2357,-1.2357,-1.2357,-1.2357,-1.2357,-1.217,-1.2011,-1.1813,-1.1807,-1.2054,-1.2574,-1.2475,-1.2404,-1.2478,-1.2499,-1.2489,-1.2552,-1.2637,-1.2808,-1.3065,-1.3152,-1.3347,-1.3684,-1.3902,-1.4091,-0.8179,-0.8539,-0.8947,-0.9377,-0.9537,-0.9618,-0.9819,-1.0146,-1.0428,-1.0543,-1.1219,-1.1677,-1.1324,-1.169,-1.1968,-1.1675,-1.2577,-1.3877,-1.5468,-1.5294,-1.5345,-1.6253,-1.6366,-1.6673,-1.7482,-1.7205,-1.7236,-1.7933,-1.7605,-1.7184,-1.6692,-1.6639,-1.6337,-1.5749,-1.5376,-1.5504,-1.6107,-1.6023,-1.5772,-1.5382,-1.5311,-1.4828,-1.3963,-1.3902,-1.3546,-1.2954,-1.2954,0.0,-1.2483,-1.2352,-1.2229,-1.2073,-1.1951,-1.1938,-1.1968,-1.1968,-1.1968,-1.1934,-1.1722,-1.125,-1.0707,-1.0263,-0.9978,-0.9785,-0.9954,-0.9809,-0.9867,-1.1157,-1.1679,-1.1821,-1.176,-1.1694,-1.1644,-1.1494,-1.1469,-1.1444,-1.1444,-1.1469,-1.151,-1.1644,-1.1694,-1.1769,-1.1902,-1.1852,-1.1753,-1.1694,-1.1594,-1.1519,-1.1494,-1.1494,-1.1493,-1.144,-1.1149,-1.0942,-1.0967,-1.0365,-1.0395,-1.1305,-1.157,-1.1677,-1.1719,-1.1719,-1.174,-1.174,-1.191,-1.2025,-1.2097,-1.2278,-1.2404,-1.2478,-1.2911,-1.3199,-0.7917,-0.8092,-0.8363,-0.9204,-0.9681,-0.9963,-1.0104,-1.0277,-1.0405,-1.0428,-1.1119,-1.1588,-1.1137,-1.1704,-1.2247,-1.2251,-1.2878,-1.3902,-1.5386,-1.5273,-1.5321,-1.6117,-1.6244,-1.6302,-1.6427,-1.6379,-1.6254,-1.6063,-1.5668,-1.5244,-1.483,-1.4472,-1.4213,-1.3982,-1.3916,-1.3889,-1.3891,-1.4319,-1.4307,-1.3932,-1.3516,-1.32,-1.2913,-1.2576,-1.2354,-1.2249,0.0,-1.1972,-1.1521,-1.1497,-1.1354,-1.1107,-1.1083,-1.1197,-1.1334,-1.1334,-1.1334,-1.1258,-1.0654,-1.0153,-0.9686,-0.9445,-0.9267,-0.9136,-0.9167,-0.9144,-0.9206,-0.9664,-1.0197,-1.0719,-1.0923,-1.0804,-1.06,-1.0456,-1.0346,-1.0269,-1.0269,-1.0346,-1.0482,-1.06,-1.0804,-1.0981,-1.1074,-1.115,-1.1124,-1.0829,-1.0778,-1.0719,-1.0601,-1.0601,-1.0513,-1.0287,-1.0205,-0.9975,-0.947,-0.9473,-0.9473,-0.943,-0.9879,-1.02,-1.0379,-1.0498,-1.0558,-1.0558,-1.0597,-1.0795,-1.1202,-1.1295,-1.1538,-1.1932,-1.2121,-1.2443,-0.7506,-0.7809,-0.8147,-0.8798,-0.9134,-0.9344,-0.9559,-0.9829,-1.0047,-1.0156,-1.0687,-1.1065,-1.0971,-1.1379,-1.1952,-1.252,-1.297,-1.3588,-1.4553,-1.4628,-1.4632,-1.477,-1.4819,-1.4932,-1.5247,-1.4883,-1.4764,-1.5046,-1.4484,-1.4045,-1.3885,-1.3624,-1.344,-1.3386,-1.3004,-1.2725,-1.2592,-1.2439,-1.257,-1.2991,-1.2702,-1.2424,-1.2155,-1.1883,-1.1778,-1.176,0.0,-1.1228,-1.0891,-1.0565,-1.0316,-1.0138,-1.0012,-1.0139,-1.0351,-1.0351,-1.0302,-1.013,-0.9455,-0.902,-0.8693,-0.8335,-0.8092,-0.7951,-0.8054,-0.7991,-0.7978,-0.8507,-0.929,-1.0002,-1.0216,-1.0182,-1.0008,-0.9723,-0.9712,-0.9743,-0.9589,-0.9745,-0.9917,-1.0053,-1.0182,-1.0277,-1.0387,-1.0387,-1.0336,-1.0182,-0.9977,-0.9811,-0.9753,-0.9617,-0.9473,-0.9312,-0.9128,-0.8943,-0.873,-0.8643,-0.8761,-0.9136,-0.9388,-0.9567,-0.9657,-0.9725,-0.9765,-0.9765,-0.9834,-0.9997,-1.0236,-1.0357,-1.0563,-1.0899,-1.1197,-1.1671,-0.7039,-0.7481,-0.7959,-0.8364,-0.8655,-0.8906,-0.9137,-0.9483,-0.982,-0.9893,-1.021,-1.0516,-1.0573,-1.091,-1.1458,-1.2315,-1.2739,-1.3126,-1.3588,-1.3782,-1.3767,-1.345,-1.3336,-1.3484,-1.3992,-1.3417,-1.3301,-1.3954,-1.3376,-1.2969,-1.2969,-1.2771,-1.2645,-1.2556,-1.2,-1.1635,-1.1469,-1.0858,-1.1038,-1.2,-1.1861,-1.1636,-1.1309,-1.1209,-1.1116,-1.1039,-1.0677,-1.0354,-1.0061,-0.9596,-0.9301,-0.9127,-0.8982,-0.9065,-0.9289,-0.9289,-0.9171,-0.8917,-0.8386,-0.8041,-0.7751,-0.737,-0.707,-0.6919,-0.706,-0.6954,-0.6912,-0.7547,-0.832,-0.9002,-0.9332,-0.9471,-0.9438,-0.9105,-0.9209,-0.9349,-0.9163,-0.9267,-0.9458,-0.9588,-0.9614,-0.9666,-0.9788,-0.9677,-0.9548,-0.953,-0.9184,-0.8931,-0.8914,-0.8721,-0.8547,-0.8437,-0.8184,-0.8077,-0.815,-0.7935,-0.8131,-0.8878,-0.9039,-0.9119,-0.9119,-0.9139,-0.9159,-0.9159,-0.9259,-0.9339,-0.941,-0.9549,-0.9716,-0.9892,-1.0272,-1.0866,-0.6586,-0.7034,-0.7551,-0.7935,-0.8697,-0.9349,-0.9367,-0.9744,-0.9997,-0.9695,-0.9886,-1.0053,-0.9751,-1.0317,-1.0963,-1.1349,-1.2053,-1.2634,-1.2856,-1.2887,-1.2879,-1.2854,-1.2581,-1.2472,-1.2643,-1.2374,-1.2209,-1.2268,-1.1881,-1.1627,-1.1627,-1.1283,-1.092,-1.0603,-1.0553,-1.0409,-1.0128,-0.995,-1.0087,-1.0538,-1.0419,-1.0267,-1.0115,-1.0115,-0.9979,-0.9726,-0.9703,-0.9259,-0.8563,-0.8511,-0.8335,-0.8098,-0.8098,-0.8202,-0.8393,-0.8393,-0.8147,-0.779,-0.7616,-0.7316,-0.6968,-0.68,-0.666,-0.6547,-0.6544,-0.6502,-0.6492,-0.6802,-0.6939,-0.7197,-0.7997,-0.8459,-0.8641,-0.8502,-0.8674,-0.885,-0.883,-0.8844,-0.891,-0.9035,-0.9061,-0.9113,-0.9237,-0.9057,-0.8841,-0.8698,-0.8387,-0.8146,-0.801,-0.7966,-0.7863,-0.7619,-0.7565,-0.7531,-0.7476,-0.7503,-0.7614,-0.7816,-0.8275,-0.8561,-0.8561,-0.8675,-0.8736,-0.8736,-0.8756,-0.8785,-0.8854,-0.8996,-0.9136,-0.9277,-0.9375,-0.998,-0.6135,-0.6614,-0.7115,-0.7478,-0.8113,-0.8811,-0.9453,-0.9736,-0.9951,-1.0274,-1.0142,-0.9918,-0.969,-1.0037,-1.0574,-1.1248,-1.1872,-1.2292,-1.2355,-1.2482,-1.2414,-1.1964,-1.1831,-1.1727,-1.1689,-1.1376,-1.1177,-1.1177,-1.0783,-1.0577,-1.0577,-1.0329,-1.0156,-1.0028,-0.9855,-0.9725,-0.964,-0.9413,-0.9342,-0.9401,-0.9692,-0.9788,-0.9736,-0.9666,-0.9489,-0.9205,-0.8926,-0.852,-0.8055,-0.7774,-0.7538,-0.738,-0.7424,-0.7474,-0.7557,-0.7557,-0.7439,-0.7225,-0.6978,-0.6742,-0.656,-0.6425,-0.6297,-0.6163,-0.6093,-0.5964,-0.5885,-0.6067,-0.6123,-0.6348,-0.7303,-0.7769,-0.791,-0.7659,-0.7929,-0.8185,-0.8042,-0.8136,-0.8256,-0.8302,-0.8309,-0.8305,-0.821,-0.8177,-0.8097,-0.789,-0.7648,-0.7465,-0.7396,-0.7247,-0.7114,-0.7004,-0.6991,-0.6989,-0.697,-0.6999,-0.702,-0.7069,-0.767,-0.7995,-0.7995,-0.8057,-0.8118,-0.8201,-0.8201,-0.8283,-0.8414,-0.8475,-0.8631,-0.8895,-0.9123,-0.9697,-0.5697,-0.6208,-0.6698,-0.6991,-0.7483,-0.816,-0.9159,-0.9518,-0.9788,-1.0214,-0.999,-0.9701,-0.957,-0.9784,-1.0215,-1.0958,-1.1339,-1.1563,-1.1553,-1.1672,-1.1555,-1.0989,-1.0836,-1.0747,-1.0724,-1.034,-1.0085,-1.0085,-0.9798,-0.9614,-0.9614,-0.9536,-0.9458,-0.9425,-0.9204,-0.9073,-0.9028,-0.8791,-0.8606,-0.8527,-0.8883,-0.9119,-0.9223,-0.9028,-0.8795,-0.8491,-0.8068,-0.7722,-0.7431,-0.7085,-0.6865,-0.6751,-0.6796,-0.6811,-0.6811,-0.6766,-0.6722,-0.6647,-0.6357,-0.6184,-0.6105,-0.5964,-0.5814,-0.569,-0.5572,-0.5426,-0.5296,-0.5345,-0.5345,-0.5503,-0.62,-0.6805,-0.7151,-0.6919,-0.7249,-0.7547,-0.7314,-0.7483,-0.7664,-0.7711,-0.7711,-0.7662,-0.751,-0.7478,-0.7388,-0.7133,-0.6893,-0.6744,-0.6744,-0.6585,-0.6474,-0.6474,-0.6474,-0.6474,-0.6474,-0.6474,-0.6474,-0.6474,-0.6914,-0.7251,-0.744,-0.7503,-0.7587,-0.767,-0.7725,-0.7836,-0.8044,-0.8044,-0.8201,-0.848,-0.8821,-0.933,-0.5275,-0.5801,-0.6324,-0.6473,-0.6902,-0.7538,-0.8487,-0.9162,-0.9527,-0.9261,-0.9314,-0.9369,-0.9215,-0.9457,-0.9838,-1.0315,-1.0393,-1.0393,-1.0393,-1.0393,-1.0246,-0.9938,-0.9581,-0.948,-0.9673,-0.926,-0.8982,-0.8982,-0.8857,-0.8778,-0.8778,-0.8778,-0.8718,-0.86,-0.8474,-0.8321,-0.8195,-0.799,-0.7898,-0.7898,-0.7898,-0.8064,-0.8382,-0.8108,-0.7802,-0.7468,-0.7144,-0.6802,-0.6483,-0.6432,-0.6319,-0.6179,-0.6179,-0.6179,-0.6184,-0.604,-0.5997,-0.5954,-0.5766,-0.5609,-0.5469,-0.5329,-0.5205,-0.5079,-0.5009,-0.4905,-0.4757,-0.4639,-0.4596,-0.4596,-0.4596,-0.548,-0.6361,-0.6293,-0.6646,-0.6954,-0.6815,-0.6933,-0.7128,-0.7257,-0.7283,-0.7253,-0.7192,-0.697,-0.6699,-0.6424,-0.6157,-0.5997,-0.5997,-0.5997,-0.5997,-0.5997,-0.5997,-0.5997,-0.5997,-0.5997,-0.5997,-0.5997,-0.5997,-0.6255,-0.6872,-0.709,-0.7195,-0.7195,-0.7335,-0.7503,-0.7698,-0.7698,-0.7795,-0.8015,-0.8358,-0.876,-0.5259,-0.5685,-0.6139,-0.6313,-0.6612,-0.704,-0.7649,-0.8382,-0.9033,-0.9214,-0.9494,-0.9536,-0.9076,-0.9345,-0.9659,-0.9803,-0.9929,-0.9918,-0.9714,-0.9621,-0.9389,-0.8893,-0.8767,-0.8629,-0.8448,-0.83,-0.8223,-0.8223,-0.8196,-0.817,-0.817,-0.817,-0.809,-0.7963,-0.7937,-0.7803,-0.7563,-0.7503,-0.7391,-0.7203,-0.7203,-0.7406,-0.7839,-0.7663,-0.7327,-0.6862,-0.667,-0.6425,-0.6126,-0.5976,-0.5777,-0.5545,-0.5464,-0.5426,-0.5426,-0.5383,-0.534,-0.5291,-0.5226,-0.5053,-0.4857,-0.4809,-0.4709,-0.4605,-0.4583,-0.4456,-0.4302,-0.4258,-0.4258,-0.4258,-0.4258,-0.4582,-0.5009,-0.5323,-0.5611,-0.5784,-0.5754,-0.5782,-0.585,-0.5875,-0.59,-0.5833,-0.5673,-0.5628,-0.5528,-0.5299,-0.5293,-0.5291,-0.5291,-0.534,-0.5361,-0.5361,-0.5443,-0.5507,-0.5507,-0.5507,-0.5507,-0.5507,-0.5507,-0.5787,-0.6377,-0.6462,-0.6611,-0.6838,-0.688,-0.7106,-0.7482,-0.7482,-0.7702,-0.8151,-0.8582,-0.8952,-0.5354,-0.5675,-0.5959,-0.6079,-0.6273,-0.6552,-0.692,-0.7773,-0.8602,-0.8913,-0.9215,-0.9283,-0.8854,-0.8999,-0.9235,-0.9345,-0.9289,-0.9162,-0.8993,-0.8825,-0.855,-0.8106,-0.8053,-0.7933,-0.7676,-0.761,-0.7557,-0.7498,-0.7417,-0.7391,-0.7391,-0.7391,-0.7343,-0.7262,-0.7155,-0.702,-0.6858,-0.675,-0.661,-0.6475,-0.6475,-0.6528,-0.6654,-0.6784,-0.6622,-0.6219,-0.5961,-0.5682,-0.5426,-0.5323,-0.5145,-0.4944,-0.4862,-0.4818,-0.4818,-0.4797,-0.4775,-0.4748,-0.4666,-0.4539,-0.4381,-0.4338,-0.4276,-0.4188,-0.4144,-0.4034,-0.3928,-0.391,-0.3865,-0.3821,-0.3821,-0.3836,-0.3991,-0.4527,-0.4788,-0.4919,-0.4875,-0.493,-0.5005,-0.5059,-0.5059,-0.5023,-0.4862,-0.487,-0.4823,-0.4631,-0.4666,-0.4727,-0.4727,-0.4753,-0.4775,-0.4775,-0.4857,-0.4923,-0.4966,-0.4988,-0.4988,-0.5026,-0.5026,-0.52,-0.562,-0.5884,-0.612,-0.6343,-0.6392,-0.66,-0.6931,-0.6953,-0.7153,-0.7539,-0.8143,-0.8512,-0.5482,-0.5686,-0.5789,-0.5818,-0.5955,-0.6166,-0.6332,-0.724,-0.8134,-0.8328,-0.8565,-0.8671,-0.8538,-0.8525,-0.8623,-0.882,-0.8502,-0.8186,-0.8141,-0.7948,-0.7717,-0.7382,-0.7354,-0.73,-0.7182,-0.7052,-0.6945,-0.6799,-0.6637,-0.6534,-0.6534,-0.6534,-0.6534,-0.6507,-0.6263,-0.6127,-0.61,-0.5855,-0.5719,-0.5719,-0.5719,-0.5527,-0.517,-0.5668,-0.5777,-0.5548,-0.5117,-0.4792,-0.4552,-0.4552,-0.4469,-0.4342,-0.4342,-0.4342,-0.432,-0.4276,-0.4276,-0.4302,-0.413,-0.4064,-0.4042,-0.3906,-0.3836,-0.3814,-0.3678,-0.3631,-0.3612,-0.3556,-0.3445,-0.3331,-0.3331,-0.3239,-0.3281,-0.3818,-0.413,-0.4264,-0.4132,-0.4247,-0.4421,-0.4547,-0.4575,-0.4573,-0.4509,-0.4505,-0.4448,-0.4256,-0.4232,-0.4232,-0.4232,-0.425,-0.425,-0.425,-0.425,-0.432,-0.4434,-0.4434,-0.4473,-0.453,-0.4552,-0.4622,-0.4757,-0.5306,-0.5653,-0.5723,-0.5863,-0.6003,-0.6155,-0.6223,-0.6343,-0.652,-0.727,-0.7661,-0.5172,-0.5449,-0.5733,-0.5861,-0.61,-0.6313,-0.6268,-0.6638,-0.7097,-0.7428,-0.7727,-0.7944,-0.7894,-0.8013,-0.8063,-0.787,-0.7602,-0.7289,-0.6866,-0.664,-0.6421,-0.6182,-0.6154,-0.6154,-0.6122,-0.61,-0.6073,-0.6046,-0.5991,-0.5964,-0.5964,-0.5964,-0.5909,-0.5809,-0.5755,-0.5591,-0.534,-0.5289,-0.5203,-0.5089,-0.5089,-0.4958,-0.4732,-0.5073,-0.4989,-0.4595,-0.4486,-0.4364,-0.4214,-0.4214,-0.4056,-0.3854,-0.3854,-0.3854,-0.3854,-0.3832,-0.3832,-0.3854,-0.381,-0.3748,-0.3689,-0.3553,-0.3439,-0.3325,-0.3189,-0.3106,-0.3065,-0.3046,-0.2954,-0.2843,-0.2843,-0.2751,-0.2682,-0.2815,-0.3169,-0.3459,-0.3417,-0.344,-0.3507,-0.3647,-0.3673,-0.3708,-0.379,-0.3808,-0.3794,-0.3762,-0.3755,-0.3755,-0.3755,-0.3792,-0.3832,-0.3832,-0.3924,-0.399,-0.4038,-0.4038,-0.4034,-0.4056,-0.4148,-0.428,-0.4408,-0.4779,-0.5084,-0.5253,-0.5275,-0.547,-0.5813,-0.5938,-0.6173,-0.6513,-0.6883,-0.7261,-0.4834,-0.518,-0.5506,-0.5713,-0.5958,-0.611,-0.5962,-0.6125,-0.6383,-0.6548,-0.6975,-0.7307,-0.7307,-0.7335,-0.7298,-0.7066,-0.6759,-0.6466,-0.6111,-0.5875,-0.5669,-0.5563,-0.5555,-0.5527,-0.5477,-0.5477,-0.5449,-0.5363,-0.5363,-0.5363,-0.5363,-0.5363,-0.5336,-0.5262,-0.5207,-0.5073,-0.4908,-0.4849,-0.4767,-0.4708,-0.4601,-0.444,-0.4233,-0.4458,-0.442,-0.4149,-0.4043,-0.3946,-0.3865,-0.3865,-0.3777,-0.3663,-0.3663,-0.3663,-0.3638,-0.3571,-0.3549,-0.3549,-0.348,-0.3391,-0.3306,-0.3236,-0.3103,-0.2951,-0.2882,-0.2796,-0.2687,-0.264,-0.2504,-0.2415,-0.237,-0.2259,-0.2172,-0.2172,-0.2526,-0.286,-0.286,-0.2907,-0.2973,-0.3043,-0.3151,-0.3236,-0.3306,-0.3376,-0.342,-0.349,-0.3512,-0.3534,-0.3604,-0.3619,-0.3663,-0.3663,-0.3707,-0.3774,-0.381,-0.381,-0.3836,-0.3902,-0.3972,-0.406,-0.4192,-0.4368,-0.4583,-0.4857,-0.4857,-0.4957,-0.5176,-0.5311,-0.5483,-0.569,-0.6054,-0.6391,-0.4357,-0.4775,-0.5167,-0.5413,-0.5585,-0.5654,-0.5485,-0.5589,-0.5723,-0.5723,-0.6251,-0.6716,-0.6716,-0.6646,-0.651,-0.6301,-0.5986,-0.5721,-0.551,-0.5294,-0.5171,-0.5171,-0.5171,-0.512,-0.5014,-0.4987,-0.4959,-0.4846,-0.4846,-0.4846,-0.4846,-0.4846,-0.4818,-0.4791,-0.466,-0.4608,-0.4577,-0.4463,-0.4408,-0.438,-0.4162,-0.3966,-0.3767,-0.3875,-0.3917,-0.3932,-0.3773,-0.3662,-0.3604,-0.3578,-0.3556,-0.3556,-0.3534,-0.3512,-0.349,-0.3376,-0.3309,-0.3265,-0.3151,-0.3037,-0.2901,-0.2879,-0.2749,-0.2576,-0.2529,-0.2417,-0.2259,-0.2123,-0.1988,-0.1876,-0.1832,-0.1701,-0.1615,-0.1615,-0.1904,-0.2215,-0.2348,-0.2462,-0.2551,-0.2595,-0.2771,-0.2923,-0.2923,-0.3015,-0.3151,-0.3265,-0.3309,-0.3376,-0.349,-0.3512,-0.3534,-0.3534,-0.3534,-0.3553,-0.3612,-0.3634,-0.37,-0.3814,-0.3836,-0.3902,-0.402,-0.4064,-0.4236,-0.4513,-0.453,-0.4552,-0.4552,-0.4692,-0.4736,-0.4762,-0.5168,-0.5451,-0.3472,-0.4131,-0.4724,-0.4855,-0.4935,-0.4945,-0.4926,-0.4935,-0.4948,-0.4948,-0.5517,-0.602,-0.602,-0.602,-0.5853,-0.5448,-0.532,-0.514,-0.4727,-0.4639,-0.4598,-0.4598,-0.4598,-0.4601,-0.4574,-0.4574,-0.4574,-0.4546,-0.4546,-0.4546,-0.4546,-0.4546,-0.4463,-0.4301,-0.4276,-0.4221,-0.4107,-0.4079,-0.4021,-0.3879,-0.3633,-0.3547,-0.3611,-0.3358,-0.3388,-0.3661,-0.3748,-0.3716,-0.36,-0.3464,-0.342,-0.342,-0.3306,-0.3192,-0.3078,-0.3056,-0.2948,-0.2798,-0.2776,-0.2684,-0.2549,-0.2435,-0.2259,-0.204,-0.1815,-0.1612,-0.1433,-0.1298,-0.1164,-0.1051,-0.1051,-0.0942,-0.0854,-0.0854,-0.0899,-0.1122,-0.1748,-0.1906,-0.1971,-0.2146,-0.239,-0.2571,-0.2571,-0.2684,-0.2776,-0.2798,-0.2948,-0.3056,-0.3078,-0.3192,-0.3262,-0.3262,-0.3262,-0.3262,-0.3258,-0.3372,-0.3442,-0.3464,-0.3634,-0.3744,-0.3744,-0.3972,-0.413,-0.4174,-0.4276,-0.4338,-0.4338,-0.4478,-0.4548,-0.4548,-0.467,-0.4924,-0.3004,-0.35,-0.3899,-0.4176,-0.4253,-0.4253,-0.4253,-0.4253,-0.4253,-0.4253,-0.4489,-0.4858,-0.5355,-0.5455,-0.5325,-0.4993,-0.482,-0.4594,-0.4166,-0.4101,-0.4076,-0.3996,-0.4049,-0.4101,-0.4101,-0.4187,-0.4215,-0.4215,-0.4215,-0.4187,-0.4101,-0.4101,-0.3993,-0.3747,-0.3749,-0.3663,-0.3494,-0.3494,-0.338,-0.3183,-0.3072,-0.2935,-0.2826,-0.2861,-0.3136,-0.3595,-0.359,-0.3547,-0.3488,-0.3338,-0.3193,-0.3052,-0.2957,-0.284,-0.2704,-0.2546,-0.2433,-0.2348,-0.2239,-0.2105,-0.1992,-0.1925,-0.1768,-0.1569,-0.1389,-0.1208,-0.103,-0.083,-0.0718,-0.0673,-0.0628,-0.0584,-0.0539,-0.0539,-0.0539,-0.0629,-0.0943,-0.1233,-0.15,-0.1767,-0.1925,-0.2016,-0.2105,-0.2219,-0.2328,-0.2348,-0.2502,-0.2635,-0.2704,-0.2771,-0.2815,-0.2815,-0.2815,-0.284,-0.2907,-0.2973,-0.3062,-0.317,-0.3255,-0.3369,-0.3527,-0.3641,-0.3733,-0.3825,-0.4144,-0.4294,-0.4294,-0.4364,-0.4386,-0.4386,-0.4425,-0.456,-0.2495,-0.277,-0.2959,-0.3277,-0.3329,-0.3353,-0.3379,-0.337,-0.3361,-0.3387,-0.3424,-0.3654,-0.4284,-0.4619,-0.468,-0.4451,-0.4259,-0.4037,-0.3707,-0.3621,-0.3574,-0.3497,-0.3549,-0.363,-0.363,-0.3716,-0.3771,-0.3771,-0.3771,-0.3716,-0.363,-0.3602,-0.3463,-0.3216,-0.3132,-0.2993,-0.2824,-0.274,-0.2627,-0.243,-0.2347,-0.2181,-0.1989,-0.2209,-0.2593,-0.3091,-0.3216,-0.3248,-0.3216,-0.3048,-0.2852,-0.2633,-0.2509,-0.2395,-0.2237,-0.2057,-0.1923,-0.1832,-0.1679,-0.1502,-0.1367,-0.1367,-0.1256,-0.1076,-0.0963,-0.0829,-0.0672,-0.0449,-0.0382,-0.036,-0.0315,-0.0292,-0.0292,-0.0292,-0.0292,-0.0315,-0.0382,-0.0695,-0.1031,-0.1323,-0.139,-0.1456,-0.1591,-0.1725,-0.1837,-0.1899,-0.2034,-0.2148,-0.2259,-0.2306,-0.2328,-0.2328,-0.2328,-0.2373,-0.2509,-0.2529,-0.2615,-0.2812,-0.2879,-0.3015,-0.322,-0.3262,-0.335,-0.3442,-0.3836,-0.4074,-0.4188,-0.4232,-0.4254,-0.4254,-0.4276,-0.4342,-0.1691,-0.1921,-0.2063,-0.2091,-0.2084,-0.2119,-0.2184,-0.2184,-0.2213,-0.2275,-0.2386,-0.2482,-0.2517,-0.3253,-0.3786,-0.3606,-0.3504,-0.3401,-0.3238,-0.3166,-0.313,-0.313,-0.313,-0.313,-0.313,-0.313,-0.3158,-0.3158,-0.3158,-0.3158,-0.313,-0.3016,-0.2877,-0.2736,-0.2434,-0.2183,-0.2069,-0.1817,-0.1677,-0.1649,-0.1345,-0.1234,-0.1346,-0.1234,-0.1371,-0.1754,-0.2578,-0.2857,-0.272,-0.2463,-0.2309,-0.2209,-0.1949,-0.1763,-0.1634,-0.1634,-0.1433,-0.1141,-0.1141,-0.0964,-0.0742,-0.0742,-0.0652,-0.0539,-0.0449,-0.0337,-0.0202,-0.0067,-0.0022,-0.0022,-0.0022,-0.0022,-0.0022,-0.0022,-0.0022,-0.009,-0.0337,-0.0472,-0.0584,-0.0719,-0.0852,-0.0985,-0.1119,-0.1254,-0.1344,-0.1344,-0.15,-0.1634,-0.1634,-0.1748,-0.1837,-0.1837,-0.1837,-0.1884,-0.2018,-0.2103,-0.2188,-0.2324,-0.2571,-0.2729,-0.2729,-0.2926,-0.3034,-0.3034,-0.3192,-0.348,-0.3924,-0.4038,-0.4108,-0.4108,-0.4232,-0.4232,-0.1319,-0.143,-0.1513,-0.1597,-0.1613,-0.1632,-0.1651,-0.1698,-0.1711,-0.1731,-0.179,-0.1823,-0.1889,-0.2553,-0.3025,-0.2874,-0.2851,-0.2736,-0.2538,-0.2429,-0.2348,-0.2265,-0.2348,-0.2404,-0.2404,-0.2462,-0.2517,-0.2517,-0.2517,-0.2434,-0.2265,-0.2209,-0.2041,-0.168,-0.1569,-0.1429,-0.1288,-0.1204,-0.112,-0.1008,-0.0897,-0.0813,-0.0729,-0.0813,-0.0897,-0.1036,-0.1437,-0.1774,-0.1992,-0.1947,-0.1812,-0.1605,-0.1506,-0.1346,-0.1138,-0.1065,-0.0898,-0.0718,-0.0673,-0.0584,-0.0517,-0.0517,-0.0472,-0.0405,-0.0315,-0.018,-0.0045,0.009,0.018,0.0247,0.0247,0.0247,0.0247,0.0247,0.0247,0.0225,0.0135,-0.0112,-0.0337,-0.0472,-0.0584,-0.065,-0.0695,-0.0898,-0.1033,-0.1033,-0.1188,-0.1277,-0.1277,-0.1321,-0.1344,-0.1344,-0.1344,-0.1411,-0.1547,-0.1567,-0.1655,-0.1835,-0.2016,-0.215,-0.2241,-0.235,-0.2417,-0.2417,-0.2549,-0.2948,-0.3571,-0.3726,-0.381,-0.3836,-0.399,-0.406,-0.0894,-0.0959,-0.0995,-0.1074,-0.1136,-0.1204,-0.119,-0.1264,-0.1309,-0.1294,-0.131,-0.1354,-0.1381,-0.1814,-0.217,-0.2193,-0.2165,-0.2102,-0.1921,-0.1832,-0.1758,-0.1654,-0.1708,-0.1764,-0.1764,-0.1793,-0.1821,-0.1821,-0.1792,-0.168,-0.1512,-0.1455,-0.1232,-0.0813,-0.0785,-0.0729,-0.0589,-0.0589,-0.0561,-0.0477,-0.0477,-0.0393,-0.028,-0.0393,-0.0477,-0.0477,-0.0561,-0.0896,-0.1369,-0.1365,-0.1236,-0.106,-0.101,-0.0877,-0.0713,-0.0625,-0.0478,-0.0315,-0.0292,-0.0202,-0.0135,-0.0135,-0.0135,-0.0112,0.0,0.009,0.0202,0.0381,0.0494,0.0584,0.0629,0.0629,0.0629,0.0629,0.0629,0.0629,0.0629,0.0292,-0.0045,-0.018,-0.0225,-0.0292,-0.0382,-0.0584,-0.0742,-0.0764,-0.0876,-0.0963,-0.0963,-0.0963,-0.0963,-0.0963,-0.0963,-0.1031,-0.1144,-0.1166,-0.1233,-0.1411,-0.1569,-0.1681,-0.177,-0.1839,-0.1861,-0.1861,-0.1947,-0.2281,-0.2862,-0.3211,-0.3476,-0.3612,-0.377,-0.3954,0.0,0.0,0.0,-0.0494,-0.0649,-0.0795,-0.0798,-0.0852,-0.0905,-0.0905,-0.0958,-0.1,-0.1001,-0.1056,-0.1209,-0.1547,-0.1543,-0.1499,-0.1489,-0.1413,-0.1369,-0.1296,-0.129,-0.129,-0.129,-0.115,-0.1066,-0.1066,-0.0954,-0.0898,-0.087,-0.0757,-0.0533,-0.0196,-0.0196,-0.014,0.0,0.0,0.0,0.0,0.0,0.0,0.0,0.0,0.0,0.0,0.0,-0.0308,-0.0842,-0.0729,-0.0633,-0.056,-0.0453,-0.0383,-0.0383,-0.0383,-0.021,0.0023,0.0023,0.0203,0.0427,0.0427,0.0427,0.0427,0.0494,0.0517,0.0584,0.0851,0.0918,0.0962,0.1097,0.1119,0.1119,0.1119,0.1119,0.1119,0.1119,0.0763,0.0405,0.0247,0.0225,0.0135,-0.0135,-0.0292,-0.0405,-0.0472,-0.0607,-0.0674,-0.0674,-0.0697,-0.0697,-0.0697,-0.0697,-0.0742,-0.0877,-0.09,-0.0943,-0.1075,-0.1208,-0.1299,-0.1299,-0.1344,-0.1389,-0.1389,-0.1389,-0.1523,-0.1794,-0.2591,-0.3103,-0.3382,-0.3604,-0.3957,-0.0145,0.0,0.0,0.0,0.0,0.0,-0.0579,-0.068,-0.0786,-0.0875,-0.0943,-0.1007,-0.0997,-0.1008,-0.1085,-0.1207,-0.1183,-0.115,-0.1147,-0.1083,-0.1019,-0.1014,-0.0926,-0.087,-0.087,-0.0701,-0.0589,-0.0589,-0.0561,-0.0505,-0.0393,-0.028,-0.014,-0.0056,-0.0056,-0.0028,0.0,0.0084,0.014,0.014,0.0252,0.028,0.028,0.028,0.028,0.028,0.028,0.0196,0.0028,-0.0224,-0.0279,-0.0165,-0.0242,-0.0132,0.0052,0.0201,0.037,0.0536,0.0663,0.0773,0.0839,0.0882,0.0896,0.0919,0.0919,0.1008,0.1098,0.1232,0.1321,0.1433,0.1569,0.1614,0.1614,0.1614,0.1614,0.1614,0.1614,0.1502,0.13,0.0919,0.0695,0.0515,0.0336,0.0157,0.0,-0.0112,-0.018,-0.0225,-0.0315,-0.0427,-0.0494,-0.0539,-0.0652,-0.0719,-0.0742,-0.0764,-0.0764,-0.0808,-0.0943,-0.101,-0.101,-0.1121,-0.1186,-0.1186,-0.1186,-0.1277,-0.1433,-0.1994,-0.2454,-0.2833,-0.3482,-0.4021,0.0262,0.0185,0.009,0.0067,0.0,0.0,-0.027,-0.0389,-0.0523,-0.0584,-0.0714,-0.0798,-0.0801,-0.0807,-0.0815,-0.0838,-0.0831,-0.0846,-0.098,-0.092,-0.0861,-0.0834,-0.0622,-0.0505,-0.0505,-0.028,-0.014,-0.014,-0.0084,-0.0028,0.0056,0.0112,0.0168,0.0168,0.0168,0.0196,0.028,0.0364,0.0477,0.0589,0.0645,0.0701,0.0701,0.0701,0.0673,0.0617,0.0673,0.0701,0.0673,0.0505,0.0364,0.0308,0.0329,0.0432,0.0584,0.078,0.0911,0.1007,0.12,0.1248,0.1272,0.1355,0.1389,0.1411,0.1456,0.1524,0.1612,0.1746,0.188,0.1994,0.2083,0.2083,0.2083,0.2083,0.2083,0.2083,0.2083,0.2083,0.1949,0.1478,0.1277,0.1097,0.0918,0.0762,0.0583,0.0337,0.0247,0.0157,-0.0022,-0.0157,-0.0292,-0.045,-0.0562,-0.0629,-0.0697,-0.0697,-0.0697,-0.0697,-0.0764,-0.081,-0.081,-0.0898,-0.0942,-0.0942,-0.0942,-0.0995,-0.1126,-0.1632,-0.2137,-0.266,-0.3385,-0.392,0.0709,0.0644,0.0537,0.0471,0.0359,0.0,0.009,-0.0048,-0.0127,-0.0131,-0.028,-0.0417,-0.041,-0.0414,-0.0418,-0.0397,-0.04,-0.053,-0.0875,-0.0819,-0.0702,-0.0591,-0.0286,-0.0084,-0.0084,0.0168,0.0308,0.0308,0.0421,0.0505,0.0505,0.0505,0.0505,0.0505,0.0505,0.0589,0.0757,0.0785,0.0925,0.1178,0.1206,0.1206,0.1234,0.1234,0.115,0.1037,0.1178,0.1234,0.1234,0.1374,0.1178,0.0813,0.1065,0.1184,0.1231,0.1366,0.1462,0.1518,0.1657,0.1704,0.1713,0.1841,0.1882,0.1906,0.2018,0.2062,0.2085,0.2281,0.2437,0.2551,0.2551,0.2551,0.2551,0.2551,0.2551,0.2551,0.2551,0.2561,0.2433,0.2009,0.1889,0.177,0.1523,0.1411,0.1233,0.0856,0.0698,0.0542,0.0341,0.0181,0.0,-0.0294,-0.0405,-0.0517,-0.0674,-0.0674,-0.0674,-0.0697,-0.0697,-0.0697,-0.0697,-0.0697,-0.0699,-0.0702,-0.0705,-0.0789,-0.0916,-0.1423,-0.1989,-0.2638,-0.3229,-0.3652,0.0997,0.0923,0.0827,0.0806,0.0695,0.0,0.0425,0.0334,0.0278,0.0204,0.0135,0.0057,0.0058,0.0058,0.0088,0.0121,0.0186,0.0095,-0.029,-0.0378,-0.0275,0.0059,0.0343,0.0561,0.0673,0.0926,0.1094,0.1094,0.1122,0.1122,0.1122,0.1122,0.1122,0.1122,0.1122,0.115,0.1178,0.1344,0.1511,0.1652,0.1764,0.1875,0.1989,0.1989,0.1961,0.1961,0.1961,0.1989,0.1989,0.2186,0.1931,0.1427,0.1595,0.1729,0.1857,0.2164,0.2216,0.2153,0.2342,0.2334,0.2267,0.233,0.237,0.2373,0.2395,0.2395,0.244,0.2573,0.2709,0.2821,0.2821,0.2821,0.2821,0.2821,0.2821,0.2821,0.2821,0.2875,0.2871,0.2778,0.245,0.2146,0.1988,0.1813,0.1655,0.1523,0.1436,0.1309,0.1106,0.0864,0.0588,0.0212,-0.0092,-0.0337,-0.0517,-0.0539,-0.0584,-0.0697,-0.0697,-0.0697,-0.0697,-0.0697,-0.0731,-0.0779,-0.0778,-0.088,-0.1069,-0.1382,-0.1727,-0.2079,-0.2617,-0.3157,0.1321,0.1299,0.1254,0.1254,0.1188,0.0,0.0,0.0915,0.0886,0.0854,0.083,0.0806,0.0807,0.08,0.0801,0.0856,0.0944,0.0975,0.0942,0.0631,0.0436,0.0574,0.1025,0.1313,0.1346,0.1597,0.1737,0.1737,0.1737,0.1737,0.1737,0.1737,0.1737,0.1737,0.1737,0.1793,0.1906,0.1989,0.2153,0.2348,0.2404,0.2488,0.2545,0.2545,0.2517,0.2465,0.2517,0.2545,0.2573,0.2742,0.2629,0.2348,0.2348,0.2404,0.2488,0.2715,0.2682,0.2583,0.2741,0.2694,0.2575,0.2658,0.2709,0.2709,0.2709,0.2709,0.2709,0.2776,0.2845,0.289,0.289,0.289,0.289,0.289,0.2937,0.2957,0.2957,0.3026,0.311,0.311,0.2915,0.2706,0.2562,0.2401,0.2253,0.2125,0.1984,0.1801,0.1535,0.1315,0.1054,0.0637,0.0337,0.0048,-0.0191,-0.0358,-0.0501,-0.0644,-0.0715,-0.0739,-0.0739,-0.0739,-0.077,-0.081,-0.084,-0.0889,-0.1012,-0.1139,-0.1394,-0.1749,-0.2168,-0.2631,0.1569,0.1591,0.1614,0.1636,0.1636,0.1614,0.0,0.0,0.0,0.1521,0.1528,0.153,0.1544,0.1523,0.1538,0.1566,0.1648,0.182,0.212,0.1725,0.1375,0.1264,0.1728,0.2046,0.2018,0.2225,0.2358,0.2358,0.2358,0.2358,0.2358,0.2371,0.2378,0.2378,0.2378,0.2464,0.2605,0.2605,0.2742,0.2991,0.2991,0.3019,0.3047,0.3047,0.2965,0.2886,0.2993,0.3047,0.3047,0.316,0.3188,0.3188,0.3047,0.2991,0.3019,0.316,0.3055,0.2898,0.3001,0.2902,0.2754,0.2868,0.2906,0.2926,0.2926,0.2926,0.2926,0.2926,0.2909,0.289,0.289,0.2906,0.2926,0.2926,0.2972,0.3035,0.3035,0.3148,0.3228,0.3228,0.3247,0.3222,0.3074,0.2896,0.2755,0.2621,0.2393,0.2117,0.1827,0.164,0.1403,0.102,0.0759,0.0479,0.0176,-0.0151,-0.0403,-0.058,-0.0731,-0.0806,-0.0806,-0.0813,-0.0815,-0.0815,-0.0872,-0.0888,-0.0888,-0.0913,-0.1122,-0.1543,-0.1793,-0.2184,0.1569,0.1591,0.1636,0.1748,0.1772,0.1794,0.1906,0.0,0.1947,0.1999,0.0,0.2029,0.2025,0.0,0.0,0.2095,0.2177,0.226,0.2343,0.251,0.2586,0.2507,0.2572,0.2643,0.2768,0.2862,0.2921,0.2921,0.2921,0.2921,0.2921,0.2973,0.2991,0.2991,0.2991,0.3019,0.3019,0.3019,0.3132,0.3357,0.3357,0.3413,0.3527,0.3527,0.3499,0.3499,0.3527,0.3527,0.3527,0.3527,0.3555,0.3527,0.3385,0.3357,0.3357,0.3499,0.3374,0.3168,0.3168,0.3042,0.289,0.289,0.2941,0.2981,0.2981,0.2981,0.2981,0.2981,0.2952,0.289,0.289,0.2947,0.2981,0.2981,0.3091,0.3175,0.3175,0.3294,0.3379,0.3379,0.3468,0.3474,0.3231,0.2971,0.2831,0.2925,0.2564,0.2245,0.2151,0.1862,0.1563,0.1297,0.1132,0.0832,0.0328,0.0076,-0.0202,-0.058,-0.0731,-0.0806,-0.0806,-0.0858,-0.0899,-0.0899,-0.0904,-0.0892,-0.0892,-0.0896,-0.1038,-0.1347,-0.1543,-0.1964,0.1658,0.1725,0.177,0.2036,0.2081,0.2125,0.2261,0.235,0.242,0.2442,0.0,0.0,0.0,0.0,0.0,0.0,0.2661,0.2744,0.2843,0.2949,0.2926,0.2677,0.2819,0.2965,0.3059,0.3092,0.3118,0.3118,0.3182,0.3245,0.3245,0.3324,0.3385,0.3385,0.3385,0.3385,0.3385,0.3385,0.3441,0.3527,0.3527,0.3555,0.3613,0.3613,0.3613,0.3613,0.3613,0.3613,0.3613,0.3613,0.3613,0.3585,0.3527,0.3527,0.3519,0.3504,0.3368,0.3183,0.3118,0.3009,0.289,0.289,0.2949,0.3002,0.3002,0.3048,0.311,0.3019,0.2988,0.2957,0.2909,0.2957,0.3002,0.3002,0.3164,0.3324,0.3324,0.342,0.3507,0.3507,0.355,0.3553,0.3447,0.3188,0.2989,0.3061,0.2686,0.2369,0.2207,0.202,0.1811,0.162,0.1465,0.1183,0.0698,0.0322,-0.0054,-0.0456,-0.0725,-0.086,-0.086,-0.0872,-0.0906,-0.0906,-0.0891,-0.0898,-0.0898,-0.0898,-0.1038,-0.1291,-0.1375,-0.1654,0.1786,0.184,0.1891,0.2228,0.2299,0.2324,0.246,0.2595,0.2709,0.2754,0.2821,0.0,0.0,0.0,0.289,0.289,0.0,0.3025,0.3131,0.3169,0.3117,0.2906,0.3083,0.3265,0.3304,0.3238,0.3194,0.3194,0.3281,0.3338,0.328,0.3482,0.3597,0.3534,0.3566,0.3613,0.3613,0.3613,0.3613,0.3613,0.3613,0.3613,0.3613,0.3613,0.3613,0.3613,0.3613,0.3613,0.3613,0.3613,0.3613,0.3613,0.3613,0.3591,0.3523,0.3433,0.3303,0.3137,0.3029,0.2945,0.2895,0.2928,0.2975,0.3053,0.3085,0.3177,0.3226,0.3145,0.3051,0.2989,0.2979,0.3028,0.3056,0.3088,0.3277,0.3452,0.3452,0.352,0.3613,0.3613,0.3613,0.3583,0.3555,0.3299,0.3102,0.3102,0.2715,0.2352,0.2212,0.2045,0.1906,0.1797,0.1713,0.1459,0.0954,0.0505,0.0028,-0.0505,-0.0757,-0.0898,-0.0898,-0.0898,-0.0898,-0.0898,-0.0898,-0.0898,-0.0898,-0.0898,-0.101,-0.1178,-0.1262,-0.1541,0.1913,0.1935,0.1974,0.2231,0.2303,0.2324,0.246,0.2595,0.2732,0.2868,0.289,0.289,0.289,0.289,0.289,0.289,0.2954,0.0,0.0,0.3115,0.3283,0.3545,0.3584,0.358,0.3577,0.3357,0.321,0.321,0.3205,0.315,0.3019,0.3392,0.3528,0.3411,0.3523,0.3613,0.3613,0.3613,0.3613,0.3613,0.3613,0.3613,0.3613,0.3613,0.3613,0.3613,0.3613,0.3613,0.3613,0.3613,0.3613,0.3613,0.3613,0.3512,0.3406,0.3403,0.3228,0.3005,0.3002,0.2945,0.2909,0.298,0.3096,0.321,0.3354,0.3392,0.3395,0.3392,0.3199,0.3024,0.3153,0.3185,0.3218,0.3362,0.3487,0.3605,0.3605,0.361,0.3613,0.3613,0.3613,0.3555,0.3441,0.3244,0.3102,0.3102,0.2601,0.2212,0.2212,0.1964,0.1797,0.1797,0.1797,0.1543,0.0954,0.0589,0.0028,-0.0842,-0.0898,-0.0898,-0.0898,-0.0898,-0.0898,-0.0898,-0.0898,-0.0898,-0.0898,-0.0898,-0.0898,-0.0926,-0.1178,-0.171,0.0,0.0,0.2002,0.2403,0.0,0.0,0.0,0.0,0.2867,0.2948,0.2964,0.2964,0.2964,0.2964,0.296,0.2962,0.3059,0.317,0.0,0.3505,0.3738,0.3915,0.3731,0.3592,0.3592,0.3429,0.3333,0.3333,0.3339,0.3363,0.3385,0.3614,0.3719,0.3678,0.3721,0.3744,0.3744,0.3744,0.3771,0.3858,0.3858,0.3858,0.3858,0.3858,0.3858,0.3858,0.3858,0.3858,0.3858,0.3858,0.3858,0.3849,0.3761,0.3597,0.3386,0.3306,0.3156,0.2992,0.2957,0.2955,0.2972,0.2986,0.3156,0.3349,0.339,0.3458,0.3507,0.3422,0.3343,0.3247,0.3204,0.3278,0.3349,0.3392,0.3496,0.3613,0.3613,0.3613,0.3613,0.3613,0.3527,0.3444,0.3413,0.3165,0.297,0.297,0.2633,0.2408,0.2408,0.2128,0.1933,0.1933,0.1852,0.16,0.1066,0.0393,-0.0224,-0.0729,-0.0842,-0.0898,-0.0898,-0.0898,-0.0898,-0.0898,-0.0898,-0.0898,-0.0898,-0.0898,-0.0954,-0.1038,-0.1347,-0.1738,0.1994,0.2017,0.0,0.2556,0.2649,0.0,0.2874,0.0,0.3015,0.0,0.0,0.3002,0.3002,0.3012,0.3021,0.3071,0.3236,0.3458,0.0,0.3946,0.4144,0.4228,0.4012,0.384,0.384,0.3726,0.3638,0.3571,0.3573,0.3579,0.36,0.3752,0.379,0.3728,0.3773,0.3818,0.3866,0.3866,0.3972,0.4187,0.4187,0.4187,0.4187,0.4187,0.4187,0.4187,0.4187,0.4187,0.4187,0.4187,0.4187,0.4177,0.4085,0.3889,0.3606,0.3312,0.311,0.2997,0.3004,0.3044,0.3069,0.3137,0.3253,0.3409,0.3452,0.352,0.3594,0.3487,0.3436,0.3392,0.3357,0.3373,0.3411,0.3455,0.3526,0.3613,0.3613,0.3613,0.3613,0.3613,0.3499,0.3385,0.3302,0.3081,0.2888,0.2888,0.2663,0.2493,0.2493,0.2212,0.1987,0.1987,0.1878,0.1572,0.101,0.0252,-0.0336,-0.0673,-0.0814,-0.0898,-0.0898,-0.0898,-0.0898,-0.0898,-0.0898,-0.0898,-0.0898,-0.0898,-0.0982,-0.1122,-0.1486,-0.1877]},{"header":{"parameterUnit":"m.s-1","parameterCategory":1,"la1":30.6,"la2":29.2853,"lo1":-89.7004,"lo2":-87.6739,"dy":0.0162,"dx":0.0183,"nx":112,"ny":82,"refTime":"2023-08-29T12:00:00:Z","depth":0,"parameterNumber":3,"parameterNumberName":"V-component_of_WINDS"},"data":[0.0,0.0,0.0,0.0,0.0,0.0,0.0,0.0,0.0,0.0,0.0,0.0,0.0,0.0,0.0,0.0,0.0,0.0,0.0,0.0,0.0,0.0,0.0,0.0,0.0,0.0,0.0,0.0,0.0,0.0,0.0,0.0,0.0,0.0,0.0,0.0,0.0,0.0,0.0,0.0,0.0,0.0,0.0,0.0,0.0,0.0,0.0,0.0,0.0,0.0,0.0,0.0,0.0,0.0,0.0,0.0,0.0,0.0,0.0,0.0,0.0,0.0,0.0,0.0,0.0,0.0,0.0,0.0,0.0,0.0,0.0,0.0,0.0,0.0,0.0,0.0,0.0,0.0,0.0,0.0,0.0,0.0,0.0,0.0,0.0,0.0,0.0,0.0,0.0,0.0,0.4352,0.5153,0.5379,0.5022,0.4001,0.2317,0.0769,-0.0472,0.0,0.0,0.0,0.0,0.0,0.0,0.0,0.0,0.0,0.0,0.0,0.0,0.0,0.0,0.0,0.0,0.0,0.0,0.0,0.0,0.0,0.0,0.0,0.0,0.0,0.0,0.0,0.0,0.0,0.0,0.0,0.0,0.0,0.0,0.0,0.0,0.0,0.0,0.0,0.0,0.0,0.0,0.0,0.0,0.0,0.0,0.0,0.0,0.0,0.0,0.0,0.0,0.0,0.0,0.0,0.0,0.0,0.0,0.0,0.0,0.0,0.0,0.0,0.0,0.0,0.0,0.0,0.0,0.0,0.0,0.0,0.0,0.0,0.0,0.0,0.0,0.0,0.0,0.0,0.0,0.0,0.0,0.0,0.0,0.0,0.0,0.0,0.0,0.0,0.0,0.0,0.0,0.0,0.0,0.0,0.0,0.0,0.0,0.0,0.0,0.0,0.0,0.0,0.0,0.4517,0.5345,0.5266,0.4815,0.3962,0.2413,0.0934,-0.0355,0.0,0.0,0.0,0.0,0.0,0.0,0.0,0.0,0.0,0.0,0.0,0.0,0.0,0.0,0.0,0.0,0.0,0.0,0.0,0.0,0.0,0.0,0.0,0.0,0.0,0.0,0.0,0.0,0.0,0.0,0.0,0.0,0.0,0.0,0.0,0.0,0.0,0.0,0.0,0.0,0.0,0.0,0.0,0.0,0.0,0.0,0.0,0.0,0.0,0.0,0.0,0.0,0.0,0.0,0.0,0.0,0.0,0.0,0.0,0.0,0.0,0.0,0.0,0.0,0.0,0.0,0.0,0.0,0.0,0.0,0.0,0.0,0.0,0.0,0.0,0.0,0.0,0.0,0.0,0.0,0.0,0.0,0.0,0.0,0.0,0.0,0.0,0.0,0.0,0.0,0.0,0.0,0.0,0.0,0.0,0.0,0.0,0.0,0.0,0.0,0.0,0.0,0.0,0.4522,0.501,0.532,0.5291,0.4872,0.399,0.2553,0.1153,-0.0141,-0.1223,0.0,0.0,0.0,0.0,0.0,0.0,0.0,0.0,0.0,0.0,0.0,0.0,0.0,0.0,0.0,0.0,0.0,0.0,0.0,0.0,0.0,0.0,0.0,0.0,0.0,0.0,0.0,0.0,0.0,0.0,0.0,0.0,0.0,0.0,0.0,0.0,0.0,0.0,0.0,0.0,0.0,0.0,0.0,0.0,0.0,0.0,0.0,0.0,0.0,0.0,0.0,0.0,0.0,0.0,0.0,0.0,0.0,0.0,0.0,0.0,0.0,0.0,0.0,0.0,0.0,0.0,0.0,0.0,0.0,0.0,0.0,0.0,0.0,0.0,0.0,0.0,0.0,0.0,0.0,0.0,0.0,0.0,0.0,0.0,0.0,0.0,0.0,0.0,0.0,0.0,0.0,0.0,0.0,0.0,0.0,0.0,0.0,0.0,0.0,0.0,0.0,0.0,0.4854,0.5338,0.5226,0.5231,0.4887,0.4035,0.272,0.1419,0.0138,-0.0843,0.0,0.0,0.0,0.0,0.0,0.0,0.0,0.0,0.0,0.0,0.0,0.0,0.0,0.0,0.0,0.0,0.0,0.0,0.0,0.0,0.0,0.0,0.0,0.0,0.0,0.0,0.0,0.0,0.0,0.0,0.0,0.0,0.0,0.0,0.0,0.0,0.0,0.0,0.0,0.0,0.0,0.0,0.0,0.0,0.0,0.0,0.0,0.0,0.0,0.0,0.0,0.0,0.0,0.0,0.0,0.0,0.0,0.0,0.0,0.0,0.0,0.0,0.0,0.0,0.0,0.0,0.0,0.0,0.0,0.0,0.0,0.0,0.0,0.0,0.0,0.0,0.0,0.0,0.0,0.0,0.0,0.0,0.0,0.0,0.0,0.0,0.0,0.0,0.0,0.0,0.0,0.0,0.0,0.0,0.0,0.0,0.0,0.0,0.0,0.0,0.0,0.0,0.4705,0.5021,0.5253,0.4961,0.4559,0.4124,0.2904,0.1698,0.0521,-0.0432,0.0,0.0,0.0,0.0,0.0,0.0,0.0,0.0,0.0,0.0,0.0,0.0,0.0,0.0,0.0,0.0,0.0,0.0,0.0,0.0,0.0,0.0,0.0,0.0,0.0,0.0,0.0,0.0,0.0,0.0,0.0,0.0,0.0,0.0,0.0,0.0,0.0,0.0,0.0,0.0,0.0,0.0,0.0,0.0,0.0,0.0,0.0,0.0,0.0,0.0,0.0,0.0,0.0,0.0,0.0,0.0,0.0,0.0,0.0,0.0,0.0,0.0,0.0,0.0,0.0,0.0,0.0,0.0,0.0,0.0,0.0,0.0,0.0,0.0,0.0,0.0,0.0,0.0,0.0,0.0,0.0,0.0,0.0,0.0,0.0,0.0,0.0,0.0,0.0,0.0,0.0,0.0,0.0,0.0,0.0,0.0,0.0,0.0,0.0,0.0,0.0,0.0,0.4693,0.5009,0.528,0.4959,0.4587,0.413,0.2992,0.1851,0.0756,0.0,0.0,0.0,0.0,0.0,0.0,0.0,0.0,0.0,0.0,0.0,0.0,0.0,0.0,0.0,0.0,0.0,0.0,0.0,0.0,0.0,0.0,0.0,0.0,0.0,0.0,0.0,0.0,0.0,0.0,0.0,0.0,0.0,0.0,0.0,0.0,0.0,0.0,0.0,0.0,0.0,0.0,0.0,0.0,0.0,0.0,0.0,0.0,0.0,0.0,0.0,0.0,0.0,0.0,0.0,0.0,0.0,0.0,0.0,0.0,0.0,0.0,0.0,0.0,0.0,0.0,0.0,0.0,0.0,0.0,0.0,0.0,0.0,0.0,0.0,0.0,0.0,0.0,0.0,0.0,0.0,0.0,0.0,0.0,0.0,0.0,0.0,0.0,0.0,0.0,0.0,0.0,0.0,0.0,0.0,0.0,0.0,0.0,0.0,0.0,0.0,0.0,0.4247,0.4599,0.4853,0.5046,0.4811,0.4457,0.4052,0.3076,0.2071,0.1022,0.0,0.0,0.0,0.0,0.0,0.0,0.0,0.0,0.0,0.0,0.0,0.0,0.0,0.0,0.0,0.0,0.0,0.0,0.0,0.0,0.0,0.0,0.0,0.0,0.0,0.0,0.0,0.0,0.0,0.0,0.0,0.0,0.0,0.0,0.0,0.0,0.0,0.0,0.0,0.0,0.0,0.0,0.0,0.0,0.0,0.0,0.0,0.0,0.0,0.0,0.0,0.0,0.0,0.0,0.0,0.0,0.0,0.0,0.0,0.0,0.0,0.0,0.0,0.0,0.0,0.0,0.0,0.0,0.0,0.0,0.0,0.0,0.0,0.0,0.0,0.0,0.0,0.0,0.0,0.0,0.0,0.0,0.0,0.0,0.0,0.0,0.0,0.0,0.0,0.0,0.0,0.0,0.0,0.0,0.0,0.0,0.0,0.0,0.0,0.0,0.0,0.0,0.4013,0.4352,0.4578,0.4511,0.4369,0.4166,0.3845,0.3136,0.2288,0.0,0.0,0.0,0.0,0.0,0.0,0.0,0.0,0.0,0.0,0.0,0.0,0.0,0.0,0.0,0.0,0.0,0.0,0.0,0.0,0.0,0.0,0.0,0.0,0.0,0.0,0.0,0.0,0.0,0.0,0.0,0.0,0.0,0.0,0.0,0.0,0.0,0.0,0.0,0.0,0.0,0.0,0.0,0.0,0.0,0.0,0.0,0.0,0.0,0.0,0.0,0.0,0.0,0.0,0.0,0.0,0.0,0.0,0.0,0.0,0.0,0.0,0.0,0.0,0.0,0.0,0.0,0.0,0.0,0.0,0.0,0.0,0.0,0.0,0.0,0.0,0.0,0.0,0.0,0.0,0.0,0.0,0.0,0.0,0.0,0.0,0.0,0.0,0.0,0.0,0.0,0.0,0.0,0.0,0.0,0.0,0.0,0.0,0.0,0.0,0.0,0.0,0.0,0.4121,0.4411,0.4642,0.4716,0.4464,0.4206,0.3966,0.3274,0.2486,0.1626,0.0,0.0,0.0,0.0,0.0,0.0,0.0,0.0,0.0,0.0,0.0,0.0,0.0,0.0,0.0,0.0,0.0,0.0,0.0,0.0,0.0,0.0,0.0,0.0,0.0,0.0,0.0,0.0,0.0,0.0,0.0,0.0,0.0,0.0,0.0,0.0,0.0,0.0,0.0,0.0,0.0,0.0,0.0,0.0,0.0,0.0,0.0,0.0,0.0,0.0,0.0,0.0,0.0,0.0,0.0,0.0,0.0,0.0,0.0,0.0,0.0,0.0,0.0,0.0,0.0,0.0,0.0,0.0,0.0,0.0,0.0,0.0,0.0,0.0,0.0,0.0,0.0,0.0,0.0,0.0,0.0,0.0,0.0,0.0,0.0,0.0,0.0,0.0,0.0,0.0,0.0,0.0,0.0,0.0,0.0,0.0,0.0,0.0,0.0,0.0,0.0,0.0,0.4119,0.4365,0.4525,0.4548,0.4382,0.4137,0.3832,0.3269,0.2603,0.1828,0.0,0.0,0.0,0.0,0.0,0.0,0.0,0.0,0.0,0.0,0.0,0.0,0.0,0.0,0.0,0.0,0.0,0.0,0.0,0.0,0.0,0.0,0.0,0.0,0.0,0.0,0.0,0.0,0.0,0.0,0.0,0.0,0.0,0.0,0.0,0.0,0.0,0.0,0.0,0.0,0.0,0.0,0.0,0.0,0.0,0.0,0.0,0.0,0.0,0.0,0.0,0.0,0.0,0.0,0.0,0.0,0.0,0.0,0.0,0.0,0.0,0.0,0.0,0.0,0.0,0.0,0.0,0.0,0.0,0.0,0.0,0.0,0.0,0.0,0.0,0.0,0.0,0.0,0.0,0.0,0.0,0.0,0.0,0.0,0.0,0.0,0.0,0.0,0.0,0.0,0.0,0.0,0.0,0.0,0.0,0.0,0.0,0.0,0.0,0.0,0.0,0.0,0.3994,0.4242,0.4365,0.4226,0.4186,0.3999,0.3595,0.322,0.274,0.2022,0.0,0.0,0.0,0.0,0.0,0.0,0.0,0.0,0.0,0.0,0.0,0.0,0.0,0.0,0.0,0.0,0.0,0.0,0.0,0.0,0.0,0.0,0.0,0.0,0.0,0.0,0.0,0.0,0.0,0.0,0.0,0.0,0.0,0.0,0.0,0.0,0.0,0.0,0.0,0.0,0.0,0.0,0.0,0.0,0.0,0.0,0.0,0.0,0.0,0.0,0.0,0.0,0.0,0.0,0.0,0.0,0.0,0.0,0.0,0.0,1.4177,0.0,0.0,0.0,0.0,0.0,0.0,0.0,0.0,0.0,0.0,0.0,0.0,0.0,0.0,0.0,0.0,0.0,0.0,0.0,0.0,0.0,0.0,0.0,0.0,0.0,0.0,0.0,0.0,0.0,0.0,0.0,0.0,0.0,0.0,0.0,0.0,0.0,0.0,0.0,0.0,0.0,0.3994,0.4242,0.4394,0.4365,0.4159,0.3992,0.3908,0.3535,0.3098,0.2555,0.1998,0.0,0.0,0.0,0.0,0.0,0.0,0.0,0.0,0.0,0.0,0.0,0.0,0.0,0.0,0.0,0.0,0.0,0.0,0.0,0.0,0.0,0.0,0.0,0.0,0.0,0.0,0.0,0.0,0.0,0.0,0.0,0.0,0.0,0.0,0.0,0.0,0.0,0.0,0.0,0.0,0.0,0.0,0.0,0.0,0.0,0.0,0.0,0.0,0.0,0.0,0.0,0.0,0.0,0.0,0.0,0.0,0.0,0.0,0.0,0.0,1.3996,0.0,0.0,0.0,0.0,0.0,0.0,0.0,0.0,0.0,0.0,0.0,0.0,0.0,0.0,0.0,0.0,0.0,0.0,0.0,0.0,0.0,0.0,0.0,0.0,0.0,0.0,0.0,0.0,0.0,0.0,0.0,0.0,0.0,0.0,0.0,0.0,0.0,0.0,0.0,0.0,0.4097,0.4348,0.4494,0.4323,0.4185,0.4042,0.3926,0.3589,0.3252,0.2876,0.244,0.0,0.0,0.0,0.0,0.0,0.0,0.0,0.0,0.0,0.0,0.0,0.0,0.0,0.0,0.0,0.0,0.0,0.0,0.0,0.0,0.0,0.0,0.0,0.0,0.0,0.0,0.0,0.0,0.0,0.0,0.0,0.0,0.0,0.0,0.0,0.0,0.0,0.0,0.0,0.0,0.0,0.0,0.0,0.0,0.0,0.0,0.0,0.0,0.0,0.0,0.0,0.0,0.0,1.8395,1.8481,1.8481,1.8448,1.8524,1.8544,1.6786,1.5721,1.5155,1.3369,0.0,0.0,0.0,0.0,0.0,0.0,0.0,0.0,0.0,0.0,0.0,0.0,0.0,0.0,0.0,0.0,0.0,0.0,0.0,0.0,0.0,0.0,0.0,0.0,0.6847,0.6532,0.5801,0.0,0.0,0.0,0.0,0.0,0.0,0.0,0.0,0.0,0.0,0.0,0.4321,0.4601,0.4688,0.4387,0.4332,0.4218,0.3935,0.3677,0.3422,0.3134,0.2817,0.2453,0.0,0.0,0.0,0.0,0.0,0.0,0.0,0.0,0.0,0.0,0.0,0.0,0.0,0.0,0.0,0.0,0.0,0.0,0.0,0.0,0.0,0.0,0.0,0.0,0.0,0.0,0.0,0.0,0.0,0.0,0.0,0.0,1.6803,1.6367,0.0,0.0,0.0,0.0,0.0,0.0,0.0,0.0,0.0,0.0,0.0,0.0,0.0,1.6854,1.8423,1.8692,1.9187,1.9971,1.998,2.0024,2.0015,1.9904,1.9696,1.9497,1.9054,0.0,1.5886,1.5064,0.0,0.0,0.0,0.0,0.0,0.0,0.0,0.0,0.0,0.0,0.0,0.0,0.0,0.0,0.0,0.0,0.0,0.0,0.0,0.0,0.0,0.0,0.821,0.8396,0.8235,0.7939,0.0,0.6638,0.5786,0.5428,0.513,0.0,0.0,0.0,0.0,0.0,0.0,0.0,0.4734,0.5011,0.5144,0.4987,0.4877,0.4708,0.4436,0.4229,0.3923,0.3541,0.3361,0.3118,0.2759,0.2376,0.0,0.0,0.0,0.0,0.0,0.0,0.0,0.0,0.0,0.0,0.0,0.0,0.0,0.0,0.0,0.0,0.0,0.0,0.0,0.0,0.0,0.0,0.0,0.0,0.0,0.0,0.0,0.0,0.0,1.5558,1.6161,1.5883,1.4939,1.3909,0.0,0.0,0.0,0.0,0.0,0.0,0.0,0.0,0.0,1.5692,1.6492,1.7592,1.9071,1.9624,2.0166,2.0683,2.0823,2.0861,2.0853,2.0632,2.036,2.0098,1.9815,1.886,1.7466,1.6196,1.4617,1.2872,0.0,0.0,0.0,0.0,1.0021,0.9889,1.0142,1.0145,1.0054,0.9993,0.0,0.0,0.0,0.0,0.0,0.0,0.0,0.0,0.0,0.0,0.8888,0.9105,0.8877,0.8605,0.8539,0.7808,0.6935,0.0,0.5878,0.5659,0.5274,0.0,0.0,0.0,0.0,0.532,0.5218,0.5558,0.5675,0.5309,0.5283,0.5163,0.4801,0.4661,0.4491,0.424,0.3993,0.3744,0.3482,0.3113,0.2801,0.0,0.0,0.0,0.0,0.0,0.0,0.0,0.0,0.0,0.0,0.0,0.0,0.0,0.0,0.0,0.0,0.0,0.0,0.0,0.0,0.0,0.0,0.0,0.0,0.0,0.0,0.0,0.0,1.556,1.5862,1.5979,1.5238,1.4396,0.0,0.0,0.0,0.0,0.0,0.0,1.4371,1.4808,1.5553,1.6705,1.7399,1.8334,1.947,2.0054,2.057,2.0973,2.1201,2.129,2.1282,2.0931,2.0617,2.034,1.9991,1.9414,1.8694,1.7245,1.5813,1.4423,1.3244,1.2248,1.1472,1.1283,1.1108,1.1029,1.1189,1.1233,1.116,1.1128,1.0623,0.9905,0.9286,0.0,0.0,0.0,0.0,0.8589,0.8977,0.9282,0.9544,0.9763,0.9447,0.9133,0.9206,0.8693,0.7938,0.0,0.6664,0.6356,0.5906,0.0,0.0,0.0,0.5629,0.5827,0.5673,0.603,0.6096,0.5636,0.5628,0.5523,0.5148,0.5086,0.4996,0.4841,0.4608,0.4388,0.4167,0.3844,0.3532,0.3228,0.0,0.0,0.0,0.0,0.0,0.0,0.0,0.0,0.0,0.0,0.0,0.0,0.0,0.0,0.0,0.0,0.0,0.0,0.0,0.0,0.0,0.0,0.0,0.0,0.0,0.0,0.0,0.0,0.0,1.8023,1.6982,0.0,0.0,0.0,0.0,1.4156,1.4029,1.4629,1.6184,1.6513,1.7124,1.8088,1.8893,1.9483,1.9945,2.0179,2.0512,2.092,2.1167,2.132,2.1296,2.0908,2.0547,2.0265,1.98,1.9425,1.9107,1.8397,1.7038,1.5365,1.4577,1.3581,1.256,1.2806,1.2852,1.29,1.3226,1.3201,1.2883,1.2382,1.1242,1.0047,0.9894,0.9328,0.0,0.0,0.952,0.9719,1.0482,1.0612,1.0531,1.0616,1.0175,0.9691,0.9518,0.8992,0.8475,0.0,0.7341,0.6773,0.6744,0.0,0.5707,0.575,0.5946,0.6092,0.6069,0.6309,0.6382,0.6098,0.5967,0.578,0.5495,0.5544,0.544,0.5184,0.5216,0.514,0.4858,0.4587,0.4333,0.4131,0.3611,0.0,0.0,0.0,0.0,0.0,0.0,0.0,0.0,0.0,0.0,0.0,0.0,0.0,0.0,0.0,0.0,0.0,0.0,0.0,0.0,0.0,0.0,0.0,0.0,0.0,0.0,0.0,0.0,1.7422,1.6879,0.0,1.5823,1.504,1.482,1.5512,1.576,1.6309,1.7245,1.7603,1.7923,1.827,1.8724,1.9034,1.9163,1.9418,1.9579,1.9752,1.9852,1.9951,2.0126,1.9757,1.9638,1.9726,1.9461,1.9288,1.9217,1.929,1.8458,1.7151,1.6512,1.5599,1.4577,1.4364,1.4057,1.3739,1.3516,1.3376,1.3202,1.2622,1.199,1.1397,1.1176,1.0745,1.036,1.0379,1.0414,1.0472,1.0693,1.0823,1.0933,1.1064,1.0718,1.0322,1.0079,0.9556,0.9039,0.8742,0.816,0.7656,0.7473,0.6978,0.6602,0.6566,0.6597,0.6612,0.6612,0.6772,0.6746,0.6404,0.6312,0.6171,0.5859,0.5805,0.5703,0.5524,0.539,0.5251,0.5174,0.4815,0.4606,0.4525,0.4091,0.3798,0.0,0.0,0.0,0.0,0.0,0.0,0.0,0.0,0.0,0.0,0.0,0.0,0.0,0.0,0.0,0.0,0.0,0.0,0.0,0.0,0.0,0.0,0.0,0.0,0.0,1.7106,1.7834,1.7917,1.7749,1.7441,1.7066,1.6593,1.6572,1.7032,1.7362,1.7669,1.8116,1.8247,1.835,1.8467,1.8555,1.8595,1.8595,1.8742,1.8905,1.8962,1.9052,1.9241,1.947,1.9271,1.9265,1.9486,1.945,1.9509,1.9592,2.0011,1.9698,1.8944,1.8148,1.7273,1.6418,1.5815,1.5318,1.4833,1.4043,1.3598,1.3278,1.2803,1.2493,1.2262,1.2096,1.1683,1.1296,1.1209,1.1142,1.1087,1.1089,1.1169,1.1216,1.1209,1.0935,1.0583,1.029,0.9844,0.9416,0.9195,0.863,0.8145,0.7974,0.7566,0.7258,0.7235,0.7127,0.7041,0.7041,0.7032,0.6905,0.6533,0.6481,0.6332,0.6029,0.601,0.5951,0.5802,0.5702,0.5594,0.5496,0.5247,0.5075,0.4976,0.4621,0.4295,0.4039,0.0,0.0,0.0,0.0,0.0,0.0,0.0,0.0,0.0,0.0,0.0,0.0,0.0,0.0,0.0,0.0,0.0,0.0,0.0,0.0,0.0,0.0,0.0,1.8657,1.8724,1.914,1.9756,1.9703,1.952,1.9266,1.9114,1.8892,1.8669,1.866,1.8736,1.8825,1.8482,1.8445,1.8752,1.8452,1.8284,1.8277,1.8277,1.8375,1.8686,1.8924,1.921,1.9488,1.9407,1.9494,1.969,1.9858,2.0056,2.0331,2.0615,2.0708,2.0567,1.9325,1.8532,1.7921,1.708,1.6599,1.618,1.4917,1.3978,1.3254,1.2998,1.2733,1.2516,1.2516,1.2052,1.1591,1.1919,1.1745,1.1544,1.1789,1.167,1.1409,1.1062,1.0762,1.0492,1.0184,0.9883,0.9646,0.9439,0.8758,0.8238,0.8213,0.7886,0.765,0.7708,0.7491,0.0,0.7309,0.7089,0.6834,0.6566,0.6471,0.6327,0.6069,0.6158,0.6178,0.603,0.6208,0.619,0.5922,0.5922,0.5805,0.554,0.5282,0.4879,0.4375,0.0,0.0,0.0,0.0,0.0,0.0,0.0,0.0,0.0,0.0,0.0,0.0,0.0,0.0,0.0,0.0,0.0,0.0,0.0,0.0,0.0,1.9137,2.0257,1.954,2.0255,2.071,2.043,2.0374,2.022,1.9774,1.9525,1.9349,1.9315,1.8931,1.8736,1.8825,1.8482,1.8233,1.8086,1.7999,1.7838,1.7604,1.7549,1.7699,1.7998,1.8045,1.8416,1.8973,1.8971,1.9303,1.9841,2.0107,2.0273,2.0404,2.0833,2.0909,2.0692,1.9998,1.9386,1.8778,1.8054,1.6871,1.5568,1.4675,1.4051,1.3645,1.3411,1.3129,1.2868,1.2868,1.2475,1.1983,1.1881,1.1683,1.143,1.116,1.106,1.0948,1.0754,1.0551,1.0314,1.003,0.9812,0.961,0.9306,0.9073,0.8852,0.8677,0.8393,0.8176,0.8194,0.7948,0.0,0.7732,0.759,0.7461,0.7369,0.723,0.7045,0.6888,0.6819,0.6717,0.6587,0.6625,0.6573,0.6409,0.6301,0.6234,0.6157,0.6137,0.6026,0.0,0.0,0.0,0.0,0.0,0.0,0.0,0.0,0.0,0.0,0.0,0.0,0.0,0.0,0.0,0.0,0.0,0.0,0.0,0.0,0.0,0.0,2.0762,2.1871,2.1617,2.1887,2.181,2.1237,2.1191,2.0981,2.0344,2.0275,2.02,2.0007,1.9398,1.9035,1.8977,1.8399,1.8013,1.7823,1.7684,1.7523,1.7279,1.7279,1.7473,1.7861,1.7994,1.8411,1.9142,1.9242,1.9563,2.0142,2.0357,2.0492,2.0594,2.0874,2.0964,0.0,0.0,0.0,0.0,0.0,1.7169,1.5672,1.4992,1.4336,1.3752,1.3573,1.3251,1.2915,1.2915,1.2543,1.2049,1.1797,1.1521,1.1236,1.0826,1.0718,1.0668,1.0434,1.0298,1.0127,0.9838,0.9719,0.9582,0.9318,0.929,0.0,0.9008,0.8846,0.8704,0.8653,0.8446,0.8255,0.8214,0.7996,0.7814,0.7719,0.7594,0.7457,0.729,0.7224,0.0,0.0,0.0,0.6912,0.6773,0.664,0.0,0.0,0.0,0.6573,0.6478,0.0,0.0,0.0,0.4579,0.4515,0.0,0.0,0.0,0.0,0.0,0.0,0.0,0.0,0.0,0.0,0.0,0.0,0.0,0.0,0.0,0.0,2.2446,2.3691,2.4136,2.344,2.2663,2.2044,2.1952,2.1649,2.1015,2.1192,2.1116,2.0562,1.9988,1.9479,1.9125,1.8338,0.0,0.0,0.0,1.7466,1.7466,1.7466,1.7707,1.8226,1.845,1.8934,1.967,1.9861,2.0152,2.0446,2.0645,2.0763,2.0838,2.0859,2.087,2.0774,2.0564,2.0344,1.9919,1.856,1.7315,1.6275,1.561,0.0,0.0,1.3619,1.3218,1.2811,1.2811,1.2416,1.1899,1.1645,1.1366,1.1005,1.0674,1.0593,1.0512,1.0181,1.01,0.9999,0.9706,0.964,0.9621,0.9491,0.9465,0.9413,0.929,0.9237,0.9159,0.9035,0.8936,0.8812,0.8694,0.8403,0.8136,0.7889,0.0,0.0,0.7576,0.7527,0.7455,0.734,0.7315,0.7249,0.7133,0.6999,0.6932,0.696,0.6985,0.6953,0.6839,0.6756,0.6575,0.6259,0.555,0.505,0.0,0.0,0.0,0.0,0.0,0.0,0.0,0.0,0.0,0.0,0.0,0.0,0.0,0.0,0.0,2.1832,2.3443,2.4577,2.4735,2.4276,2.3535,2.2582,2.2243,2.1943,2.1707,2.1553,2.1246,2.0788,2.017,1.9511,1.8756,1.8494,1.8357,1.8357,1.8442,1.8504,1.8504,1.8357,1.8496,1.9004,0.0,0.0,1.9918,2.0183,2.0454,2.0706,2.0749,2.0819,2.0871,2.0876,2.0584,2.0061,1.987,1.9649,1.9315,1.8073,1.7278,1.6637,1.559,1.4887,1.4378,1.391,1.3325,1.2791,1.2791,1.2226,0.0,1.1533,1.1292,1.0938,1.0599,1.0516,1.0434,1.0095,1.0012,0.9997,0.9929,0.9914,0.9914,0.9895,0.9895,0.9844,0.9714,0.9427,0.9185,0.9159,0.9136,0.912,0.9075,0.902,0.8959,0.8901,0.8701,0.8579,0.8527,0.8339,0.8209,0.8183,0.8059,0.7981,0.7955,0.7786,0.7776,0.8003,0.8166,0.8275,0.829,0.822,0.7923,0.7361,0.6307,0.5692,0.0,0.0,0.0,0.0,0.0,0.0,0.0,0.0,0.0,0.0,0.0,1.816,1.9066,0.0,2.1737,2.3165,2.4309,2.504,2.5231,2.4946,2.4194,2.285,2.2612,2.2377,2.196,2.1913,2.1736,2.129,2.0706,2.0083,1.9533,1.9319,1.9217,1.9217,1.9392,1.9446,1.9363,1.9263,1.9309,1.9538,1.9591,1.9853,2.0368,2.051,2.0679,2.0847,2.0847,2.0814,2.0731,2.0517,2.0207,1.9835,1.9296,1.9129,1.9059,1.8241,1.7554,1.6864,1.5995,1.5267,1.4648,1.4201,1.3635,1.3086,1.2815,1.2388,1.1881,1.1505,1.1284,1.1079,1.0714,1.0593,1.0554,1.0381,1.036,1.036,1.036,1.036,1.0334,1.0257,1.0257,1.0231,1.0154,0.9973,0.9758,0.9532,0.955,0.9577,0.9506,0.9506,0.9446,0.9316,0.9185,0.9087,0.9008,0.8824,0.8666,0.8613,0.848,0.8368,0.8295,0.8209,0.8211,0.836,0.8448,0.8511,0.8537,0.8511,0.8312,0.7929,0.7269,0.6621,0.0,0.0,0.0,0.0,0.0,0.0,0.0,1.821,1.8928,1.8971,1.9336,2.0082,2.143,2.1889,2.2648,2.4412,2.5051,2.5406,2.56,2.5336,2.4671,2.3353,2.3171,2.2907,2.2309,2.2426,2.2382,2.1949,2.1415,2.0928,2.0572,2.0374,2.0249,2.0294,2.0512,2.0557,2.0385,2.0271,2.0183,2.0183,2.0131,2.0348,2.0723,2.0824,2.0923,2.0953,2.0866,2.0742,2.0526,2.0084,1.9811,1.9674,1.8987,1.8809,1.885,1.8398,1.7804,1.7092,1.6429,1.5625,1.487,1.4418,1.393,1.342,1.2925,1.2591,1.2284,1.1718,1.1509,1.1357,1.1022,1.0922,1.0922,1.0896,1.0896,1.0896,1.0896,1.0896,1.0871,1.0744,1.0718,1.0718,1.0718,1.0718,1.0539,1.0032,1.0032,1.0051,0.9947,0.9929,0.9844,0.9629,0.9543,0.9439,0.929,0.9159,0.9035,0.8936,0.8791,0.8679,0.8606,0.8606,0.8606,0.8633,0.8606,0.8606,0.8606,0.8527,0.8454,0.8301,0.8096,0.7498,1.6642,1.6357,1.6705,1.8104,1.813,1.8002,0.0,1.9721,2.0499,2.0626,2.1369,2.2286,2.3156,2.3538,2.4111,2.5205,2.5626,2.5757,2.5644,2.5182,2.4804,2.4681,2.4087,2.3668,2.3506,2.3302,2.3013,2.2621,2.23,2.188,2.1239,2.1401,2.1596,2.1765,2.2031,2.2129,2.2129,2.1546,2.124,2.124,2.0835,2.0699,2.0793,2.1026,2.1144,2.1139,2.0749,2.0539,2.0459,2.0009,1.9599,1.9284,1.9184,1.8898,1.847,1.7889,1.7626,1.7403,1.6453,1.5837,1.5362,1.4424,1.3888,1.3504,1.3166,1.2744,1.2422,1.2428,1.2193,1.1888,1.1778,1.1778,1.1753,1.1628,1.1603,1.1603,1.1603,1.1603,1.1578,1.1578,1.1578,1.1578,1.1578,1.1578,1.1301,1.0547,1.0419,1.0445,1.0419,1.0419,1.0419,1.0385,1.0102,0.9836,0.9562,0.9439,0.9335,0.9335,0.9211,0.9185,0.9283,0.9283,0.9335,0.9458,0.9354,0.9283,0.9283,0.9054,0.8857,0.8725,0.848,0.7928,1.7575,1.755,1.7869,1.909,1.9733,2.0199,2.0563,2.167,2.2579,2.2555,2.3018,2.3597,2.4092,2.4433,2.4887,2.555,2.6032,2.6229,2.5979,2.5511,2.5107,2.4889,2.4345,2.4012,2.4142,2.3971,2.3673,2.3354,2.3142,2.279,2.2378,2.2599,2.2775,2.2862,2.3125,2.3169,2.3038,2.2481,2.214,2.2012,2.1467,2.1175,2.1201,2.1204,2.1042,2.0755,2.0303,2.0076,2.0072,1.963,1.9349,1.9158,1.8897,1.8583,1.8236,1.7891,1.7596,1.7286,1.6565,1.6098,1.5635,1.4877,1.4533,1.4287,1.3541,1.3193,1.2994,1.2818,1.2653,1.2495,1.2397,1.2382,1.2348,1.2298,1.2274,1.2274,1.2274,1.2274,1.2249,1.2175,1.2175,1.2175,1.2175,1.2175,1.2051,1.1694,1.1402,1.12,1.12,1.12,1.115,1.0972,1.0693,1.0454,1.0275,1.0087,0.9958,0.988,0.9744,0.9684,0.9736,0.9744,0.9788,0.984,0.9788,0.971,0.964,0.951,0.9387,0.9263,0.908,0.8784,1.8193,1.8535,1.9036,2.0174,2.1199,2.2016,2.2206,2.3122,2.3905,2.3804,2.3851,2.4008,2.4294,2.4608,2.5025,2.5599,2.6075,2.6363,2.6343,2.5769,2.5304,2.509,2.4458,2.4269,2.4735,2.447,2.4235,2.4122,2.397,2.3787,2.3614,2.3787,2.3927,2.397,2.409,2.4143,2.397,2.3362,2.2954,2.2787,2.202,2.1678,2.1658,2.1446,2.1135,2.0798,2.0216,1.9936,1.9905,1.9492,1.9308,1.9257,1.8798,1.8486,1.8297,1.7911,1.751,1.7073,1.6557,1.6114,1.5681,1.5089,1.4805,1.4539,1.3734,1.3471,1.3412,1.3154,1.3089,1.3065,1.2934,1.2886,1.2886,1.2837,1.2837,1.2837,1.2837,1.2861,1.2861,1.2764,1.2788,1.2788,1.2764,1.2764,1.274,1.2715,1.2363,1.2067,1.1952,1.1927,1.1819,1.1569,1.1352,1.1175,1.1049,1.0837,1.0659,1.0557,1.0413,1.0354,1.0405,1.0405,1.0431,1.0482,1.0431,1.0354,1.02,1.0123,0.9994,0.9821,0.9692,0.9543,1.8748,1.9363,2.0291,2.1699,2.2337,2.2824,2.3481,2.3691,2.3771,2.3942,2.3591,2.3313,2.3688,2.3962,2.4397,2.5247,2.5639,2.6013,2.6535,2.5761,2.5284,2.5726,2.4726,2.4398,2.5381,2.488,2.4607,2.4829,2.4861,2.4861,2.4861,2.4861,2.4946,2.5158,2.5158,2.5158,2.5158,2.4214,2.3689,2.3477,2.2534,2.2084,2.2073,2.1824,2.1675,2.1611,2.0698,2.027,2.0239,1.9795,1.9593,1.9551,1.9073,1.8882,1.8754,1.7832,1.7286,1.6906,1.6326,1.581,1.5324,1.4797,1.4304,1.3882,1.351,1.3392,1.344,1.3549,1.3573,1.3549,1.342,1.3372,1.3348,1.3218,1.3194,1.3194,1.3194,1.329,1.3372,1.3372,1.3467,1.3515,1.3396,1.3372,1.3338,1.3194,1.316,1.2977,1.252,1.248,1.2397,1.2181,1.2116,1.2002,1.1877,1.1628,1.1452,1.1452,1.1259,1.1259,1.1444,1.1444,1.1528,1.1644,1.1528,1.1393,1.1242,1.093,1.0625,1.0377,1.0251,1.0038,2.0016,2.0821,2.1565,2.2268,2.3055,2.371,2.3808,2.3914,2.3899,2.3664,2.2806,2.2054,2.193,2.2496,2.3166,2.3792,2.4745,2.5661,2.6377,2.5803,2.5295,2.5346,2.4697,2.4524,2.5183,2.4927,2.4866,2.5348,2.5211,2.5115,2.5115,2.5115,2.5115,2.52,2.52,2.52,2.52,2.4573,2.4075,2.3697,2.2745,2.2131,2.1803,2.142,2.1083,2.0743,2.0115,1.9669,1.936,1.9201,1.8967,1.8648,1.8489,1.8285,1.8085,1.7763,1.7423,1.7077,1.669,1.6276,1.5777,1.5279,1.4804,1.4341,1.3944,1.3797,1.3821,1.3844,1.3868,1.3868,1.3821,1.3797,1.3797,1.3739,1.3739,1.3739,1.3739,1.3773,1.3797,1.3797,1.3844,1.3844,1.3821,1.3797,1.3773,1.3739,1.342,1.3146,1.2977,1.2886,1.2813,1.273,1.2666,1.2578,1.2431,1.2357,1.2249,1.2175,1.2101,1.2092,1.215,1.2076,1.2051,1.2101,1.1977,1.1828,1.1703,1.1569,1.1444,1.1267,1.1133,1.0981,2.1529,2.226,2.2887,2.3412,2.3888,2.4214,2.4007,2.3854,2.3572,2.298,2.1807,2.0799,2.0502,2.111,2.1902,2.2524,2.398,2.534,2.6259,2.5977,2.5734,2.5722,2.5202,2.5011,2.5442,2.5289,2.536,2.5779,2.5591,2.5464,2.5464,2.5464,2.5464,2.5464,2.5292,2.5282,2.5454,2.4648,2.3963,2.3502,2.288,2.2381,2.1908,2.141,2.0973,2.049,1.9834,1.9372,1.9134,1.9024,1.8848,1.8607,1.8493,1.8339,1.8176,1.7988,1.7807,1.7634,1.705,1.6437,1.586,1.5525,1.4978,1.439,1.4082,1.3997,1.3997,1.3997,1.3997,1.3997,1.3997,1.3997,1.3997,1.3997,1.3997,1.402,1.4057,1.4104,1.4161,1.4208,1.4255,1.4255,1.415,1.4057,1.3997,1.3997,1.3716,1.3491,1.3491,1.3406,1.3344,1.3344,1.3224,1.3113,1.3031,1.2934,1.2837,1.2754,1.2754,1.2754,1.2754,1.2681,1.2632,1.2632,1.2535,1.2437,1.2298,1.2298,1.2224,1.2051,1.1977,1.1803,2.324,2.3743,2.4241,2.505,2.4835,2.4341,2.4116,2.3526,2.2812,2.2008,2.0689,1.9583,1.9315,1.9797,2.0527,2.1507,2.3305,2.4978,2.6108,2.6309,2.6456,2.6799,2.6209,2.5899,2.6132,2.5971,2.5954,2.6238,2.6063,2.5937,2.5937,2.5915,2.5904,2.5904,2.5434,2.5401,2.5861,2.4432,2.3493,2.3071,2.3027,2.2754,2.2294,2.1837,2.1344,2.083,1.9876,1.95,1.9556,1.9223,1.9212,1.9315,1.9017,1.8975,1.9041,1.8546,1.8467,1.8494,1.7473,1.6477,1.5635,1.5496,1.4839,1.4067,1.4067,1.4067,1.4067,1.4067,1.4067,1.4067,1.4067,1.4067,1.4067,1.4067,1.4067,1.4104,1.4222,1.4373,1.4489,1.4627,1.4753,1.4753,1.4477,1.4221,1.4067,1.4067,1.4067,1.4044,1.3997,1.402,1.402,1.402,1.3787,1.3634,1.3634,1.3386,1.3242,1.3242,1.3266,1.3266,1.3266,1.3266,1.3266,1.3242,1.3242,1.3156,1.3031,1.3031,1.2934,1.2749,1.2749,1.2544,2.5026,2.5564,2.595,2.6053,2.5354,2.4449,2.381,2.286,2.1876,2.0964,1.9265,1.7876,1.7654,1.7834,1.8351,1.9338,2.1438,2.3571,2.5433,2.6295,2.694,2.7427,2.7186,2.7007,2.7058,2.6609,2.6508,2.6905,2.6633,2.6437,2.6437,2.6051,2.581,2.581,2.5309,2.5109,2.5232,2.4509,2.4163,2.4179,2.3439,2.2904,2.2582,2.2049,2.1335,2.0497,2.0268,1.9806,1.9217,1.9149,1.8987,1.8822,1.8822,1.8922,1.9045,1.909,1.9226,1.9291,1.8924,1.7765,1.65,1.645,1.5707,1.4811,1.4811,1.4811,1.4811,1.4811,1.4811,1.4811,1.4811,1.4811,1.4811,1.4811,1.4891,1.4983,1.5006,1.5108,1.5221,1.5266,1.5222,1.5131,1.4949,1.4857,1.4811,1.4811,1.4811,1.4605,1.4067,1.4104,1.4163,1.4163,1.4082,1.4059,1.4059,1.3905,1.3797,1.3797,1.3894,1.3954,1.3954,1.3954,1.3894,1.3797,1.3692,1.3573,1.3454,1.3454,1.343,1.3382,1.3382,1.3262,2.7281,2.7328,2.7045,2.6877,2.575,2.4366,2.3045,2.1965,2.0846,1.9492,1.793,1.6757,1.658,1.6857,1.7548,1.8842,2.1166,2.3598,2.5841,2.6988,2.7804,2.8502,2.8419,2.8198,2.8041,2.7688,2.7568,2.7742,2.7044,2.6502,2.6248,2.606,2.5841,2.5577,2.5265,2.5032,2.488,2.4845,2.4642,2.4294,2.3779,2.3236,2.2651,2.2393,2.1736,2.0785,0.0,2.0088,1.9436,1.9348,1.9225,1.916,1.9331,1.95,1.963,1.9773,1.9952,2.0131,2.0042,1.9208,1.808,1.7326,1.6503,1.5762,1.5482,1.5412,1.5412,1.5412,1.5412,1.5412,1.5412,1.5412,1.5412,1.5412,1.5457,1.5536,1.558,1.5669,1.5736,1.5814,1.5703,1.5558,1.5434,1.5367,1.53,1.5289,1.53,1.5164,1.4754,1.4697,1.472,1.4754,1.4663,1.4593,1.4593,1.4408,1.4326,1.4326,1.4432,1.4513,1.4513,1.457,1.4524,1.4396,1.4316,1.4199,1.4046,1.4046,1.3975,1.3871,1.3871,1.3752,2.9434,2.8781,2.7808,2.7557,2.6127,2.4245,2.2213,2.1069,1.9904,1.8025,1.6832,1.6117,1.596,1.6539,1.7475,1.8905,2.1467,2.4073,2.6348,2.7626,2.87,2.9682,2.9705,2.9484,2.9106,2.9028,2.8885,2.86,2.7539,2.6666,2.6086,2.6058,2.5869,2.5371,2.5312,2.5153,2.4862,2.5264,2.5004,2.4116,2.4121,2.3685,2.2887,2.2918,2.2407,2.1401,2.0932,2.047,2.0005,1.9829,1.9837,1.9978,2.022,2.0397,2.0523,2.0548,2.0709,2.0908,2.0908,2.06,1.9951,1.8285,1.7408,1.6895,1.6384,1.6166,1.6118,1.6118,1.6047,1.5986,1.5986,1.5986,1.5986,1.5986,1.5986,1.603,1.6151,1.6185,1.6228,1.6328,1.625,1.6129,1.6008,1.5888,1.579,1.5724,1.579,1.5822,1.5822,1.5568,1.5446,1.5568,1.5367,1.5232,1.5232,1.5005,1.4858,1.4858,1.4983,1.5062,1.5062,1.521,1.521,1.5062,1.5062,1.496,1.4731,1.4731,1.4616,1.4362,1.4339,1.4233,2.9892,2.9454,2.8721,2.8123,2.6524,2.4464,2.1955,2.0764,1.9624,1.7678,1.6533,1.5826,1.5691,1.6441,1.7106,1.7176,1.9959,2.2734,2.4593,2.667,2.8605,3.0237,3.0708,3.0822,3.0558,3.0241,2.9745,2.9051,2.8647,2.8125,2.7406,2.6548,2.5946,2.5577,2.5705,2.5737,2.5674,2.5401,2.5234,2.5206,2.4555,2.4254,2.4231,2.394,2.3164,2.2124,2.2034,0.0,2.064,2.0624,2.0671,2.082,2.097,2.1033,2.1106,2.1313,2.141,2.1458,2.1458,2.139,2.1128,1.994,1.9118,1.8591,1.8487,1.8102,1.7695,1.7695,1.7338,1.6955,1.6955,1.6955,1.6955,1.6955,1.6993,1.7063,1.7063,1.716,1.7214,1.7139,1.7084,1.7055,1.6976,1.6934,1.6913,1.6913,1.6913,1.6942,1.7001,1.6395,1.5974,1.5983,1.594,1.593,1.593,1.5732,1.5611,1.5611,1.5798,1.5896,1.5896,1.6129,1.6151,1.5896,1.5896,1.5732,1.5434,1.5434,1.5367,1.5255,1.5165,1.5074,3.0376,3.0199,2.9737,2.8646,2.7069,2.497,2.1676,2.0303,1.9075,1.6744,1.5887,1.5498,1.5326,1.6207,1.7079,1.7512,2.0047,2.2824,2.5241,2.7257,2.9172,3.0994,3.1473,3.1603,3.1394,3.1196,3.076,2.9952,2.9518,2.8762,2.7459,2.6828,2.6552,2.6586,2.6464,2.6411,2.6511,2.5993,2.5634,2.5432,2.514,2.4889,2.4701,2.4585,2.387,2.2778,2.2778,2.2137,2.1104,2.1177,2.1251,2.1323,2.1458,2.152,2.1544,2.1664,2.1746,2.1817,2.1902,2.1973,2.1885,2.1098,2.0393,1.9735,1.9097,1.87,1.8406,1.8078,1.7797,1.7563,1.7563,1.7303,1.7043,1.7043,1.707,1.719,1.7551,1.7672,1.7693,1.7618,1.7618,1.7578,1.7475,1.7455,1.7434,1.7372,1.7413,1.7475,1.7489,1.7271,1.7029,1.6854,1.6756,1.6735,1.6735,1.66,1.6505,1.6441,1.6591,1.6642,1.6566,1.6752,1.6774,1.6566,1.6578,1.6441,1.6173,1.6173,1.6064,1.581,1.5744,1.5645,3.0736,3.0815,3.0498,2.9053,2.7575,2.5469,2.1565,2.0016,1.8676,1.6007,1.5388,1.5298,1.5103,1.6039,1.7093,1.7782,1.9964,2.2554,2.5389,2.7304,2.9226,3.1368,3.2012,3.2244,3.22,3.2055,3.1644,3.0823,3.0144,2.9048,2.737,2.7117,2.7155,2.7466,2.7029,2.6865,2.7005,2.6462,2.5972,2.5593,2.5648,2.5385,2.4899,2.501,2.4422,2.3255,2.3255,2.2652,2.1688,2.1769,2.1793,2.1817,2.1926,2.1973,2.1973,2.1973,2.2044,2.2109,2.2076,2.2149,2.2141,2.1604,2.1159,2.0598,1.9539,1.9113,1.8886,1.8419,1.8185,1.8089,1.8089,1.7699,1.7309,1.7309,1.7213,1.7295,1.7952,1.8089,1.8089,1.8089,1.8089,1.8055,1.7962,1.7928,1.7888,1.7787,1.7868,1.7928,1.7928,1.8068,1.8068,1.7808,1.7571,1.7456,1.7456,1.7393,1.7323,1.7193,1.731,1.7318,1.7222,1.7352,1.7352,1.7222,1.7201,1.7131,1.69,1.69,1.674,1.6395,1.6373,1.6265,3.0685,3.1065,3.0676,2.9295,2.7845,2.5734,2.1767,2.0202,1.8832,1.6128,1.5536,1.5433,1.5298,1.6263,1.6886,1.6313,1.8295,2.0606,2.2619,2.4984,2.767,3.0697,3.2103,3.2988,3.3395,3.2881,3.2188,3.1403,3.0271,2.9128,2.7987,2.7546,2.7367,2.7399,2.6947,2.6729,2.6742,2.6326,2.6145,2.6193,2.5995,2.5627,2.517,2.5301,2.4657,2.3473,2.3473,2.3089,0.0,2.2486,2.2509,2.2509,2.2509,2.2532,2.2532,2.2532,2.2532,2.246,2.1867,2.1668,2.159,2.1047,2.1169,2.1388,2.0741,2.0095,1.9612,1.9541,1.9148,1.8726,1.8726,1.8664,1.8622,1.8622,1.8209,1.7982,1.8579,1.8726,1.8726,1.8726,1.8726,1.8707,1.8707,1.8707,1.8688,1.8688,1.8688,1.8707,1.8707,1.8726,1.8707,1.8688,1.8226,1.7928,1.7928,1.7875,1.7842,1.7808,1.7882,1.7908,1.7908,1.8036,1.8036,1.7908,1.7908,1.7808,1.7605,1.7605,1.7537,1.7359,1.725,1.7139,2.9769,3.0515,3.0595,3.0017,2.8471,2.6153,2.2498,2.0764,1.9112,1.6308,1.5712,1.5624,1.5448,1.6134,1.6626,1.63,1.7699,1.9643,2.1881,2.399,2.6451,2.9644,3.1057,3.1974,3.2501,3.2331,3.1886,3.1197,2.9992,2.9118,2.8691,2.8421,2.813,2.7712,2.7291,2.7057,2.7057,2.6147,2.5711,2.5751,2.5249,2.4901,2.471,2.4761,2.4375,2.3617,2.3617,2.329,0.0,2.2791,2.2791,2.2791,2.2791,2.2836,2.2838,2.2461,2.2323,2.2265,2.1668,2.147,2.1389,2.0846,2.0817,2.0898,2.0428,2.0088,1.98,1.9445,1.9199,1.9053,1.9053,1.8815,1.8608,1.8524,1.8317,1.8299,1.8863,1.9011,1.9053,1.9053,1.9105,1.9157,1.9157,1.9157,1.9157,1.9157,1.9157,1.9157,1.9157,1.9157,1.9124,1.9053,1.8712,1.8481,1.8481,1.8456,1.8411,1.838,1.8406,1.8386,1.8293,1.8274,1.824,1.8187,1.8135,1.8075,1.7996,1.7996,1.7935,1.7787,1.7747,1.77,2.9037,3.0112,3.0457,3.013,2.8442,2.6041,2.2775,2.076,1.8877,1.6425,1.5899,1.5827,1.5653,1.5995,1.6291,1.6183,1.7256,1.8819,2.0945,2.2939,2.5257,2.8104,2.9766,3.0943,3.1576,3.1821,3.1694,3.1061,2.9995,2.9289,2.9102,2.8813,2.8397,2.7797,2.7367,2.7034,2.6861,2.5986,2.544,2.5279,2.4805,2.4499,2.4336,2.4384,2.4124,2.3632,2.3655,2.3462,0.0,2.3113,2.3135,2.3143,2.2944,2.2944,2.2985,2.2327,2.2102,2.2101,2.154,2.1335,2.125,2.0722,2.0548,2.0493,2.0232,2.0062,1.9864,1.9461,1.942,1.9464,1.95,1.9128,1.8747,1.8822,1.8686,1.8696,1.9251,1.942,1.9464,1.9464,1.9566,1.9654,1.9654,1.9654,1.9654,1.9654,1.9654,1.9636,1.9599,1.9599,1.9563,1.9442,1.9273,1.9068,1.8898,1.8879,1.8874,1.8827,1.8827,1.8774,1.8678,1.8586,1.8553,1.8553,1.8489,1.8464,1.8464,1.8464,1.8411,1.8324,1.8299,1.8214,2.8721,3.0051,3.021,2.9411,2.7547,2.5174,2.2346,1.9949,1.7915,1.6485,1.6137,1.6069,1.5928,1.59,1.5842,1.5639,1.6722,1.8026,1.9266,2.1677,2.4025,2.5918,2.8441,3.0264,3.094,3.1617,3.175,3.1146,3.0454,2.9792,2.9156,2.8481,2.7913,2.7518,2.6977,2.6434,2.5814,2.5785,2.5527,2.5009,2.4995,2.4716,2.4225,2.434,2.4067,2.3524,2.3581,2.361,0.0,2.3595,2.3674,2.3721,2.3062,2.2894,2.2919,2.2245,2.203,2.2018,2.1409,2.1197,2.1108,2.0574,2.0393,2.0409,2.0492,2.017,1.9821,1.9955,2.0028,2.01,2.0156,1.9749,1.9425,1.9949,1.9567,1.9259,1.9856,2.0028,2.0083,2.0083,2.0154,2.0191,2.0191,2.0191,2.0191,2.0191,2.0191,2.0172,2.01,2.0083,2.0063,1.999,1.9988,1.9759,1.9139,1.9101,1.9101,1.9101,1.9101,1.9101,1.9082,1.9082,1.9082,1.9082,1.9082,1.9082,1.9082,1.9082,1.9082,1.9082,1.9017,1.8822,2.5528,2.6386,2.6473,2.6675,2.5515,2.3677,2.1231,1.9729,1.8415,1.6799,1.645,1.6396,1.6275,1.6234,1.6331,1.6633,1.7471,1.8442,1.9516,2.1575,2.347,2.483,2.7361,2.9434,3.0675,3.0571,3.0582,3.0947,2.9913,2.9192,2.8967,2.7986,2.737,2.7305,2.678,2.6415,2.6283,2.5453,2.5005,2.4926,2.4507,2.4236,2.407,2.4141,2.3864,2.3335,2.3901,2.3646,2.2893,2.3389,2.3332,2.2886,2.2728,2.275,2.2789,2.2198,2.2071,2.208,2.1483,2.1261,2.1245,2.1071,2.1023,2.1039,2.1087,2.0713,2.0325,2.0494,2.0596,2.0663,2.0715,2.0606,2.0494,2.0633,2.049,2.038,2.0514,2.0596,2.0647,2.0647,2.0697,2.0747,2.0747,2.0747,2.0747,2.0747,2.0747,2.0731,2.0714,2.0714,2.0681,2.0629,2.0629,2.0376,1.9777,1.9723,1.9723,1.9723,1.9723,1.9723,1.9723,1.9639,1.9588,1.9588,1.953,1.9508,1.9508,1.9508,1.9457,1.9365,1.9347,1.9217,2.3417,2.4149,2.4164,2.4505,2.3555,2.2096,2.0372,1.9172,1.8126,1.7059,1.7023,1.7082,1.6668,1.6815,1.7011,1.7001,1.8032,1.8951,1.9294,2.1506,2.3737,2.55,2.7176,2.8865,3.054,3.0312,3.0289,3.0781,2.9812,2.9077,2.8817,2.7871,2.7231,2.7016,2.66,2.6292,2.6082,2.5386,2.4948,2.4768,2.4413,2.4117,2.3897,2.3947,2.3661,2.3172,2.3709,2.3507,0.0,2.3304,2.3243,2.2851,2.2619,2.263,2.2689,2.2101,2.1956,2.2004,2.1626,2.1478,2.1478,2.1478,2.1508,2.1539,2.1615,2.1276,2.091,2.1087,2.1166,2.1214,2.1276,2.1307,2.1276,2.1214,2.1198,2.1182,2.1087,2.1151,2.1198,2.1198,2.1261,2.1307,2.1307,2.1307,2.1307,2.1307,2.1307,2.1291,2.1276,2.1261,2.1229,2.1135,2.1135,2.0974,2.0597,2.0409,2.0289,2.0289,2.0289,2.0289,2.0289,2.0222,2.0189,2.0189,2.0152,2.0083,2.0048,2.0013,1.9942,1.9839,1.9839,1.9699,0.0,2.2948,2.2863,2.268,2.1635,2.0453,1.9641,1.836,0.0,1.724,1.7796,1.8042,1.7171,1.7675,1.7926,1.7122,1.8636,1.9671,1.8901,2.1602,2.4699,2.7442,2.7786,2.8545,3.0535,3.0676,3.066,3.066,3.0045,2.9342,2.8584,2.7974,2.7362,2.6732,2.6495,2.6091,2.548,2.5555,2.5295,2.469,2.4628,2.4308,2.3761,2.3793,2.3494,0.0,2.3173,2.3228,2.3201,2.325,2.3318,2.3321,2.2638,2.2475,2.2569,2.1957,2.1768,2.1827,2.1842,2.1857,2.1857,2.1855,2.1913,2.1986,2.2041,2.1807,2.1569,2.1693,2.1739,2.1769,2.1812,2.1842,2.1827,2.1753,2.1738,2.1723,2.16,2.1661,2.1754,2.1754,2.1797,2.1827,2.1842,2.1842,2.1827,2.1842,2.1842,2.1812,2.1754,2.1739,2.1693,2.1569,2.1554,2.1521,2.1472,2.1038,2.0764,2.0764,2.0717,2.0685,2.0701,2.0701,2.0685,2.0685,2.0685,2.0636,2.0568,2.0501,2.0465,2.0461,2.0461,2.0277,1.9464,0.0,2.0113,2.0022,1.9718,1.92,0.0,1.787,1.7567,1.7451,1.8502,1.917,1.8352,1.926,2.0042,1.9722,2.102,2.1759,2.0873,2.2777,2.5351,2.8212,2.8549,2.916,3.076,3.0483,3.0184,3.0245,2.9572,2.8844,2.8091,2.7437,2.7025,2.6866,2.6367,2.6115,2.6145,2.5794,2.5596,2.5586,2.4984,2.4612,2.4452,2.4003,2.342,2.2802,2.3457,2.3129,2.2189,2.2766,2.2683,2.2186,2.2065,2.2044,2.2104,2.2089,2.2097,2.2125,2.2223,2.229,2.236,2.247,2.2535,2.2588,2.2615,2.2309,2.1953,2.194,2.2032,2.2152,2.212,2.2178,2.2265,2.2251,2.2262,2.2304,2.226,2.2248,2.2237,2.2237,2.2163,2.212,2.218,2.2135,2.212,2.218,2.218,2.218,2.2152,2.2152,2.2152,2.2123,2.2106,2.1854,2.125,2.0759,2.0496,2.0496,1.9963,1.9628,1.9572,1.9572,1.9557,1.9497,1.9497,1.977,2.0284,2.0285,2.0527,2.1006,2.1006,2.0893,1.9207,1.9077,1.8845,1.8719,1.8664,1.8488,1.8007,1.8155,1.837,1.8267,1.9465,2.0293,1.9471,2.0265,2.0881,2.0434,2.1537,2.2578,2.2997,2.3752,2.5095,2.7303,2.7562,2.8138,2.9615,2.9128,2.9005,2.9736,2.9095,2.8372,2.7629,2.7221,2.6914,2.6623,2.5984,2.5808,2.6211,2.5987,2.5737,2.5482,2.5053,2.4527,2.3902,2.3588,2.309,2.2488,2.2933,2.2725,2.2109,2.254,2.2502,2.2175,2.2229,2.2271,2.2271,2.2388,2.2432,2.2446,2.2555,2.2409,2.2138,2.1881,2.1857,2.1994,2.241,2.2089,2.1708,2.2231,2.2426,2.2487,2.2484,2.2525,2.2579,2.2619,2.2659,2.2685,2.2685,2.2659,2.2619,2.2579,2.2525,2.2484,2.2487,2.247,2.2497,2.2511,2.2569,2.2582,2.2582,2.2582,2.2582,2.2582,2.224,2.1837,2.1366,2.045,1.9963,2.0171,1.9772,1.9517,1.9493,1.9479,1.9463,1.9422,1.9367,1.9535,1.9927,1.987,2.0022,2.0383,2.0708,2.0792,1.9993,1.9523,1.8757,1.8655,1.8617,1.8575,1.8515,1.8982,1.9407,1.9367,2.0556,2.1396,2.0587,2.1144,2.1481,2.0794,2.1674,2.3152,2.5179,2.4896,2.498,2.6393,2.6576,2.7075,2.832,2.7871,2.799,2.9121,2.8519,2.7769,2.704,2.6889,2.6594,2.6082,2.5464,2.5363,2.584,2.5893,2.5611,2.4979,2.4863,2.4197,2.3123,2.3023,2.2712,2.2268,2.2268,0.0,2.2289,2.234,2.2407,2.247,2.2535,2.263,2.2747,2.2747,2.2747,2.2743,2.2699,2.226,2.1593,2.0984,2.0861,2.1104,2.1843,2.1587,2.1281,2.2438,2.2677,2.2647,2.2833,2.2889,2.2914,2.299,2.3003,2.3015,2.3015,2.3003,2.296,2.2914,2.2889,2.285,2.2803,2.2829,2.2881,2.2889,2.294,2.2977,2.299,2.299,2.2925,2.282,2.218,2.165,2.1352,2.0124,1.9447,1.9679,1.9593,1.9529,1.9504,1.9504,1.9491,1.9491,1.9388,1.9386,1.9502,1.9365,1.9378,1.9493,2.012,2.0422,2.0098,2.0155,2.0129,2.0553,2.0527,2.037,2.0322,2.0388,2.0477,2.0465,2.1647,2.2438,2.1682,2.2664,2.3527,2.3348,2.3966,2.521,2.7334,2.6995,2.708,2.8559,2.8711,2.8813,2.9034,2.8949,2.8728,2.832,2.7623,2.6876,2.6145,2.545,2.5058,2.5031,2.4912,2.4927,2.506,2.4863,2.478,2.4813,2.4196,2.3813,2.3659,2.3042,2.2695,2.2619,0.0,2.228,2.1724,2.1737,2.1811,2.1917,2.1929,2.2396,2.3047,2.3047,2.3047,2.2954,2.24,2.1773,2.1192,2.1151,2.1187,2.1265,2.1401,2.1347,2.1426,2.2292,2.2376,2.2347,2.3029,2.3301,2.3394,2.3416,2.3444,2.3477,2.3477,2.3444,2.3405,2.3394,2.3301,2.3218,2.3217,2.318,2.3193,2.3289,2.3313,2.3318,2.3329,2.3329,2.3069,2.2378,2.22,2.1575,2.0194,1.9804,1.937,1.8759,1.8482,1.8307,1.8206,1.8138,1.8103,1.8103,1.808,1.8372,1.9016,1.8938,1.9203,1.9809,1.9877,2.0206,2.0276,2.0747,2.1224,2.1913,2.1584,2.111,2.1035,2.132,2.1607,2.1534,2.2406,2.3069,2.2681,2.3525,2.4506,2.525,2.5593,2.6242,2.7588,2.7438,2.7303,2.7561,2.7579,2.7718,2.8081,2.7411,2.7121,2.7568,2.6539,2.5733,2.5375,2.5028,2.4883,2.4913,2.4585,2.4445,2.4514,2.4087,2.4019,2.4304,2.4016,2.3677,2.3288,2.3011,2.2868,2.2833,0.0,2.2096,2.1785,2.1423,2.1328,2.1434,2.1472,2.1994,2.2713,2.2713,2.2736,2.262,2.1424,2.0868,2.0604,2.0246,2.0155,2.0316,2.0779,2.0615,2.0515,2.1734,2.2154,2.2464,2.3287,2.3558,2.3505,2.3116,2.3375,2.3595,2.3151,2.3382,2.3649,2.3613,2.3558,2.3495,2.3468,2.3468,2.3491,2.3558,2.3221,2.2973,2.2977,2.2589,2.2183,2.1806,2.1375,2.0816,2.0079,1.9584,1.9059,1.8426,1.8277,1.8184,1.8114,1.81,1.8078,1.8078,1.8018,1.8174,1.8466,1.8399,1.8529,1.8831,1.92,1.9715,2.0443,2.1199,2.1941,2.2749,2.2473,2.1975,2.1922,2.2476,2.2927,2.2618,2.3205,2.3689,2.3471,2.4219,2.5214,2.626,2.6707,2.7063,2.7554,2.7567,2.7313,2.6685,2.6458,2.6536,2.7022,2.5912,2.562,2.6734,2.5559,2.478,2.478,2.4663,2.4618,2.4642,2.42,2.3987,2.4045,2.362,2.3536,2.3807,2.3855,2.3595,2.306,2.3109,2.3045,2.2822,2.2259,2.1829,2.1514,2.0997,2.083,2.0928,2.097,2.1486,2.2219,2.2219,2.2141,2.1865,2.0626,2.0154,1.9996,1.9451,1.9292,1.9471,2.0146,1.9914,1.9722,2.1093,2.1744,2.221,2.3025,2.3368,2.3361,2.2821,2.3305,2.3733,2.3113,2.345,2.3858,2.3806,2.3795,2.3774,2.3703,2.358,2.3485,2.3513,2.2874,2.2386,2.2414,2.186,2.1424,2.1216,2.0644,2.0182,1.9984,1.9397,1.8869,1.8508,1.843,1.8391,1.8391,1.8381,1.8371,1.8371,1.832,1.828,1.8222,1.8149,1.8082,1.8031,1.858,1.9255,2.0573,2.1331,2.2085,2.2882,2.3417,2.3733,2.3704,2.4269,2.4588,2.3847,2.4317,2.465,2.3908,2.4985,2.5985,2.5947,2.7152,2.8047,2.7968,2.7954,2.7936,2.7883,2.7213,2.6747,2.6731,2.6016,2.5597,2.572,2.4909,2.4446,2.4446,2.3788,2.3484,2.3607,2.3565,2.3586,2.3645,2.3657,2.362,2.3529,2.3539,2.3542,2.3544,2.3544,2.3156,2.2436,2.2382,2.1552,2.0235,2.0173,2.0246,2.0363,2.0363,2.0889,2.1653,2.1653,2.1224,2.0629,2.0506,2.0034,1.9474,1.9472,1.9479,1.9496,1.9559,1.9573,1.9762,2.0626,2.0889,2.105,2.1677,2.2401,2.2959,2.2969,2.3592,2.4152,2.4097,2.4134,2.4151,2.4084,2.4074,2.4054,2.3986,2.3365,2.2883,2.2958,2.2283,2.1789,2.186,2.1813,2.1456,2.0651,2.0505,2.0142,1.9348,1.917,1.9084,1.9045,1.8807,1.8678,1.8678,1.8604,1.8576,1.8576,1.8566,1.8574,1.8563,1.8495,1.8426,1.8355,1.8349,1.907,2.0712,2.1465,2.2229,2.3015,2.373,2.4457,2.5366,2.5782,2.618,2.6852,2.6421,2.567,2.4837,2.5561,2.6588,2.7495,2.8484,2.9134,2.9107,2.9053,2.8636,2.7681,2.7292,2.689,2.6331,2.5551,2.5105,2.5105,2.4361,2.3897,2.3897,2.3685,2.3569,2.3624,2.3718,2.3771,2.3785,2.3896,2.3945,2.3943,2.3764,2.3703,2.3724,2.3774,2.334,2.257,2.2093,2.1288,2.0254,1.9798,1.9638,1.974,2.0327,2.0745,2.1048,2.1048,2.0862,2.0544,2.0051,1.9719,1.9533,1.9557,1.9599,1.9621,1.9623,1.9662,1.9788,2.008,2.0185,2.0443,2.1591,2.2484,2.2973,2.2481,2.3359,2.42,2.3692,2.3969,2.4321,2.4284,2.4302,2.4118,2.3593,2.3252,2.2866,2.2359,2.1596,2.1081,2.1105,2.0681,2.0231,1.9918,1.9881,1.9737,1.9412,1.936,1.9352,1.9355,1.9104,1.8949,1.8949,1.8923,1.8896,1.8861,1.8861,1.8825,1.8788,1.876,1.8668,1.8544,1.9019,1.9717,2.1262,2.2012,2.2704,2.3229,2.3915,2.4929,2.6695,2.7066,2.7261,2.8062,2.7354,2.6295,2.5427,2.5909,2.6874,2.8179,2.8785,2.9074,2.9141,2.9072,2.8509,2.72,2.6819,2.6434,2.581,2.5039,2.4574,2.4574,2.41,2.3795,2.3795,2.3827,2.3858,2.385,2.3978,2.4027,2.4066,2.4153,2.4219,2.4247,2.4078,2.3989,2.3949,2.3752,2.3214,2.241,2.1651,2.0863,2.0075,1.9599,1.9387,1.9468,2.0093,2.0356,2.0356,2.037,2.0385,2.0307,1.9785,1.9614,1.966,1.9662,1.9707,1.9763,1.9757,1.9817,1.9853,1.986,1.986,2.01,2.11,2.1917,2.234,2.1779,2.2904,2.3936,2.3375,2.3915,2.4493,2.4458,2.4458,2.4207,2.3374,2.3015,2.2571,2.171,2.0904,2.0378,2.0378,1.9896,1.9562,1.9562,1.9562,1.9562,1.9562,1.9562,1.9562,1.9562,1.939,1.9266,1.9194,1.917,1.9137,1.9104,1.906,1.9036,1.8949,1.8949,1.8861,1.8715,1.9526,2.0238,2.2294,2.3051,2.3601,2.354,2.4069,2.5246,2.7653,2.8094,2.7766,2.6991,2.6765,2.6456,2.5578,2.6072,2.6848,2.7588,2.7705,2.7705,2.7705,2.7705,2.7405,2.6582,2.5798,2.5272,2.5199,2.4521,2.4103,2.4103,2.417,2.4199,2.4199,2.4199,2.42,2.4201,2.4266,2.4339,2.4403,2.4409,2.4398,2.4398,2.4398,2.4364,2.4257,2.3463,2.2659,2.1844,2.1047,2.0256,1.9518,1.9576,1.9592,1.9596,1.9596,1.9596,1.9614,1.968,1.9693,1.9706,1.9782,1.9807,1.9806,1.9803,1.9857,1.9909,1.9907,1.9953,2.0009,1.9996,2.0006,2.0006,2.0006,2.045,2.0889,2.0909,2.217,2.3382,2.3382,2.408,2.4654,2.4596,2.4588,2.4292,2.3433,2.2622,2.1827,2.1013,2.0216,1.9693,1.9693,1.9693,1.9693,1.9693,1.9693,1.9693,1.9693,1.9693,1.9693,1.9693,1.9693,1.9613,1.9405,1.9347,1.9308,1.9308,1.9235,1.917,1.9113,1.9113,1.9053,1.894,1.975,2.0512,2.3241,2.4024,2.4738,2.5319,2.5565,2.6159,2.8058,2.8296,2.8218,2.857,2.8582,2.8093,2.6641,2.7044,2.7659,2.7877,2.8433,2.8602,2.8012,2.7941,2.7463,2.6105,2.5735,2.5328,2.4709,2.445,2.4311,2.4311,2.432,2.4329,2.4329,2.4329,2.4355,2.4418,2.4426,2.4469,2.4545,2.4543,2.4556,2.4612,2.4612,2.4225,2.3513,2.3324,2.2468,2.112,2.0915,2.0378,1.9653,1.9699,1.9738,1.9744,1.9787,1.9817,1.9817,1.9829,1.9841,1.9834,1.9851,1.9896,1.9944,1.9936,2.0,2.0044,2.0049,2.0098,2.0131,2.0141,2.0141,2.0141,2.0141,2.025,2.047,2.1056,2.1991,2.2773,2.276,2.2975,2.3139,2.3133,2.3126,2.2861,2.2035,2.1664,2.1185,2.0397,2.0015,1.9834,1.9834,1.9841,1.9835,1.9835,1.9793,1.9775,1.9775,1.9775,1.9775,1.9775,1.9775,1.9695,1.9553,1.9525,1.9475,1.9376,1.9361,1.9591,2.0077,2.0077,2.0328,2.0825,2.1579,2.2019,2.466,2.5209,2.5685,2.6199,2.6253,2.6527,2.7885,2.851,2.8924,2.9381,2.9451,2.9,2.766,2.7798,2.8214,2.8548,2.8484,2.8197,2.7677,2.7362,2.6712,2.5418,2.5251,2.5064,2.453,2.451,2.4526,2.4524,2.4548,2.4556,2.4556,2.4556,2.4591,2.4615,2.4647,2.4685,2.4731,2.476,2.4778,2.4814,2.4814,2.4153,2.2921,2.2903,2.2177,2.0911,2.062,2.0233,1.9817,1.9866,1.9892,1.9923,1.9963,1.9974,1.9974,1.9979,1.9984,1.9971,2.001,2.0059,2.0074,2.0084,2.0117,2.0135,2.0144,2.0167,2.0208,2.0231,2.024,2.0248,2.0248,2.0205,2.0295,2.0742,2.1485,2.2076,2.2105,2.2353,2.2577,2.2585,2.2585,2.2313,2.1488,2.1306,2.0996,2.0158,2.001,1.9976,1.9976,1.999,1.9984,1.9984,1.9944,1.9928,1.9918,1.9912,1.9912,1.9882,1.9882,1.9838,1.9763,1.9707,1.9635,1.9523,1.9527,1.9726,2.0129,2.0122,2.0341,2.0784,2.1852,2.2319,2.621,2.6466,2.6524,2.6518,2.6587,2.684,2.7563,2.8771,2.9707,2.9653,2.9626,2.9392,2.8596,2.8437,2.8652,2.9307,2.8138,2.7091,2.6941,2.6306,2.5539,2.4722,2.4629,2.4645,2.4639,2.4696,2.4727,2.4727,2.4771,2.4818,2.4818,2.4818,2.4818,2.4825,2.4888,2.4922,2.4929,2.4987,2.5019,2.5019,2.5019,2.4181,2.262,2.242,2.1847,2.0978,2.0242,1.996,2.0016,2.0016,2.0055,2.0103,2.0103,2.0103,2.0108,2.0117,2.0117,2.0131,2.0187,2.0201,2.0205,2.0212,2.0205,2.021,2.0215,2.0204,2.0227,2.0296,2.0315,2.0315,2.0315,2.031,2.0283,2.0229,2.0765,2.1316,2.1382,2.1976,2.248,2.2474,2.2488,2.223,2.1445,2.1306,2.1039,2.0241,2.0126,2.0126,2.0126,2.0102,2.0102,2.0102,2.0102,2.0108,2.0103,2.0103,2.0074,2.0021,2.0016,2.002,2.0009,1.989,1.9795,1.9713,1.9713,1.9712,1.9746,1.9664,1.9667,1.9773,2.119,2.1861,2.6452,2.6935,2.7415,2.7428,2.8395,2.9228,2.8718,2.9336,2.9992,2.9932,2.9876,2.9779,2.959,2.9518,2.9322,2.8868,2.8496,2.781,2.6548,2.6264,2.5875,2.5029,2.4915,2.4915,2.4903,2.4929,2.4935,2.4942,2.4955,2.4961,2.4961,2.4961,2.4974,2.5038,2.5051,2.5088,2.5122,2.5153,2.5151,2.5154,2.5154,2.4643,2.3652,2.2882,2.1719,2.0307,2.0131,2.0098,2.015,2.015,2.0162,2.0182,2.0182,2.0182,2.0182,2.0186,2.0186,2.0182,2.019,2.0222,2.0273,2.0277,2.0277,2.0276,2.0278,2.033,2.0356,2.0379,2.0373,2.0389,2.0389,2.0382,2.0371,2.0353,2.0439,2.0531,2.0558,2.0693,2.082,2.0816,2.0831,2.0765,2.0572,2.0548,2.0472,2.0299,2.026,2.026,2.026,2.0214,2.0186,2.0186,2.0188,2.0176,2.0186,2.0186,2.0167,2.0162,2.0164,2.0136,2.0089,2.0003,1.9928,1.9864,1.9858,2.015,2.0784,2.0708,2.1006,2.1639,2.1913,2.2346,2.7072,2.7445,2.784,2.8236,2.9283,3.0029,2.9142,2.9607,3.0192,3.0157,3.0061,3.0002,3.0002,2.9975,2.9682,2.8875,2.8426,2.7733,2.6472,2.5965,2.5571,2.5094,2.5056,2.5062,2.5093,2.5093,2.5099,2.5097,2.5097,2.5097,2.5097,2.5097,2.5103,2.5159,2.517,2.5217,2.525,2.5241,2.5257,2.5248,2.5288,2.4861,2.4005,2.2671,2.1603,2.0741,2.0324,2.0184,2.024,2.024,2.0256,2.0257,2.0257,2.0257,2.0242,2.0254,2.0258,2.0258,2.025,2.0265,2.0299,2.029,2.0311,2.0354,2.0344,2.0375,2.041,2.0396,2.0394,2.0404,2.041,2.0422,2.0451,2.0451,2.0391,2.0347,2.0347,2.036,2.035,2.036,2.0324,2.029,2.0299,2.0307,2.03,2.0308,2.0304,2.03,2.0308,2.0265,2.0257,2.0257,2.0249,2.0237,2.019,2.019,2.0205,2.0193,2.0199,2.0182,2.0155,2.0117,2.0049,1.9944,1.9944,2.0161,2.057,2.0535,2.0733,2.1142,2.1467,2.1838,2.7706,2.7974,2.8222,2.9031,2.9774,3.0138,2.9415,2.9793,3.0324,3.0324,3.0219,3.014,3.014,3.0135,2.9825,2.8871,2.816,2.7357,2.6344,2.5591,2.5138,2.5138,2.5138,2.5168,2.5209,2.5215,2.522,2.5222,2.5222,2.5222,2.5222,2.5222,2.5228,2.5233,2.5297,2.5326,2.5312,2.5313,2.5322,2.5327,2.5384,2.5039,2.43,2.2699,2.1799,2.1479,2.0734,2.0377,2.0308,2.0292,2.0296,2.0296,2.03,2.0304,2.0308,2.0307,2.0318,2.0325,2.0324,2.0321,2.0321,2.0324,2.0362,2.0424,2.041,2.0424,2.0422,2.0417,2.0411,2.0422,2.0426,2.0476,2.0522,2.0522,2.0478,2.0427,2.0412,2.0418,2.0408,2.0402,2.0359,2.0318,2.0318,2.0324,2.0324,2.0325,2.0318,2.0307,2.0308,2.0304,2.03,2.03,2.03,2.0277,2.0227,2.0223,2.0211,2.021,2.0205,2.0193,2.0209,2.0201,2.0145,2.0045,2.0021,2.0016,2.0016,2.0024,2.0014,2.0028,2.0632,2.0983,2.7772,2.8491,2.921,3.002,3.0304,3.0362,3.0246,3.0304,3.0381,3.0381,3.0322,3.0266,3.0266,3.0266,2.9762,2.8189,2.7856,2.7234,2.5662,2.534,2.5269,2.5269,2.5269,2.5288,2.5293,2.5293,2.5293,2.5298,2.5298,2.5298,2.5298,2.5298,2.5313,2.5361,2.5384,2.5394,2.5393,2.5397,2.5387,2.5389,2.5445,2.5437,2.529,2.4281,2.3014,2.1586,2.1393,2.0942,2.0288,2.0292,2.03,2.03,2.0299,2.0297,2.0295,2.0299,2.0334,2.0395,2.0398,2.039,2.0388,2.0382,2.0422,2.0485,2.0486,2.0483,2.0497,2.0486,2.0494,2.0481,2.0481,2.0545,2.0588,2.0588,2.0586,2.0555,2.0492,2.0497,2.0472,2.0415,2.0388,2.0385,2.0385,2.039,2.0398,2.0395,2.0334,2.0299,2.0295,2.0297,2.0306,2.0306,2.0306,2.0306,2.0287,2.0288,2.0296,2.0292,2.0223,2.0203,2.0203,2.0199,2.0187,2.0178,2.0117,2.0084,2.0084,2.0093,2.0097,2.0097,2.0129,2.0511,2.7709,2.9028,3.012,3.0437,3.0506,3.0506,3.0506,3.0506,3.0506,3.0506,3.0492,3.0455,3.0371,3.0354,2.9821,2.8135,2.7867,2.7272,2.5581,2.5354,2.5378,2.541,2.5382,2.5354,2.5354,2.536,2.5355,2.5355,2.5355,2.536,2.5354,2.5354,2.5391,2.5448,2.5468,2.546,2.5464,2.5464,2.546,2.5466,2.5479,2.5515,2.5547,2.5111,2.4231,2.3022,2.2508,2.208,2.1714,2.1223,2.1048,2.1049,2.055,2.0369,2.0368,2.0369,2.0363,2.0412,2.0444,2.0458,2.045,2.0456,2.0471,2.0506,2.05,2.0492,2.0501,2.055,2.0554,2.0555,2.0557,2.0578,2.0598,2.0598,2.0598,2.0596,2.0564,2.0529,2.0492,2.0451,2.0456,2.0467,2.0458,2.0466,2.0434,2.0412,2.0374,2.0357,2.0368,2.0359,2.0353,2.0353,2.0353,2.0369,2.036,2.035,2.0337,2.0301,2.0268,2.0269,2.0262,2.0261,2.0264,2.0267,2.0144,2.0093,2.0093,2.0098,2.0093,2.0093,2.0065,2.0255,2.7151,2.844,2.9383,2.9329,2.95,2.9714,2.9947,3.0164,3.0381,3.0614,3.0649,3.0583,3.0482,3.0452,2.9969,2.8502,2.8077,2.7419,2.5967,2.5565,2.5434,2.5484,2.5457,2.5426,2.5426,2.5433,2.5425,2.5425,2.5425,2.5433,2.5426,2.543,2.5449,2.5501,2.5511,2.5528,2.5528,2.5537,2.5529,2.5529,2.5537,2.5571,2.5626,2.5569,2.5199,2.4513,2.363,2.3113,2.2881,2.2214,2.1846,2.1637,2.1003,2.0623,2.0425,2.0424,2.0437,2.0426,2.0478,2.0511,2.0521,2.0521,2.0528,2.0538,2.0524,2.053,2.0536,2.0581,2.0602,2.0602,2.0603,2.0603,2.0603,2.0603,2.0603,2.0603,2.0602,2.0555,2.0521,2.0524,2.0519,2.0495,2.0505,2.0494,2.0484,2.042,2.0426,2.0434,2.0422,2.0437,2.0434,2.0434,2.0434,2.0429,2.0432,2.041,2.038,2.0334,2.0324,2.0324,2.0332,2.0306,2.0292,2.0296,2.0205,2.0139,2.0135,2.0126,2.0122,2.0122,2.0117,2.0103,2.5804,2.5847,2.5855,2.5853,2.6481,2.7301,2.8138,2.8961,2.9781,3.0619,3.0747,3.0681,3.0698,3.0628,3.0292,2.9369,2.8536,2.7702,2.6856,2.6019,2.5492,2.5492,2.5492,2.5492,2.5492,2.5492,2.5489,2.5489,2.5489,2.5489,2.5492,2.5486,2.5502,2.5498,2.5568,2.5591,2.558,2.558,2.559,2.5591,2.5668,2.5693,2.5687,2.5693,2.5627,2.5487,2.4533,2.3696,2.2984,2.2954,2.244,2.1704,2.1729,2.1216,2.0482,2.0482,2.0497,2.0496,2.0496,2.0544,2.0592,2.0592,2.0595,2.0598,2.0581,2.0583,2.0604,2.0605,2.0605,2.0605,2.0605,2.0605,2.0605,2.0605,2.0605,2.0605,2.0603,2.06,2.0597,2.0593,2.0549,2.0504,2.0497,2.0509,2.0503,2.0503,2.0492,2.0482,2.0482,2.0492,2.0484,2.0484,2.0484,2.05,2.0487,2.0439,2.0391,2.0395,2.0385,2.0385,2.0385,2.0337,2.0302,2.0302,2.0297,2.025,2.0188,2.0186,2.0192,2.0192,2.0126,2.0126,2.5708,2.5683,2.5658,2.5653,2.5907,2.6219,2.6511,2.7271,2.7975,2.8306,2.8753,2.9279,2.9823,3.0322,3.0377,2.9509,2.8628,2.7776,2.6971,2.6118,2.5556,2.5564,2.5556,2.5551,2.5551,2.5565,2.556,2.556,2.556,2.5568,2.5564,2.5569,2.5583,2.5629,2.5655,2.5663,2.5651,2.5655,2.5659,2.5664,2.5687,2.569,2.5693,2.569,2.5687,2.5643,2.5311,2.4976,2.4627,2.4062,2.3681,2.3324,2.2234,2.1618,2.1278,2.0754,2.0566,2.0554,2.0555,2.0578,2.0599,2.0599,2.06,2.0601,2.0603,2.0605,2.0605,2.0605,2.0605,2.0604,2.0604,2.0604,2.0604,2.0604,2.0604,2.0604,2.0605,2.0605,2.0603,2.06,2.0578,2.0556,2.0555,2.0566,2.056,2.056,2.0532,2.0507,2.0507,2.0504,2.0503,2.0503,2.0503,2.0498,2.0508,2.0487,2.046,2.0465,2.0467,2.0454,2.0464,2.0432,2.0424,2.0424,2.0388,2.0334,2.0254,2.0226,2.019,2.0205,2.0176,2.0182,2.4828,2.4415,2.3983,2.3999,2.4212,2.4502,2.4776,2.5731,2.6647,2.6942,2.7899,2.8855,2.9421,3.0199,3.0548,2.9959,2.9138,2.8281,2.7472,2.6617,2.5956,2.5669,2.5627,2.5623,2.5623,2.564,2.5638,2.5638,2.5621,2.5629,2.5639,2.5623,2.5654,2.569,2.5691,2.5693,2.5696,2.5696,2.5697,2.5699,2.5699,2.57,2.5702,2.57,2.5699,2.5699,2.5697,2.5668,2.5588,2.5002,2.4617,2.4274,2.3122,2.2326,2.1766,2.1221,2.0854,2.0603,2.0603,2.0604,2.0605,2.0605,2.0605,2.0605,2.0605,2.0605,2.0604,2.0563,2.056,2.0578,2.0576,2.0576,2.0576,2.0576,2.0576,2.0576,2.0576,2.0584,2.0605,2.0605,2.0604,2.0603,2.0602,2.0597,2.0592,2.0591,2.0567,2.0524,2.0524,2.0524,2.0524,2.0524,2.0524,2.0521,2.0535,2.0533,2.0529,2.0498,2.0506,2.0498,2.049,2.0504,2.0502,2.0502,2.0454,2.042,2.0366,2.0275,2.0231,2.0227,2.0218,2.0342,0.0,0.0,0.0,2.0599,2.124,2.2075,2.2857,2.4399,2.5902,2.6742,2.8324,2.9573,2.9592,3.0235,3.0777,3.0801,3.0078,2.9219,2.8418,2.7542,2.6684,2.5807,2.569,2.569,2.569,2.5697,2.5701,2.5701,2.5705,2.5707,2.5708,2.5692,2.5698,2.5702,2.5702,2.5703,2.5703,2.5703,2.5703,2.5703,2.5703,2.5703,2.5703,2.5703,2.5703,2.5703,2.5703,2.5701,2.5709,2.5693,2.5207,2.4447,2.441,2.3415,2.1969,2.193,2.1405,2.0664,2.0644,2.0643,2.0621,2.0601,2.0601,2.0601,2.0599,2.0599,2.0578,2.0529,2.0507,2.0505,2.0498,2.0497,2.0497,2.0497,2.0497,2.0497,2.0497,2.0552,2.0601,2.0604,2.0604,2.0605,2.0605,2.0603,2.0601,2.06,2.0596,2.0594,2.0594,2.0594,2.0594,2.0594,2.0594,2.0592,2.0606,2.0605,2.0564,2.0519,2.0492,2.0506,2.0506,2.0503,2.05,2.05,2.05,2.049,2.0508,2.0363,2.0311,2.0346,2.0308,2.0719,2.2226,0.0,0.0,0.0,0.0,0.0,2.1242,2.3095,2.4831,2.5063,2.7015,2.885,2.9475,2.9788,3.0117,3.0718,3.0113,2.9274,2.8414,2.7557,2.668,2.58,2.5706,2.5708,2.5708,2.5694,2.5696,2.5696,2.5697,2.5698,2.57,2.5702,2.5703,2.5703,2.5703,2.5703,2.5703,2.5703,2.5703,2.5703,2.5702,2.5702,2.5702,2.5702,2.5702,2.5702,2.5702,2.5702,2.5703,2.5702,2.5565,2.5273,2.4647,2.4121,2.3633,2.3007,2.2614,2.2318,2.1689,2.147,2.1351,2.0723,2.0527,2.0526,2.0526,2.0522,2.0517,2.051,2.0504,2.0497,2.0506,2.0503,2.0503,2.0503,2.0503,2.0503,2.0503,2.0511,2.0525,2.0526,2.0535,2.0521,2.0525,2.0566,2.0605,2.0605,2.0605,2.0604,2.0603,2.0601,2.0599,2.0598,2.0595,2.0593,2.0592,2.0591,2.0591,2.057,2.0564,2.0561,2.0561,2.0536,2.0493,2.0493,2.0493,2.0507,2.0497,2.047,2.0734,2.1336,2.1833,2.2515,2.1854,2.123,2.0566,2.0586,0.0,0.0,2.0604,2.2282,2.3959,2.4329,2.6182,2.8133,2.9364,2.9598,2.9872,3.0711,3.0457,2.9832,2.8968,2.809,2.7213,2.6354,2.591,2.5698,2.5698,2.5702,2.5703,2.5703,2.5703,2.5703,2.5703,2.5703,2.5703,2.5703,2.5703,2.5702,2.5702,2.57,2.5699,2.5696,2.5695,2.5694,2.5694,2.5694,2.5694,2.5696,2.5694,2.5694,2.5694,2.5698,2.57,2.5643,2.5135,2.4723,2.4348,2.3835,2.3185,2.2497,2.1979,2.1565,2.1173,2.0678,2.05,2.0498,2.0495,2.051,2.0483,2.0472,2.0461,2.047,2.0461,2.0461,2.0461,2.0461,2.0461,2.0461,2.0461,2.0461,2.0474,2.0494,2.0507,2.0498,2.0507,2.0533,2.0558,2.0564,2.0565,2.0566,2.0605,2.0605,2.0603,2.0601,2.0598,2.0596,2.0594,2.0594,2.0594,2.0594,2.0591,2.0609,2.0609,2.0566,2.0545,2.0545,2.0545,2.0718,2.1044,2.103,2.1456,2.2264,2.2994,2.3583,2.1668,2.1084,2.0501,2.0561,2.0583,0.0,2.0586,2.1894,2.332,2.4101,2.5643,2.7321,2.8884,2.9177,2.945,3.0329,3.0544,3.0366,2.9694,2.8856,2.7979,2.7103,2.6229,2.5703,2.5703,2.5703,2.5701,2.5701,2.57,2.5698,2.5698,2.5698,2.5698,2.5698,2.5698,2.5696,2.5692,2.5691,2.5686,2.5696,2.5694,2.5694,2.5693,2.5693,2.5697,2.5682,2.5696,2.5693,2.5693,2.5686,2.5696,2.569,2.5681,2.5226,2.452,2.4532,2.349,2.2057,2.1969,2.1358,2.0613,2.0523,2.048,2.0497,2.0487,2.0482,2.048,2.042,2.0402,2.0408,2.0408,2.0408,2.0408,2.0408,2.0408,2.0408,2.0408,2.0485,2.056,2.0625,2.0558,2.049,2.049,2.0498,2.0529,2.0627,2.0633,2.0696,2.0857,2.078,2.0723,2.0721,2.0641,2.0599,2.0594,2.0594,2.0594,2.0594,2.0594,2.0594,2.0594,2.0594,2.0652,2.075,2.0828,2.1274,2.209,2.2083,2.2451,2.3151,2.3924,2.4258,2.0757,2.0624,2.0491,2.0511,2.0555,0.0,2.0523,2.1853,2.3143,2.3319,2.4746,2.6055,2.6406,2.6465,2.6758,2.7617,2.8359,2.8984,2.953,2.8845,2.7987,2.7109,2.6228,2.5697,2.5694,2.5706,2.5699,2.5699,2.5698,2.5698,2.5698,2.5698,2.5698,2.5698,2.5698,2.5697,2.5696,2.5648,2.5619,2.563,2.5623,2.5615,2.5626,2.5626,2.5628,2.5628,2.5628,2.5626,2.5626,2.563,2.5611,2.5624,2.5614,2.5527,2.5362,2.5377,2.4705,2.3711,2.3006,2.2202,2.1345,2.065,2.041,2.0429,2.0426,2.0426,2.0421,2.0405,2.0407,2.0392,2.0392,2.0392,2.0392,2.0392,2.0392,2.0392,2.0392,2.0956,2.1449,2.1462,2.0892,2.0415,2.0411,2.0467,2.0735,2.145,2.1554,2.1797,2.2512,2.1995,2.1574,2.1561,2.0996,2.0603,2.0599,2.0598,2.0597,2.0594,2.0594,2.0594,2.0594,2.0594,2.0925,2.1627,2.2272,2.303,2.3882,2.3886,2.3942,2.407,2.4902,2.5253,2.0504,2.0506,2.0509,2.0509,2.0532,0.0,0.0,2.1504,2.2561,2.3011,2.3775,2.4616,2.5495,2.528,2.53,2.6158,2.7034,2.7913,2.8774,2.8899,2.8571,2.7709,2.6836,2.6139,2.5687,2.5653,2.5644,2.5644,2.5644,2.5644,2.5644,2.5644,2.5644,2.5644,2.5644,2.564,2.5652,2.5626,2.5574,2.5556,2.5551,2.5543,2.5557,2.5557,2.556,2.5604,2.556,2.5557,2.5554,2.5556,2.5549,2.5556,2.5556,2.5551,2.5543,2.5559,2.4738,2.3589,2.3159,2.2141,2.0975,2.0532,2.0407,2.0407,2.0407,2.0407,2.0407,2.0398,2.0408,2.0402,2.0402,2.0402,2.0402,2.0402,2.073,2.1043,2.1043,2.1704,2.2304,2.2304,2.1956,2.1648,2.1646,2.1703,2.1896,2.2321,2.2393,2.2565,2.3035,2.2716,2.2456,2.2452,2.2087,2.1855,2.1855,2.1852,2.185,2.1846,2.1844,2.1843,2.1843,2.1843,2.2057,2.2485,2.3325,2.3968,2.4393,2.4837,2.5039,2.5017,2.5415,2.5568,2.0506,2.0505,2.0503,2.0501,2.0501,2.0503,0.0,0.0,0.0,2.2449,2.2565,2.2957,2.4365,2.4034,2.3857,2.4716,2.5572,2.6441,2.732,2.8209,2.8619,2.8233,2.7269,2.6366,2.5643,2.543,2.5359,2.5359,2.5359,2.5359,2.5359,2.5495,2.5573,2.5573,2.5573,2.5585,2.559,2.559,2.5556,2.5509,2.5509,2.5506,2.5502,2.5502,2.5531,2.558,2.5528,2.5502,2.5502,2.5508,2.5505,2.5505,2.5502,2.5509,2.5506,2.5508,2.4439,2.2982,2.2988,2.1859,2.0401,2.0405,2.0518,2.0653,2.0653,2.0653,2.0653,2.0653,2.0537,2.0402,2.0402,2.0518,2.0653,2.0653,2.1317,2.194,2.194,2.2575,2.3155,2.3155,2.329,2.3294,2.2959,2.2963,2.3059,2.3231,2.3256,2.3322,2.3542,2.3458,2.3356,2.3357,2.3191,2.31,2.3105,2.3105,2.3102,2.3098,2.3094,2.3091,2.3091,2.3267,2.3345,2.3345,2.4203,2.4652,2.4652,2.5355,2.5698,2.5696,2.564,2.561,2.0506,2.0505,2.0501,2.0492,2.0509,2.0508,2.0497,0.0,2.069,2.0763,0.0,2.0839,2.1035,0.0,0.0,2.201,2.2865,2.374,2.4615,2.5482,2.6554,2.7954,2.6712,2.5685,2.5534,2.4875,2.4455,2.4455,2.4455,2.4455,2.4455,2.5118,2.5509,2.5509,2.5509,2.5506,2.5506,2.5506,2.5511,2.5503,2.5503,2.5495,2.5499,2.5499,2.5503,2.5503,2.5499,2.5499,2.5499,2.5499,2.5496,2.5499,2.5499,2.5503,2.5503,2.5503,2.4397,2.2907,2.2907,2.182,2.0402,2.0402,2.0927,2.1553,2.1553,2.1553,2.1553,2.1553,2.1004,2.0402,2.0402,2.0966,2.1553,2.1553,2.2168,2.2768,2.2768,2.3441,2.4041,2.4041,2.4679,2.4718,2.3174,2.2953,2.3266,2.4041,2.4142,2.4428,2.5221,2.4695,2.4247,2.4243,2.3567,2.309,2.3103,2.3105,2.3105,2.3098,2.3094,2.3091,2.3091,2.3832,2.4241,2.4241,2.5101,2.5551,2.5551,2.5648,2.5702,2.5707,2.5696,2.5667,2.0499,2.0494,2.049,2.0446,2.0441,2.0437,2.0442,2.0432,2.0443,2.0441,0.0,0.0,0.0,0.0,0.0,0.0,2.1673,2.2548,2.3363,2.3802,2.4494,2.574,2.5234,2.4587,2.4044,2.3686,2.3485,2.3485,2.3969,2.4237,2.4237,2.5034,2.5499,2.5499,2.5499,2.5499,2.5499,2.5499,2.5491,2.5499,2.5499,2.5496,2.5507,2.5507,2.5507,2.5507,2.5507,2.5507,2.5507,2.5507,2.5507,2.5511,2.5499,2.5499,2.5441,2.4931,2.3964,2.2826,2.2362,2.1411,2.0402,2.0402,2.0985,2.1707,2.1707,2.2036,2.2304,2.1823,2.1433,2.1043,2.0537,2.1043,2.1707,2.1707,2.2691,2.3654,2.3654,2.4331,2.495,2.495,2.526,2.5279,2.4525,2.4422,2.4565,2.493,2.5032,2.5182,2.5549,2.531,2.5111,2.5143,2.484,2.462,2.4619,2.4607,2.4609,2.4605,2.4618,2.4614,2.4614,2.4965,2.5159,2.5159,2.5512,2.5707,2.5707,2.5707,2.5702,2.571,2.5705,2.5669,2.1214,2.1033,2.0832,2.076,2.0575,2.0395,2.0399,2.0402,2.0407,2.0401,2.0392,0.0,0.0,0.0,2.0402,2.0402,0.0,2.1527,2.2104,2.2197,2.2717,2.4103,2.4022,2.3603,2.2967,2.268,2.2548,2.2548,2.3345,2.3751,2.3522,2.4776,2.5391,2.5143,2.5376,2.5507,2.5507,2.5507,2.5507,2.5507,2.5507,2.5507,2.5507,2.5507,2.5507,2.5507,2.5507,2.5507,2.5507,2.5507,2.5507,2.5507,2.5507,2.5352,2.5066,2.4428,2.3499,2.2497,2.1901,2.1124,2.044,2.0672,2.1337,2.2075,2.2307,2.2787,2.3136,2.2555,2.2056,2.1611,2.1198,2.1546,2.2094,2.2326,2.3503,2.4563,2.4563,2.5047,2.5507,2.5507,2.5507,2.5492,2.5496,2.549,2.5495,2.5495,2.5559,2.5595,2.5608,2.5622,2.5652,2.5699,2.5705,2.5701,2.5705,2.5698,2.5703,2.5698,2.5692,2.5707,2.5707,2.5707,2.5707,2.5707,2.5707,2.5707,2.5707,2.5707,2.5703,2.5696,2.5692,2.5657,2.3026,2.2397,2.1746,2.1682,2.1027,2.0395,2.0399,2.0402,2.0404,2.0405,2.0402,2.0402,2.0402,2.0402,2.0402,2.0402,2.0373,0.0,0.0,2.0388,2.1331,2.3899,2.3458,2.2925,2.2906,2.213,2.1638,2.1638,2.2448,2.2594,2.1823,2.4138,2.5105,2.4273,2.5066,2.5507,2.5507,2.5507,2.5507,2.5507,2.5507,2.5507,2.5507,2.5507,2.5507,2.5507,2.5507,2.5507,2.5507,2.5507,2.5507,2.5507,2.5507,2.4989,2.4234,2.4215,2.3155,2.1727,2.1707,2.1124,2.0537,2.1375,2.2207,2.3019,2.3867,2.4138,2.4157,2.4138,2.2942,2.1862,2.2613,2.2845,2.3077,2.3925,2.4815,2.5449,2.5449,2.5488,2.5507,2.5507,2.5507,2.5496,2.5491,2.5498,2.5495,2.5495,2.5551,2.5608,2.5608,2.5667,2.5699,2.5699,2.5699,2.5696,2.5705,2.5696,2.5703,2.5709,2.5707,2.5707,2.5707,2.5707,2.5707,2.5707,2.5707,2.5707,2.5707,2.5707,2.5707,2.5706,2.5696,2.5666,0.0,0.0,2.1783,2.1723,0.0,0.0,0.0,0.0,2.0563,2.1143,2.1259,2.1259,2.1259,2.1259,2.1062,2.0431,2.0318,2.0301,0.0,2.0265,2.0542,2.1383,2.1297,2.1182,2.1182,2.0912,2.075,2.075,2.154,2.2168,2.2481,2.3829,2.4702,2.4985,2.5274,2.5429,2.5429,2.5429,2.5425,2.5432,2.5432,2.5432,2.5432,2.5432,2.5432,2.5432,2.5432,2.5432,2.5432,2.5432,2.5432,2.5374,2.4794,2.4069,2.335,2.3341,2.2633,2.163,2.1043,2.1024,2.1317,2.1591,2.2633,2.3828,2.4118,2.4602,2.495,2.435,2.379,2.329,2.2981,2.3325,2.3828,2.4138,2.4873,2.5507,2.5507,2.5507,2.5507,2.5507,2.5499,2.5511,2.5495,2.5547,2.557,2.557,2.5587,2.559,2.559,2.5615,2.563,2.563,2.5675,2.5692,2.5701,2.57,2.5702,2.5693,2.5709,2.5707,2.5707,2.5707,2.5707,2.5707,2.5707,2.5707,2.5707,2.5707,2.5705,2.5702,2.5707,2.5664,2.3999,2.335,0.0,2.2649,2.197,0.0,2.1291,0.0,2.1449,0.0,0.0,2.1707,2.1707,2.143,2.0995,2.0395,2.029,2.0254,0.0,2.0184,2.0144,2.0107,2.0171,2.0225,2.0225,2.0226,2.0242,2.0254,2.1066,2.1679,2.1953,2.3036,2.3762,2.4049,2.4338,2.4628,2.4936,2.4936,2.5078,2.536,2.536,2.536,2.536,2.536,2.536,2.536,2.536,2.536,2.536,2.536,2.536,2.5302,2.4743,2.4043,2.3257,2.2669,2.2126,2.1669,2.1372,2.1662,2.2191,2.2497,2.3329,2.4254,2.4563,2.5047,2.5372,2.4815,2.4447,2.4138,2.3886,2.4002,2.4273,2.4583,2.5085,2.5507,2.5507,2.5507,2.5507,2.5507,2.5503,2.5499,2.551,2.5557,2.5599,2.5599,2.5604,2.5601,2.5601,2.5608,2.5607,2.5607,2.5654,2.5694,2.5703,2.5702,2.5701,2.5694,2.571,2.5707,2.5707,2.5707,2.5707,2.5707,2.5707,2.5707,2.5707,2.5707,2.5704,2.5698,2.568,2.5634]}]]